<?xml version="1.0" encoding="UTF-8"?>
<gpx version="1.1" creator="2bulu-scraper" xmlns="http://www.topografix.com/GPX/1/1">
  <metadata><name>荣县双古牛峰山</name><desc>source: 2bulu.com trackId=81586903; exported 2026-09-01T15:47:35.189Z</desc>
    <bounds minlat="29.532134" minlon="104.264243" maxlat="29.548957" maxlon="104.281313"/>
    <link href="https://www.2bulu.com/track/t-bWPA7vwfG8Dp%252FR2KBg5Tzw%253D%253D.htm"><text>2bulu 源页面</text></link>
  </metadata>
  <wpt lat="29.534389" lon="104.279161"><ele>595</ele><name>右边</name></wpt>
  <wpt lat="29.536288" lon="104.275048"><ele>578</ele><name></name></wpt>
  <wpt lat="29.537606" lon="104.27555"><ele>588</ele><name></name></wpt>
  <wpt lat="29.538122" lon="104.276752"><ele>597</ele><name></name></wpt>
  <wpt lat="29.537971" lon="104.277592"><ele>657</ele><name></name></wpt>
  <wpt lat="29.539089" lon="104.274945"><ele>655</ele><name></name></wpt>
  <wpt lat="29.538141" lon="104.269424"><ele>645</ele><name></name></wpt>
  <wpt lat="29.53824" lon="104.269424"><ele>640</ele><name></name></wpt>
  <wpt lat="29.543025" lon="104.271252"><ele>544</ele><name>这儿不好走，可以跟着大路走</name></wpt>
  <wpt lat="29.542987" lon="104.271282"><ele>545</ele><name></name></wpt>
  <trk><name>荣县双古牛峰山</name>
      <trkseg>
        <trkpt lat="29.548772" lon="104.279198"><ele>513.1687</ele><time>2026-04-03T19:14:32.000Z</time></trkpt>
        <trkpt lat="29.548738" lon="104.279254"><ele>513.1151</ele><time>2026-04-03T19:14:37.000Z</time></trkpt>
        <trkpt lat="29.548693" lon="104.279214"><ele>514.8108</ele><time>2026-04-03T19:14:38.000Z</time></trkpt>
        <trkpt lat="29.548684" lon="104.279268"><ele>515.82935</ele><time>2026-04-03T19:14:46.000Z</time></trkpt>
        <trkpt lat="29.54866" lon="104.279322"><ele>516.60156</ele><time>2026-04-03T19:14:56.000Z</time></trkpt>
        <trkpt lat="29.54862" lon="104.279352"><ele>517.3448</ele><time>2026-04-03T19:15:00.000Z</time></trkpt>
        <trkpt lat="29.548581" lon="104.27939"><ele>517.26843</ele><time>2026-04-03T19:15:05.000Z</time></trkpt>
        <trkpt lat="29.548548" lon="104.279432"><ele>518.2454</ele><time>2026-04-03T19:15:10.000Z</time></trkpt>
        <trkpt lat="29.548516" lon="104.279478"><ele>518.6705</ele><time>2026-04-03T19:15:15.000Z</time></trkpt>
        <trkpt lat="29.548478" lon="104.279525"><ele>520.132</ele><time>2026-04-03T19:15:21.000Z</time></trkpt>
        <trkpt lat="29.548441" lon="104.27957"><ele>521.88586</ele><time>2026-04-03T19:15:27.000Z</time></trkpt>
        <trkpt lat="29.548409" lon="104.279617"><ele>523.02484</ele><time>2026-04-03T19:15:33.000Z</time></trkpt>
        <trkpt lat="29.54838" lon="104.279662"><ele>524.4119</ele><time>2026-04-03T19:15:39.000Z</time></trkpt>
        <trkpt lat="29.548339" lon="104.279701"><ele>523.94543</ele><time>2026-04-03T19:15:44.000Z</time></trkpt>
        <trkpt lat="29.548303" lon="104.279745"><ele>525.1505</ele><time>2026-04-03T19:15:50.000Z</time></trkpt>
        <trkpt lat="29.548271" lon="104.279784"><ele>526.0511</ele><time>2026-04-03T19:15:55.000Z</time></trkpt>
        <trkpt lat="29.548242" lon="104.279828"><ele>528.3443</ele><time>2026-04-03T19:16:02.000Z</time></trkpt>
        <trkpt lat="29.548197" lon="104.279866"><ele>531.1967</ele><time>2026-04-03T19:16:09.000Z</time></trkpt>
        <trkpt lat="29.54816" lon="104.279899"><ele>532.65643</ele><time>2026-04-03T19:16:14.000Z</time></trkpt>
        <trkpt lat="29.54812" lon="104.279925"><ele>532.8985</ele><time>2026-04-03T19:16:18.000Z</time></trkpt>
        <trkpt lat="29.548082" lon="104.279953"><ele>535.4164</ele><time>2026-04-03T19:16:24.000Z</time></trkpt>
        <trkpt lat="29.548041" lon="104.279982"><ele>535.60254</ele><time>2026-04-03T19:16:28.000Z</time></trkpt>
        <trkpt lat="29.547998" lon="104.280001"><ele>536.2404</ele><time>2026-04-03T19:16:33.000Z</time></trkpt>
        <trkpt lat="29.547952" lon="104.28003"><ele>537.0125</ele><time>2026-04-03T19:16:40.000Z</time></trkpt>
        <trkpt lat="29.547908" lon="104.280055"><ele>537.41345</ele><time>2026-04-03T19:16:47.000Z</time></trkpt>
        <trkpt lat="29.547871" lon="104.280087"><ele>539.434</ele><time>2026-04-03T19:16:51.000Z</time></trkpt>
        <trkpt lat="29.54783" lon="104.280116"><ele>541.0118</ele><time>2026-04-03T19:16:58.000Z</time></trkpt>
        <trkpt lat="29.547778" lon="104.28012"><ele>541.58856</ele><time>2026-04-03T19:17:04.000Z</time></trkpt>
        <trkpt lat="29.547726" lon="104.2801"><ele>542.78796</ele><time>2026-04-03T19:17:09.000Z</time></trkpt>
        <trkpt lat="29.547675" lon="104.280077"><ele>543.9836</ele><time>2026-04-03T19:17:15.000Z</time></trkpt>
        <trkpt lat="29.547625" lon="104.28006"><ele>544.6423</ele><time>2026-04-03T19:17:21.000Z</time></trkpt>
        <trkpt lat="29.547575" lon="104.280081"><ele>545.20154</ele><time>2026-04-03T19:17:27.000Z</time></trkpt>
        <trkpt lat="29.547525" lon="104.280106"><ele>546.0731</ele><time>2026-04-03T19:17:33.000Z</time></trkpt>
        <trkpt lat="29.547481" lon="104.280128"><ele>546.6596</ele><time>2026-04-03T19:17:39.000Z</time></trkpt>
        <trkpt lat="29.547442" lon="104.28017"><ele>546.888</ele><time>2026-04-03T19:17:45.000Z</time></trkpt>
        <trkpt lat="29.547399" lon="104.280203"><ele>547.7855</ele><time>2026-04-03T19:17:49.000Z</time></trkpt>
        <trkpt lat="29.547362" lon="104.280242"><ele>548.36707</ele><time>2026-04-03T19:17:53.000Z</time></trkpt>
        <trkpt lat="29.547323" lon="104.280273"><ele>549.04175</ele><time>2026-04-03T19:17:58.000Z</time></trkpt>
        <trkpt lat="29.547279" lon="104.280308"><ele>549.9672</ele><time>2026-04-03T19:18:07.000Z</time></trkpt>
        <trkpt lat="29.547246" lon="104.280352"><ele>550.3101</ele><time>2026-04-03T19:18:11.000Z</time></trkpt>
        <trkpt lat="29.547212" lon="104.280389"><ele>550.20734</ele><time>2026-04-03T19:18:16.000Z</time></trkpt>
        <trkpt lat="29.54719" lon="104.280437"><ele>550.4383</ele><time>2026-04-03T19:18:20.000Z</time></trkpt>
        <trkpt lat="29.547159" lon="104.280478"><ele>550.5018</ele><time>2026-04-03T19:18:23.000Z</time></trkpt>
        <trkpt lat="29.547138" lon="104.280524"><ele>550.27826</ele><time>2026-04-03T19:18:28.000Z</time></trkpt>
        <trkpt lat="29.547116" lon="104.280575"><ele>549.40125</ele><time>2026-04-03T19:18:33.000Z</time></trkpt>
        <trkpt lat="29.547091" lon="104.280628"><ele>551.31244</ele><time>2026-04-03T19:18:37.000Z</time></trkpt>
        <trkpt lat="29.547062" lon="104.280686"><ele>550.06824</ele><time>2026-04-03T19:18:41.000Z</time></trkpt>
        <trkpt lat="29.547042" lon="104.280733"><ele>548.4311</ele><time>2026-04-03T19:18:45.000Z</time></trkpt>
        <trkpt lat="29.547017" lon="104.280792"><ele>548.1824</ele><time>2026-04-03T19:18:50.000Z</time></trkpt>
        <trkpt lat="29.546982" lon="104.280848"><ele>548.733</ele><time>2026-04-03T19:18:57.000Z</time></trkpt>
        <trkpt lat="29.546978" lon="104.280903"><ele>549.5179</ele><time>2026-04-03T19:19:04.000Z</time></trkpt>
        <trkpt lat="29.546946" lon="104.280951"><ele>547.2322</ele><time>2026-04-03T19:19:07.000Z</time></trkpt>
        <trkpt lat="29.546933" lon="104.281002"><ele>548.67316</ele><time>2026-04-03T19:19:11.000Z</time></trkpt>
        <trkpt lat="29.546906" lon="104.281047"><ele>548.6111</ele><time>2026-04-03T19:19:15.000Z</time></trkpt>
        <trkpt lat="29.546855" lon="104.281071"><ele>551.0964</ele><time>2026-04-03T19:19:19.000Z</time></trkpt>
        <trkpt lat="29.546807" lon="104.281088"><ele>552.1572</ele><time>2026-04-03T19:19:23.000Z</time></trkpt>
        <trkpt lat="29.546758" lon="104.281092"><ele>553.218</ele><time>2026-04-03T19:19:28.000Z</time></trkpt>
        <trkpt lat="29.546711" lon="104.281086"><ele>552.9445</ele><time>2026-04-03T19:19:34.000Z</time></trkpt>
        <trkpt lat="29.546663" lon="104.281088"><ele>553.748</ele><time>2026-04-03T19:19:37.000Z</time></trkpt>
        <trkpt lat="29.54662" lon="104.281066"><ele>553.3038</ele><time>2026-04-03T19:19:42.000Z</time></trkpt>
        <trkpt lat="29.546569" lon="104.281065"><ele>554.1654</ele><time>2026-04-03T19:19:47.000Z</time></trkpt>
        <trkpt lat="29.546515" lon="104.281064"><ele>555.2853</ele><time>2026-04-03T19:19:52.000Z</time></trkpt>
        <trkpt lat="29.54646" lon="104.281066"><ele>556.39453</ele><time>2026-04-03T19:19:57.000Z</time></trkpt>
        <trkpt lat="29.546409" lon="104.28106"><ele>556.489</ele><time>2026-04-03T19:20:01.000Z</time></trkpt>
        <trkpt lat="29.54636" lon="104.281059"><ele>556.4175</ele><time>2026-04-03T19:20:05.000Z</time></trkpt>
        <trkpt lat="29.546307" lon="104.281056"><ele>555.6215</ele><time>2026-04-03T19:20:09.000Z</time></trkpt>
        <trkpt lat="29.546253" lon="104.281062"><ele>556.7868</ele><time>2026-04-03T19:20:13.000Z</time></trkpt>
        <trkpt lat="29.546198" lon="104.281042"><ele>558.31805</ele><time>2026-04-03T19:20:17.000Z</time></trkpt>
        <trkpt lat="29.546143" lon="104.281036"><ele>559.34393</ele><time>2026-04-03T19:20:23.000Z</time></trkpt>
        <trkpt lat="29.546095" lon="104.281028"><ele>560.6599</ele><time>2026-04-03T19:20:27.000Z</time></trkpt>
        <trkpt lat="29.546042" lon="104.281026"><ele>561.7464</ele><time>2026-04-03T19:20:32.000Z</time></trkpt>
        <trkpt lat="29.545995" lon="104.281002"><ele>563.0418</ele><time>2026-04-03T19:20:36.000Z</time></trkpt>
        <trkpt lat="29.545946" lon="104.280994"><ele>563.56506</ele><time>2026-04-03T19:20:40.000Z</time></trkpt>
        <trkpt lat="29.545903" lon="104.280976"><ele>563.6677</ele><time>2026-04-03T19:20:45.000Z</time></trkpt>
        <trkpt lat="29.545855" lon="104.280962"><ele>563.6241</ele><time>2026-04-03T19:20:49.000Z</time></trkpt>
        <trkpt lat="29.545808" lon="104.28094"><ele>564.7124</ele><time>2026-04-03T19:20:54.000Z</time></trkpt>
        <trkpt lat="29.545758" lon="104.28093"><ele>564.8221</ele><time>2026-04-03T19:20:59.000Z</time></trkpt>
        <trkpt lat="29.545698" lon="104.280919"><ele>564.6635</ele><time>2026-04-03T19:21:05.000Z</time></trkpt>
        <trkpt lat="29.545639" lon="104.280909"><ele>564.93884</ele><time>2026-04-03T19:21:09.000Z</time></trkpt>
        <trkpt lat="29.545594" lon="104.280901"><ele>565.3597</ele><time>2026-04-03T19:21:12.000Z</time></trkpt>
        <trkpt lat="29.545537" lon="104.280901"><ele>566.1905</ele><time>2026-04-03T19:21:16.000Z</time></trkpt>
        <trkpt lat="29.545486" lon="104.280889"><ele>566.8081</ele><time>2026-04-03T19:21:20.000Z</time></trkpt>
        <trkpt lat="29.545439" lon="104.280894"><ele>566.8613</ele><time>2026-04-03T19:21:24.000Z</time></trkpt>
        <trkpt lat="29.545389" lon="104.280898"><ele>567.68494</ele><time>2026-04-03T19:21:28.000Z</time></trkpt>
        <trkpt lat="29.545337" lon="104.280899"><ele>568.1107</ele><time>2026-04-03T19:21:33.000Z</time></trkpt>
        <trkpt lat="29.545289" lon="104.280901"><ele>568.2245</ele><time>2026-04-03T19:21:37.000Z</time></trkpt>
        <trkpt lat="29.545238" lon="104.280901"><ele>569.21576</ele><time>2026-04-03T19:21:41.000Z</time></trkpt>
        <trkpt lat="29.545187" lon="104.280896"><ele>569.5748</ele><time>2026-04-03T19:21:45.000Z</time></trkpt>
        <trkpt lat="29.545129" lon="104.280897"><ele>569.6376</ele><time>2026-04-03T19:21:53.000Z</time></trkpt>
        <trkpt lat="29.545074" lon="104.280902"><ele>569.9977</ele><time>2026-04-03T19:21:57.000Z</time></trkpt>
        <trkpt lat="29.54502" lon="104.280902"><ele>569.8268</ele><time>2026-04-03T19:22:02.000Z</time></trkpt>
        <trkpt lat="29.544967" lon="104.28089"><ele>570.284</ele><time>2026-04-03T19:22:06.000Z</time></trkpt>
        <trkpt lat="29.544917" lon="104.280857"><ele>570.07605</ele><time>2026-04-03T19:22:10.000Z</time></trkpt>
        <trkpt lat="29.544875" lon="104.280825"><ele>571.0081</ele><time>2026-04-03T19:22:13.000Z</time></trkpt>
        <trkpt lat="29.544842" lon="104.280784"><ele>570.98157</ele><time>2026-04-03T19:22:17.000Z</time></trkpt>
        <trkpt lat="29.544791" lon="104.280765"><ele>570.239</ele><time>2026-04-03T19:22:21.000Z</time></trkpt>
        <trkpt lat="29.544747" lon="104.280736"><ele>570.79016</ele><time>2026-04-03T19:22:25.000Z</time></trkpt>
        <trkpt lat="29.544702" lon="104.280718"><ele>570.1037</ele><time>2026-04-03T19:22:29.000Z</time></trkpt>
        <trkpt lat="29.544652" lon="104.280696"><ele>570.26935</ele><time>2026-04-03T19:22:33.000Z</time></trkpt>
        <trkpt lat="29.544601" lon="104.280674"><ele>569.8723</ele><time>2026-04-03T19:22:37.000Z</time></trkpt>
        <trkpt lat="29.544554" lon="104.280656"><ele>570.27856</ele><time>2026-04-03T19:22:41.000Z</time></trkpt>
        <trkpt lat="29.544502" lon="104.280649"><ele>570.9769</ele><time>2026-04-03T19:22:45.000Z</time></trkpt>
        <trkpt lat="29.54445" lon="104.280632"><ele>570.7486</ele><time>2026-04-03T19:22:50.000Z</time></trkpt>
        <trkpt lat="29.544395" lon="104.280622"><ele>570.70776</ele><time>2026-04-03T19:22:54.000Z</time></trkpt>
        <trkpt lat="29.544348" lon="104.280593"><ele>571.6667</ele><time>2026-04-03T19:22:58.000Z</time></trkpt>
        <trkpt lat="29.544292" lon="104.280602"><ele>571.3425</ele><time>2026-04-03T19:23:02.000Z</time></trkpt>
        <trkpt lat="29.54424" lon="104.280596"><ele>571.16473</ele><time>2026-04-03T19:23:07.000Z</time></trkpt>
        <trkpt lat="29.544193" lon="104.280582"><ele>571.3327</ele><time>2026-04-03T19:23:11.000Z</time></trkpt>
        <trkpt lat="29.544142" lon="104.280568"><ele>571.7051</ele><time>2026-04-03T19:23:15.000Z</time></trkpt>
        <trkpt lat="29.544098" lon="104.280553"><ele>572.65967</ele><time>2026-04-03T19:23:19.000Z</time></trkpt>
        <trkpt lat="29.544049" lon="104.280528"><ele>571.3916</ele><time>2026-04-03T19:23:23.000Z</time></trkpt>
        <trkpt lat="29.544012" lon="104.280497"><ele>571.06116</ele><time>2026-04-03T19:23:27.000Z</time></trkpt>
        <trkpt lat="29.544006" lon="104.280442"><ele>570.6467</ele><time>2026-04-03T19:23:30.000Z</time></trkpt>
        <trkpt lat="29.54401" lon="104.280384"><ele>569.94025</ele><time>2026-04-03T19:23:34.000Z</time></trkpt>
        <trkpt lat="29.54401" lon="104.28033"><ele>569.99</ele><time>2026-04-03T19:23:38.000Z</time></trkpt>
        <trkpt lat="29.544002" lon="104.280276"><ele>569.66205</ele><time>2026-04-03T19:23:42.000Z</time></trkpt>
        <trkpt lat="29.543982" lon="104.28022"><ele>570.677</ele><time>2026-04-03T19:23:46.000Z</time></trkpt>
        <trkpt lat="29.54397" lon="104.280164"><ele>570.95575</ele><time>2026-04-03T19:23:50.000Z</time></trkpt>
        <trkpt lat="29.54397" lon="104.280105"><ele>570.5919</ele><time>2026-04-03T19:23:55.000Z</time></trkpt>
        <trkpt lat="29.54396" lon="104.280047"><ele>570.9903</ele><time>2026-04-03T19:23:59.000Z</time></trkpt>
        <trkpt lat="29.543954" lon="104.279995"><ele>570.6074</ele><time>2026-04-03T19:24:03.000Z</time></trkpt>
        <trkpt lat="29.543935" lon="104.279943"><ele>571.00653</ele><time>2026-04-03T19:24:07.000Z</time></trkpt>
        <trkpt lat="29.543906" lon="104.279897"><ele>571.5869</ele><time>2026-04-03T19:24:11.000Z</time></trkpt>
        <trkpt lat="29.543866" lon="104.279871"><ele>572.6154</ele><time>2026-04-03T19:24:17.000Z</time></trkpt>
        <trkpt lat="29.543818" lon="104.279862"><ele>573.106</ele><time>2026-04-03T19:24:21.000Z</time></trkpt>
        <trkpt lat="29.54377" lon="104.279837"><ele>573.19525</ele><time>2026-04-03T19:24:25.000Z</time></trkpt>
        <trkpt lat="29.543731" lon="104.279809"><ele>571.80273</ele><time>2026-04-03T19:24:29.000Z</time></trkpt>
        <trkpt lat="29.543695" lon="104.279773"><ele>571.9652</ele><time>2026-04-03T19:24:33.000Z</time></trkpt>
        <trkpt lat="29.543656" lon="104.279747"><ele>572.4287</ele><time>2026-04-03T19:24:43.000Z</time></trkpt>
        <trkpt lat="29.543659" lon="104.279693"><ele>572.12787</ele><time>2026-04-03T19:24:47.000Z</time></trkpt>
        <trkpt lat="29.543654" lon="104.279634"><ele>573.0418</ele><time>2026-04-03T19:24:50.000Z</time></trkpt>
        <trkpt lat="29.543661" lon="104.27958"><ele>572.7145</ele><time>2026-04-03T19:24:54.000Z</time></trkpt>
        <trkpt lat="29.54366" lon="104.279523"><ele>571.99164</ele><time>2026-04-03T19:24:58.000Z</time></trkpt>
        <trkpt lat="29.543645" lon="104.279474"><ele>572.01495</ele><time>2026-04-03T19:25:01.000Z</time></trkpt>
        <trkpt lat="29.543645" lon="104.279409"><ele>571.9086</ele><time>2026-04-03T19:25:05.000Z</time></trkpt>
        <trkpt lat="29.543641" lon="104.279339"><ele>570.4819</ele><time>2026-04-03T19:25:09.000Z</time></trkpt>
        <trkpt lat="29.543633" lon="104.279275"><ele>570.78345</ele><time>2026-04-03T19:25:13.000Z</time></trkpt>
        <trkpt lat="29.543623" lon="104.279218"><ele>570.18774</ele><time>2026-04-03T19:25:17.000Z</time></trkpt>
        <trkpt lat="29.543612" lon="104.279156"><ele>569.45264</ele><time>2026-04-03T19:25:21.000Z</time></trkpt>
        <trkpt lat="29.543608" lon="104.279095"><ele>569.93964</ele><time>2026-04-03T19:25:25.000Z</time></trkpt>
        <trkpt lat="29.543601" lon="104.279034"><ele>569.08984</ele><time>2026-04-03T19:25:29.000Z</time></trkpt>
        <trkpt lat="29.54359" lon="104.278974"><ele>569.13605</ele><time>2026-04-03T19:25:33.000Z</time></trkpt>
        <trkpt lat="29.54358" lon="104.27891"><ele>569.242</ele><time>2026-04-03T19:25:37.000Z</time></trkpt>
        <trkpt lat="29.543579" lon="104.278847"><ele>568.947</ele><time>2026-04-03T19:25:41.000Z</time></trkpt>
        <trkpt lat="29.543572" lon="104.278788"><ele>568.6433</ele><time>2026-04-03T19:25:45.000Z</time></trkpt>
        <trkpt lat="29.543554" lon="104.278731"><ele>567.60065</ele><time>2026-04-03T19:25:49.000Z</time></trkpt>
        <trkpt lat="29.54353" lon="104.27868"><ele>568.4753</ele><time>2026-04-03T19:25:53.000Z</time></trkpt>
        <trkpt lat="29.543502" lon="104.278634"><ele>567.6865</ele><time>2026-04-03T19:25:57.000Z</time></trkpt>
        <trkpt lat="29.543449" lon="104.2786"><ele>567.91113</ele><time>2026-04-03T19:26:02.000Z</time></trkpt>
        <trkpt lat="29.543407" lon="104.278557"><ele>567.6393</ele><time>2026-04-03T19:26:06.000Z</time></trkpt>
        <trkpt lat="29.543365" lon="104.27853"><ele>568.1179</ele><time>2026-04-03T19:26:10.000Z</time></trkpt>
        <trkpt lat="29.543324" lon="104.278507"><ele>568.9933</ele><time>2026-04-03T19:26:13.000Z</time></trkpt>
        <trkpt lat="29.543273" lon="104.278503"><ele>569.16986</ele><time>2026-04-03T19:26:18.000Z</time></trkpt>
        <trkpt lat="29.543226" lon="104.278508"><ele>570.23474</ele><time>2026-04-03T19:26:22.000Z</time></trkpt>
        <trkpt lat="29.543169" lon="104.278513"><ele>570.67365</ele><time>2026-04-03T19:26:26.000Z</time></trkpt>
        <trkpt lat="29.543124" lon="104.278524"><ele>570.72614</ele><time>2026-04-03T19:26:32.000Z</time></trkpt>
        <trkpt lat="29.543071" lon="104.278522"><ele>570.5068</ele><time>2026-04-03T19:26:36.000Z</time></trkpt>
        <trkpt lat="29.543017" lon="104.278534"><ele>570.37604</ele><time>2026-04-03T19:26:41.000Z</time></trkpt>
        <trkpt lat="29.54297" lon="104.278525"><ele>570.2118</ele><time>2026-04-03T19:26:45.000Z</time></trkpt>
        <trkpt lat="29.542916" lon="104.27851"><ele>569.88055</ele><time>2026-04-03T19:26:49.000Z</time></trkpt>
        <trkpt lat="29.542873" lon="104.278492"><ele>570.01013</ele><time>2026-04-03T19:26:53.000Z</time></trkpt>
        <trkpt lat="29.542828" lon="104.278474"><ele>570.4009</ele><time>2026-04-03T19:26:58.000Z</time></trkpt>
        <trkpt lat="29.542785" lon="104.27845"><ele>572.9439</ele><time>2026-04-03T19:27:02.000Z</time></trkpt>
        <trkpt lat="29.542739" lon="104.27843"><ele>572.74554</ele><time>2026-04-03T19:27:07.000Z</time></trkpt>
        <trkpt lat="29.542691" lon="104.278399"><ele>572.865</ele><time>2026-04-03T19:27:11.000Z</time></trkpt>
        <trkpt lat="29.542643" lon="104.278384"><ele>572.32965</ele><time>2026-04-03T19:27:19.000Z</time></trkpt>
        <trkpt lat="29.542615" lon="104.278343"><ele>572.50934</ele><time>2026-04-03T19:27:22.000Z</time></trkpt>
        <trkpt lat="29.542586" lon="104.278292"><ele>572.7062</ele><time>2026-04-03T19:27:27.000Z</time></trkpt>
        <trkpt lat="29.542569" lon="104.278234"><ele>571.15686</ele><time>2026-04-03T19:27:31.000Z</time></trkpt>
        <trkpt lat="29.542542" lon="104.278182"><ele>571.6426</ele><time>2026-04-03T19:27:35.000Z</time></trkpt>
        <trkpt lat="29.5425" lon="104.278132"><ele>572.5763</ele><time>2026-04-03T19:27:39.000Z</time></trkpt>
        <trkpt lat="29.542465" lon="104.278091"><ele>573.2033</ele><time>2026-04-03T19:27:43.000Z</time></trkpt>
        <trkpt lat="29.542426" lon="104.278054"><ele>573.97864</ele><time>2026-04-03T19:27:47.000Z</time></trkpt>
        <trkpt lat="29.542385" lon="104.278025"><ele>574.9822</ele><time>2026-04-03T19:27:51.000Z</time></trkpt>
        <trkpt lat="29.542335" lon="104.278016"><ele>575.8343</ele><time>2026-04-03T19:27:55.000Z</time></trkpt>
        <trkpt lat="29.542283" lon="104.278001"><ele>576.9048</ele><time>2026-04-03T19:28:00.000Z</time></trkpt>
        <trkpt lat="29.54224" lon="104.277982"><ele>577.4208</ele><time>2026-04-03T19:28:04.000Z</time></trkpt>
        <trkpt lat="29.542205" lon="104.277948"><ele>578.1118</ele><time>2026-04-03T19:28:09.000Z</time></trkpt>
        <trkpt lat="29.542165" lon="104.277918"><ele>577.6587</ele><time>2026-04-03T19:28:13.000Z</time></trkpt>
        <trkpt lat="29.542127" lon="104.277884"><ele>578.0413</ele><time>2026-04-03T19:28:19.000Z</time></trkpt>
        <trkpt lat="29.54209" lon="104.277849"><ele>578.16693</ele><time>2026-04-03T19:28:24.000Z</time></trkpt>
        <trkpt lat="29.542045" lon="104.277821"><ele>578.45325</ele><time>2026-04-03T19:28:28.000Z</time></trkpt>
        <trkpt lat="29.541996" lon="104.277789"><ele>579.05084</ele><time>2026-04-03T19:28:32.000Z</time></trkpt>
        <trkpt lat="29.541955" lon="104.277764"><ele>580.094</ele><time>2026-04-03T19:28:37.000Z</time></trkpt>
        <trkpt lat="29.541913" lon="104.277737"><ele>580.6001</ele><time>2026-04-03T19:28:42.000Z</time></trkpt>
        <trkpt lat="29.541872" lon="104.277709"><ele>581.5234</ele><time>2026-04-03T19:28:46.000Z</time></trkpt>
        <trkpt lat="29.541819" lon="104.277684"><ele>582.6739</ele><time>2026-04-03T19:28:52.000Z</time></trkpt>
        <trkpt lat="29.541767" lon="104.277672"><ele>584.55664</ele><time>2026-04-03T19:29:02.000Z</time></trkpt>
        <trkpt lat="29.541717" lon="104.27769"><ele>584.7351</ele><time>2026-04-03T19:29:08.000Z</time></trkpt>
        <trkpt lat="29.541673" lon="104.277708"><ele>585.45966</ele><time>2026-04-03T19:29:11.000Z</time></trkpt>
        <trkpt lat="29.541628" lon="104.277724"><ele>585.14905</ele><time>2026-04-03T19:29:14.000Z</time></trkpt>
        <trkpt lat="29.541577" lon="104.277736"><ele>585.6695</ele><time>2026-04-03T19:29:18.000Z</time></trkpt>
        <trkpt lat="29.541533" lon="104.277771"><ele>584.9123</ele><time>2026-04-03T19:29:22.000Z</time></trkpt>
        <trkpt lat="29.541495" lon="104.277803"><ele>584.4174</ele><time>2026-04-03T19:29:26.000Z</time></trkpt>
        <trkpt lat="29.541439" lon="104.27782"><ele>583.08026</ele><time>2026-04-03T19:29:29.000Z</time></trkpt>
        <trkpt lat="29.541385" lon="104.277834"><ele>581.94635</ele><time>2026-04-03T19:29:33.000Z</time></trkpt>
        <trkpt lat="29.541333" lon="104.277827"><ele>582.55615</ele><time>2026-04-03T19:29:37.000Z</time></trkpt>
        <trkpt lat="29.541289" lon="104.277791"><ele>583.4269</ele><time>2026-04-03T19:29:41.000Z</time></trkpt>
        <trkpt lat="29.54125" lon="104.277752"><ele>584.66486</ele><time>2026-04-03T19:29:46.000Z</time></trkpt>
        <trkpt lat="29.541214" lon="104.277706"><ele>585.09985</ele><time>2026-04-03T19:29:50.000Z</time></trkpt>
        <trkpt lat="29.541169" lon="104.277669"><ele>586.8796</ele><time>2026-04-03T19:29:55.000Z</time></trkpt>
        <trkpt lat="29.541141" lon="104.277614"><ele>587.57275</ele><time>2026-04-03T19:29:59.000Z</time></trkpt>
        <trkpt lat="29.541101" lon="104.277584"><ele>590.7103</ele><time>2026-04-03T19:30:03.000Z</time></trkpt>
        <trkpt lat="29.541047" lon="104.277553"><ele>593.9843</ele><time>2026-04-03T19:30:08.000Z</time></trkpt>
        <trkpt lat="29.541003" lon="104.277541"><ele>595.3577</ele><time>2026-04-03T19:30:11.000Z</time></trkpt>
        <trkpt lat="29.540959" lon="104.277532"><ele>596.9862</ele><time>2026-04-03T19:30:14.000Z</time></trkpt>
        <trkpt lat="29.540916" lon="104.277501"><ele>597.74054</ele><time>2026-04-03T19:30:18.000Z</time></trkpt>
        <trkpt lat="29.540864" lon="104.277485"><ele>598.8772</ele><time>2026-04-03T19:30:24.000Z</time></trkpt>
        <trkpt lat="29.540811" lon="104.277452"><ele>600.7588</ele><time>2026-04-03T19:30:29.000Z</time></trkpt>
        <trkpt lat="29.540767" lon="104.277427"><ele>603.12714</ele><time>2026-04-03T19:30:34.000Z</time></trkpt>
        <trkpt lat="29.540722" lon="104.277448"><ele>603.7762</ele><time>2026-04-03T19:30:39.000Z</time></trkpt>
        <trkpt lat="29.540674" lon="104.277445"><ele>604.0804</ele><time>2026-04-03T19:30:45.000Z</time></trkpt>
        <trkpt lat="29.540622" lon="104.277463"><ele>604.45764</ele><time>2026-04-03T19:30:50.000Z</time></trkpt>
        <trkpt lat="29.540575" lon="104.277526"><ele>603.483</ele><time>2026-04-03T19:30:55.000Z</time></trkpt>
        <trkpt lat="29.540536" lon="104.277558"><ele>602.9764</ele><time>2026-04-03T19:31:00.000Z</time></trkpt>
        <trkpt lat="29.540498" lon="104.277588"><ele>602.3897</ele><time>2026-04-03T19:31:04.000Z</time></trkpt>
        <trkpt lat="29.540477" lon="104.277643"><ele>601.57654</ele><time>2026-04-03T19:31:09.000Z</time></trkpt>
        <trkpt lat="29.540457" lon="104.27769"><ele>600.3977</ele><time>2026-04-03T19:31:13.000Z</time></trkpt>
        <trkpt lat="29.540423" lon="104.277726"><ele>599.60974</ele><time>2026-04-03T19:31:17.000Z</time></trkpt>
        <trkpt lat="29.540383" lon="104.277769"><ele>598.5516</ele><time>2026-04-03T19:31:22.000Z</time></trkpt>
        <trkpt lat="29.540337" lon="104.277795"><ele>597.0614</ele><time>2026-04-03T19:31:26.000Z</time></trkpt>
        <trkpt lat="29.540291" lon="104.277827"><ele>597.4567</ele><time>2026-04-03T19:31:30.000Z</time></trkpt>
        <trkpt lat="29.540239" lon="104.277843"><ele>597.02405</ele><time>2026-04-03T19:31:34.000Z</time></trkpt>
        <trkpt lat="29.540184" lon="104.277845"><ele>597.0361</ele><time>2026-04-03T19:31:38.000Z</time></trkpt>
        <trkpt lat="29.540135" lon="104.277844"><ele>597.33136</ele><time>2026-04-03T19:31:42.000Z</time></trkpt>
        <trkpt lat="29.540087" lon="104.277847"><ele>597.9881</ele><time>2026-04-03T19:31:47.000Z</time></trkpt>
        <trkpt lat="29.540041" lon="104.27785"><ele>598.38257</ele><time>2026-04-03T19:31:50.000Z</time></trkpt>
        <trkpt lat="29.539991" lon="104.277871"><ele>598.8161</ele><time>2026-04-03T19:31:55.000Z</time></trkpt>
        <trkpt lat="29.539942" lon="104.277889"><ele>599.52905</ele><time>2026-04-03T19:32:08.000Z</time></trkpt>
        <trkpt lat="29.539901" lon="104.277866"><ele>598.4889</ele><time>2026-04-03T19:32:20.000Z</time></trkpt>
        <trkpt lat="29.539858" lon="104.277884"><ele>601.2993</ele><time>2026-04-03T19:32:24.000Z</time></trkpt>
        <trkpt lat="29.539815" lon="104.277902"><ele>603.44385</ele><time>2026-04-03T19:32:29.000Z</time></trkpt>
        <trkpt lat="29.539765" lon="104.277935"><ele>604.0911</ele><time>2026-04-03T19:32:34.000Z</time></trkpt>
        <trkpt lat="29.539724" lon="104.277969"><ele>603.73773</ele><time>2026-04-03T19:32:38.000Z</time></trkpt>
        <trkpt lat="29.539678" lon="104.277997"><ele>604.2145</ele><time>2026-04-03T19:32:42.000Z</time></trkpt>
        <trkpt lat="29.539623" lon="104.278034"><ele>604.3313</ele><time>2026-04-03T19:32:47.000Z</time></trkpt>
        <trkpt lat="29.539578" lon="104.278061"><ele>604.6103</ele><time>2026-04-03T19:32:51.000Z</time></trkpt>
        <trkpt lat="29.53955" lon="104.278109"><ele>604.36694</ele><time>2026-04-03T19:32:55.000Z</time></trkpt>
        <trkpt lat="29.539512" lon="104.278146"><ele>603.7738</ele><time>2026-04-03T19:33:05.000Z</time></trkpt>
        <trkpt lat="29.539474" lon="104.278185"><ele>603.89984</ele><time>2026-04-03T19:33:09.000Z</time></trkpt>
        <trkpt lat="29.53944" lon="104.278224"><ele>604.6896</ele><time>2026-04-03T19:33:13.000Z</time></trkpt>
        <trkpt lat="29.539408" lon="104.278263"><ele>604.6556</ele><time>2026-04-03T19:33:17.000Z</time></trkpt>
        <trkpt lat="29.539375" lon="104.278304"><ele>605.9536</ele><time>2026-04-03T19:33:24.000Z</time></trkpt>
        <trkpt lat="29.539331" lon="104.278332"><ele>605.97833</ele><time>2026-04-03T19:33:28.000Z</time></trkpt>
        <trkpt lat="29.539292" lon="104.278374"><ele>605.4908</ele><time>2026-04-03T19:33:33.000Z</time></trkpt>
        <trkpt lat="29.539253" lon="104.278407"><ele>605.6868</ele><time>2026-04-03T19:33:37.000Z</time></trkpt>
        <trkpt lat="29.539218" lon="104.278457"><ele>606.33276</ele><time>2026-04-03T19:33:42.000Z</time></trkpt>
        <trkpt lat="29.539183" lon="104.2785"><ele>607.2543</ele><time>2026-04-03T19:33:46.000Z</time></trkpt>
        <trkpt lat="29.539141" lon="104.27856"><ele>608.325</ele><time>2026-04-03T19:33:50.000Z</time></trkpt>
        <trkpt lat="29.539111" lon="104.278598"><ele>609.0128</ele><time>2026-04-03T19:33:55.000Z</time></trkpt>
        <trkpt lat="29.539072" lon="104.278642"><ele>609.20105</ele><time>2026-04-03T19:33:59.000Z</time></trkpt>
        <trkpt lat="29.539051" lon="104.278689"><ele>609.9262</ele><time>2026-04-03T19:34:04.000Z</time></trkpt>
        <trkpt lat="29.539031" lon="104.278753"><ele>610.4613</ele><time>2026-04-03T19:34:09.000Z</time></trkpt>
        <trkpt lat="29.539008" lon="104.2788"><ele>610.42737</ele><time>2026-04-03T19:34:12.000Z</time></trkpt>
        <trkpt lat="29.538989" lon="104.278863"><ele>610.87396</ele><time>2026-04-03T19:34:17.000Z</time></trkpt>
        <trkpt lat="29.53897" lon="104.278913"><ele>604.6362</ele><time>2026-04-03T19:35:41.000Z</time></trkpt>
        <trkpt lat="29.538973" lon="104.278974"><ele>606.7542</ele><time>2026-04-03T19:35:46.000Z</time></trkpt>
        <trkpt lat="29.53898" lon="104.279028"><ele>608.3881</ele><time>2026-04-03T19:35:50.000Z</time></trkpt>
        <trkpt lat="29.538966" lon="104.279082"><ele>607.77985</ele><time>2026-04-03T19:35:55.000Z</time></trkpt>
        <trkpt lat="29.538967" lon="104.27915"><ele>608.275</ele><time>2026-04-03T19:36:01.000Z</time></trkpt>
        <trkpt lat="29.538953" lon="104.279213"><ele>607.4578</ele><time>2026-04-03T19:36:06.000Z</time></trkpt>
        <trkpt lat="29.538933" lon="104.279278"><ele>607.28094</ele><time>2026-04-03T19:36:11.000Z</time></trkpt>
        <trkpt lat="29.53891" lon="104.279327"><ele>606.53455</ele><time>2026-04-03T19:36:24.000Z</time></trkpt>
        <trkpt lat="29.538894" lon="104.279379"><ele>607.29614</ele><time>2026-04-03T19:36:28.000Z</time></trkpt>
        <trkpt lat="29.538859" lon="104.279418"><ele>606.42255</ele><time>2026-04-03T19:36:32.000Z</time></trkpt>
        <trkpt lat="29.538818" lon="104.279466"><ele>606.7976</ele><time>2026-04-03T19:36:37.000Z</time></trkpt>
        <trkpt lat="29.538787" lon="104.279506"><ele>607.58405</ele><time>2026-04-03T19:36:41.000Z</time></trkpt>
        <trkpt lat="29.538744" lon="104.27954"><ele>608.3593</ele><time>2026-04-03T19:36:55.000Z</time></trkpt>
        <trkpt lat="29.538705" lon="104.279587"><ele>608.54236</ele><time>2026-04-03T19:36:59.000Z</time></trkpt>
        <trkpt lat="29.538673" lon="104.279625"><ele>609.7439</ele><time>2026-04-03T19:37:02.000Z</time></trkpt>
        <trkpt lat="29.53863" lon="104.279655"><ele>606.2531</ele><time>2026-04-03T19:39:32.000Z</time></trkpt>
        <trkpt lat="29.538591" lon="104.279705"><ele>608.2731</ele><time>2026-04-03T19:39:37.000Z</time></trkpt>
        <trkpt lat="29.538543" lon="104.279746"><ele>611.12384</ele><time>2026-04-03T19:39:42.000Z</time></trkpt>
        <trkpt lat="29.538512" lon="104.279787"><ele>612.25354</ele><time>2026-04-03T19:39:46.000Z</time></trkpt>
        <trkpt lat="29.538485" lon="104.279845"><ele>613.2251</ele><time>2026-04-03T19:39:50.000Z</time></trkpt>
        <trkpt lat="29.538464" lon="104.279892"><ele>613.6376</ele><time>2026-04-03T19:39:56.000Z</time></trkpt>
        <trkpt lat="29.538436" lon="104.27994"><ele>613.38416</ele><time>2026-04-03T19:40:00.000Z</time></trkpt>
        <trkpt lat="29.538395" lon="104.279982"><ele>614.6599</ele><time>2026-04-03T19:40:07.000Z</time></trkpt>
        <trkpt lat="29.538385" lon="104.280045"><ele>614.4946</ele><time>2026-04-03T19:40:11.000Z</time></trkpt>
        <trkpt lat="29.538385" lon="104.280104"><ele>615.17786</ele><time>2026-04-03T19:40:15.000Z</time></trkpt>
        <trkpt lat="29.538357" lon="104.280145"><ele>614.8542</ele><time>2026-04-03T19:40:18.000Z</time></trkpt>
        <trkpt lat="29.538324" lon="104.280195"><ele>615.716</ele><time>2026-04-03T19:40:22.000Z</time></trkpt>
        <trkpt lat="29.538312" lon="104.28025"><ele>615.727</ele><time>2026-04-03T19:40:26.000Z</time></trkpt>
        <trkpt lat="29.53828" lon="104.280295"><ele>615.7051</ele><time>2026-04-03T19:40:30.000Z</time></trkpt>
        <trkpt lat="29.538262" lon="104.280351"><ele>614.9021</ele><time>2026-04-03T19:40:34.000Z</time></trkpt>
        <trkpt lat="29.538238" lon="104.280404"><ele>615.09015</ele><time>2026-04-03T19:40:38.000Z</time></trkpt>
        <trkpt lat="29.538223" lon="104.280454"><ele>614.8981</ele><time>2026-04-03T19:40:42.000Z</time></trkpt>
        <trkpt lat="29.538205" lon="104.280515"><ele>614.59973</ele><time>2026-04-03T19:40:46.000Z</time></trkpt>
        <trkpt lat="29.538198" lon="104.280568"><ele>615.6602</ele><time>2026-04-03T19:40:50.000Z</time></trkpt>
        <trkpt lat="29.538188" lon="104.280622"><ele>615.02655</ele><time>2026-04-03T19:40:55.000Z</time></trkpt>
        <trkpt lat="29.538206" lon="104.280678"><ele>615.178</ele><time>2026-04-03T19:41:01.000Z</time></trkpt>
        <trkpt lat="29.538195" lon="104.280741"><ele>613.7163</ele><time>2026-04-03T19:41:21.000Z</time></trkpt>
        <trkpt lat="29.538193" lon="104.280796"><ele>613.7908</ele><time>2026-04-03T19:41:26.000Z</time></trkpt>
        <trkpt lat="29.538197" lon="104.280848"><ele>613.26807</ele><time>2026-04-03T19:41:31.000Z</time></trkpt>
        <trkpt lat="29.538183" lon="104.280901"><ele>613.0124</ele><time>2026-04-03T19:41:38.000Z</time></trkpt>
        <trkpt lat="29.538191" lon="104.280954"><ele>612.58026</ele><time>2026-04-03T19:41:42.000Z</time></trkpt>
        <trkpt lat="29.538175" lon="104.281003"><ele>611.74915</ele><time>2026-04-03T19:41:46.000Z</time></trkpt>
        <trkpt lat="29.538162" lon="104.281061"><ele>611.72455</ele><time>2026-04-03T19:41:51.000Z</time></trkpt>
        <trkpt lat="29.538117" lon="104.281083"><ele>611.6831</ele><time>2026-04-03T19:41:56.000Z</time></trkpt>
        <trkpt lat="29.53807" lon="104.281096"><ele>612.07654</ele><time>2026-04-03T19:42:01.000Z</time></trkpt>
        <trkpt lat="29.538025" lon="104.28111"><ele>612.67993</ele><time>2026-04-03T19:42:05.000Z</time></trkpt>
        <trkpt lat="29.537962" lon="104.28111"><ele>613.9218</ele><time>2026-04-03T19:42:10.000Z</time></trkpt>
        <trkpt lat="29.537916" lon="104.281129"><ele>614.5256</ele><time>2026-04-03T19:42:17.000Z</time></trkpt>
        <trkpt lat="29.537869" lon="104.28113"><ele>616.0981</ele><time>2026-04-03T19:42:23.000Z</time></trkpt>
        <trkpt lat="29.537824" lon="104.28116"><ele>617.22327</ele><time>2026-04-03T19:42:28.000Z</time></trkpt>
        <trkpt lat="29.537776" lon="104.281171"><ele>618.3872</ele><time>2026-04-03T19:42:32.000Z</time></trkpt>
        <trkpt lat="29.537721" lon="104.281179"><ele>618.6083</ele><time>2026-04-03T19:42:37.000Z</time></trkpt>
        <trkpt lat="29.537677" lon="104.281203"><ele>619.0967</ele><time>2026-04-03T19:43:06.000Z</time></trkpt>
        <trkpt lat="29.537627" lon="104.281199"><ele>619.7794</ele><time>2026-04-03T19:43:10.000Z</time></trkpt>
        <trkpt lat="29.537572" lon="104.281215"><ele>620.6514</ele><time>2026-04-03T19:43:15.000Z</time></trkpt>
        <trkpt lat="29.537522" lon="104.28124"><ele>620.9358</ele><time>2026-04-03T19:43:19.000Z</time></trkpt>
        <trkpt lat="29.537472" lon="104.281258"><ele>621.0554</ele><time>2026-04-03T19:43:24.000Z</time></trkpt>
        <trkpt lat="29.537427" lon="104.28127"><ele>621.8676</ele><time>2026-04-03T19:43:28.000Z</time></trkpt>
        <trkpt lat="29.53738" lon="104.281264"><ele>621.7568</ele><time>2026-04-03T19:43:33.000Z</time></trkpt>
        <trkpt lat="29.537337" lon="104.281296"><ele>621.6703</ele><time>2026-04-03T19:43:38.000Z</time></trkpt>
        <trkpt lat="29.537288" lon="104.281313"><ele>621.34766</ele><time>2026-04-03T19:43:42.000Z</time></trkpt>
        <trkpt lat="29.537231" lon="104.281311"><ele>621.76013</ele><time>2026-04-03T19:43:46.000Z</time></trkpt>
        <trkpt lat="29.537173" lon="104.281302"><ele>620.92065</ele><time>2026-04-03T19:43:52.000Z</time></trkpt>
        <trkpt lat="29.537146" lon="104.281253"><ele>619.94653</ele><time>2026-04-03T19:44:12.000Z</time></trkpt>
        <trkpt lat="29.537102" lon="104.281226"><ele>617.9831</ele><time>2026-04-03T19:44:16.000Z</time></trkpt>
        <trkpt lat="29.537075" lon="104.281178"><ele>618.0789</ele><time>2026-04-03T19:44:19.000Z</time></trkpt>
        <trkpt lat="29.537045" lon="104.281128"><ele>617.8099</ele><time>2026-04-03T19:44:23.000Z</time></trkpt>
        <trkpt lat="29.53702" lon="104.281082"><ele>617.676</ele><time>2026-04-03T19:44:27.000Z</time></trkpt>
        <trkpt lat="29.537" lon="104.281029"><ele>617.05334</ele><time>2026-04-03T19:44:30.000Z</time></trkpt>
        <trkpt lat="29.536979" lon="104.280968"><ele>616.4022</ele><time>2026-04-03T19:44:34.000Z</time></trkpt>
        <trkpt lat="29.536959" lon="104.280919"><ele>618.66254</ele><time>2026-04-03T19:46:56.000Z</time></trkpt>
        <trkpt lat="29.536924" lon="104.280881"><ele>618.4476</ele><time>2026-04-03T19:47:41.000Z</time></trkpt>
        <trkpt lat="29.536896" lon="104.28083"><ele>616.28094</ele><time>2026-04-03T19:47:46.000Z</time></trkpt>
        <trkpt lat="29.536874" lon="104.280775"><ele>615.0954</ele><time>2026-04-03T19:47:50.000Z</time></trkpt>
        <trkpt lat="29.536841" lon="104.280727"><ele>614.194</ele><time>2026-04-03T19:47:54.000Z</time></trkpt>
        <trkpt lat="29.536819" lon="104.280681"><ele>615.2866</ele><time>2026-04-03T19:47:57.000Z</time></trkpt>
        <trkpt lat="29.536786" lon="104.280639"><ele>612.371</ele><time>2026-04-03T19:48:01.000Z</time></trkpt>
        <trkpt lat="29.53675" lon="104.280597"><ele>611.98456</ele><time>2026-04-03T19:48:04.000Z</time></trkpt>
        <trkpt lat="29.536743" lon="104.280542"><ele>608.9164</ele><time>2026-04-03T19:48:07.000Z</time></trkpt>
        <trkpt lat="29.536723" lon="104.280484"><ele>605.97577</ele><time>2026-04-03T19:48:12.000Z</time></trkpt>
        <trkpt lat="29.536708" lon="104.280422"><ele>604.62805</ele><time>2026-04-03T19:48:16.000Z</time></trkpt>
        <trkpt lat="29.536699" lon="104.28036"><ele>604.0118</ele><time>2026-04-03T19:48:20.000Z</time></trkpt>
        <trkpt lat="29.536684" lon="104.280297"><ele>603.4538</ele><time>2026-04-03T19:48:24.000Z</time></trkpt>
        <trkpt lat="29.536678" lon="104.28024"><ele>602.87897</ele><time>2026-04-03T19:48:28.000Z</time></trkpt>
        <trkpt lat="29.536656" lon="104.280183"><ele>601.70483</ele><time>2026-04-03T19:48:32.000Z</time></trkpt>
        <trkpt lat="29.536645" lon="104.280127"><ele>599.0401</ele><time>2026-04-03T19:48:36.000Z</time></trkpt>
        <trkpt lat="29.536626" lon="104.280066"><ele>598.7554</ele><time>2026-04-03T19:48:40.000Z</time></trkpt>
        <trkpt lat="29.536626" lon="104.280004"><ele>597.08844</ele><time>2026-04-03T19:48:44.000Z</time></trkpt>
        <trkpt lat="29.536612" lon="104.279944"><ele>596.0933</ele><time>2026-04-03T19:48:48.000Z</time></trkpt>
        <trkpt lat="29.536602" lon="104.279882"><ele>597.1245</ele><time>2026-04-03T19:48:52.000Z</time></trkpt>
        <trkpt lat="29.536594" lon="104.279824"><ele>597.3011</ele><time>2026-04-03T19:48:56.000Z</time></trkpt>
        <trkpt lat="29.536602" lon="104.279767"><ele>597.7316</ele><time>2026-04-03T19:49:00.000Z</time></trkpt>
        <trkpt lat="29.536575" lon="104.279712"><ele>600.90125</ele><time>2026-04-03T19:49:04.000Z</time></trkpt>
        <trkpt lat="29.536533" lon="104.279681"><ele>608.8842</ele><time>2026-04-03T19:49:07.000Z</time></trkpt>
        <trkpt lat="29.536484" lon="104.279655"><ele>612.82117</ele><time>2026-04-03T19:49:11.000Z</time></trkpt>
        <trkpt lat="29.536432" lon="104.279638"><ele>614.13074</ele><time>2026-04-03T19:49:15.000Z</time></trkpt>
        <trkpt lat="29.536382" lon="104.279617"><ele>614.1536</ele><time>2026-04-03T19:49:19.000Z</time></trkpt>
        <trkpt lat="29.536346" lon="104.279584"><ele>613.25214</ele><time>2026-04-03T19:49:23.000Z</time></trkpt>
        <trkpt lat="29.536315" lon="104.279544"><ele>611.78406</ele><time>2026-04-03T19:49:28.000Z</time></trkpt>
        <trkpt lat="29.536274" lon="104.27951"><ele>610.8767</ele><time>2026-04-03T19:49:32.000Z</time></trkpt>
        <trkpt lat="29.536231" lon="104.279473"><ele>610.5693</ele><time>2026-04-03T19:49:36.000Z</time></trkpt>
        <trkpt lat="29.536187" lon="104.279443"><ele>609.2593</ele><time>2026-04-03T19:49:40.000Z</time></trkpt>
        <trkpt lat="29.536147" lon="104.279406"><ele>608.8613</ele><time>2026-04-03T19:49:44.000Z</time></trkpt>
        <trkpt lat="29.536108" lon="104.279377"><ele>609.2273</ele><time>2026-04-03T19:49:48.000Z</time></trkpt>
        <trkpt lat="29.536063" lon="104.279359"><ele>610.07745</ele><time>2026-04-03T19:49:52.000Z</time></trkpt>
        <trkpt lat="29.536015" lon="104.27934"><ele>610.7097</ele><time>2026-04-03T19:49:56.000Z</time></trkpt>
        <trkpt lat="29.535963" lon="104.279312"><ele>610.7413</ele><time>2026-04-03T19:50:00.000Z</time></trkpt>
        <trkpt lat="29.535917" lon="104.279299"><ele>611.1399</ele><time>2026-04-03T19:50:04.000Z</time></trkpt>
        <trkpt lat="29.535875" lon="104.279278"><ele>610.72516</ele><time>2026-04-03T19:50:08.000Z</time></trkpt>
        <trkpt lat="29.535822" lon="104.279266"><ele>610.3854</ele><time>2026-04-03T19:50:13.000Z</time></trkpt>
        <trkpt lat="29.535776" lon="104.27925"><ele>609.5523</ele><time>2026-04-03T19:50:16.000Z</time></trkpt>
        <trkpt lat="29.535731" lon="104.279236"><ele>609.7745</ele><time>2026-04-03T19:50:19.000Z</time></trkpt>
        <trkpt lat="29.535677" lon="104.279238"><ele>609.44025</ele><time>2026-04-03T19:50:23.000Z</time></trkpt>
        <trkpt lat="29.535616" lon="104.279238"><ele>607.7659</ele><time>2026-04-03T19:50:28.000Z</time></trkpt>
        <trkpt lat="29.53557" lon="104.279243"><ele>606.9794</ele><time>2026-04-03T19:50:32.000Z</time></trkpt>
        <trkpt lat="29.535511" lon="104.279241"><ele>605.96094</ele><time>2026-04-03T19:50:37.000Z</time></trkpt>
        <trkpt lat="29.535466" lon="104.279259"><ele>604.8738</ele><time>2026-04-03T19:50:41.000Z</time></trkpt>
        <trkpt lat="29.535404" lon="104.279282"><ele>604.5899</ele><time>2026-04-03T19:50:46.000Z</time></trkpt>
        <trkpt lat="29.535356" lon="104.279284"><ele>603.45325</ele><time>2026-04-03T19:50:49.000Z</time></trkpt>
        <trkpt lat="29.535309" lon="104.279277"><ele>602.25085</ele><time>2026-04-03T19:50:53.000Z</time></trkpt>
        <trkpt lat="29.535258" lon="104.279278"><ele>602.9042</ele><time>2026-04-03T19:50:57.000Z</time></trkpt>
        <trkpt lat="29.53521" lon="104.279269"><ele>602.03485</ele><time>2026-04-03T19:51:02.000Z</time></trkpt>
        <trkpt lat="29.535161" lon="104.279266"><ele>601.03503</ele><time>2026-04-03T19:51:32.000Z</time></trkpt>
        <trkpt lat="29.5351" lon="104.279279"><ele>600.65735</ele><time>2026-04-03T19:51:36.000Z</time></trkpt>
        <trkpt lat="29.535052" lon="104.279306"><ele>599.273</ele><time>2026-04-03T19:51:41.000Z</time></trkpt>
        <trkpt lat="29.535005" lon="104.279317"><ele>598.0152</ele><time>2026-04-03T19:51:45.000Z</time></trkpt>
        <trkpt lat="29.534957" lon="104.279332"><ele>597.3106</ele><time>2026-04-03T19:51:50.000Z</time></trkpt>
        <trkpt lat="29.534913" lon="104.279316"><ele>596.799</ele><time>2026-04-03T19:51:53.000Z</time></trkpt>
        <trkpt lat="29.534867" lon="104.279311"><ele>596.7653</ele><time>2026-04-03T19:51:57.000Z</time></trkpt>
        <trkpt lat="29.53481" lon="104.279318"><ele>595.6186</ele><time>2026-04-03T19:52:01.000Z</time></trkpt>
        <trkpt lat="29.534753" lon="104.279312"><ele>595.1954</ele><time>2026-04-03T19:52:05.000Z</time></trkpt>
        <trkpt lat="29.534708" lon="104.279289"><ele>594.5889</ele><time>2026-04-03T19:52:09.000Z</time></trkpt>
        <trkpt lat="29.534656" lon="104.27925"><ele>595.0654</ele><time>2026-04-03T19:52:14.000Z</time></trkpt>
        <trkpt lat="29.534607" lon="104.279233"><ele>594.395</ele><time>2026-04-03T19:52:18.000Z</time></trkpt>
        <trkpt lat="29.534555" lon="104.279209"><ele>595.48816</ele><time>2026-04-03T19:52:22.000Z</time></trkpt>
        <trkpt lat="29.534493" lon="104.279188"><ele>595.63776</ele><time>2026-04-03T19:52:27.000Z</time></trkpt>
        <trkpt lat="29.534438" lon="104.279172"><ele>595.43805</ele><time>2026-04-03T19:52:32.000Z</time></trkpt>
        <trkpt lat="29.534389" lon="104.279161"><ele>595.24817</ele><time>2026-04-03T19:52:36.000Z</time></trkpt>
        <trkpt lat="29.534338" lon="104.279159"><ele>595.2643</ele><time>2026-04-03T19:52:40.000Z</time></trkpt>
        <trkpt lat="29.534287" lon="104.279156"><ele>596.1963</ele><time>2026-04-03T19:52:57.000Z</time></trkpt>
        <trkpt lat="29.534236" lon="104.279149"><ele>595.5294</ele><time>2026-04-03T19:53:01.000Z</time></trkpt>
        <trkpt lat="29.534189" lon="104.279159"><ele>595.3244</ele><time>2026-04-03T19:53:05.000Z</time></trkpt>
        <trkpt lat="29.534152" lon="104.279189"><ele>593.7015</ele><time>2026-04-03T19:53:09.000Z</time></trkpt>
        <trkpt lat="29.534131" lon="104.279238"><ele>591.6759</ele><time>2026-04-03T19:53:15.000Z</time></trkpt>
        <trkpt lat="29.53414" lon="104.279185"><ele>590.2554</ele><time>2026-04-03T19:53:30.000Z</time></trkpt>
        <trkpt lat="29.534174" lon="104.279151"><ele>592.18976</ele><time>2026-04-03T19:53:34.000Z</time></trkpt>
        <trkpt lat="29.534223" lon="104.279129"><ele>595.36115</ele><time>2026-04-03T19:53:38.000Z</time></trkpt>
        <trkpt lat="29.534278" lon="104.279133"><ele>596.2831</ele><time>2026-04-03T19:53:42.000Z</time></trkpt>
        <trkpt lat="29.534278" lon="104.27908"><ele>598.8559</ele><time>2026-04-03T19:53:51.000Z</time></trkpt>
        <trkpt lat="29.534226" lon="104.279068"><ele>599.41376</ele><time>2026-04-03T19:54:00.000Z</time></trkpt>
        <trkpt lat="29.534176" lon="104.27905"><ele>597.93616</ele><time>2026-04-03T19:54:05.000Z</time></trkpt>
        <trkpt lat="29.534123" lon="104.279057"><ele>597.93756</ele><time>2026-04-03T19:54:10.000Z</time></trkpt>
        <trkpt lat="29.534075" lon="104.279038"><ele>597.109</ele><time>2026-04-03T19:54:15.000Z</time></trkpt>
        <trkpt lat="29.534032" lon="104.279021"><ele>596.1807</ele><time>2026-04-03T19:54:19.000Z</time></trkpt>
        <trkpt lat="29.533985" lon="104.27902"><ele>596.4213</ele><time>2026-04-03T19:54:23.000Z</time></trkpt>
        <trkpt lat="29.533939" lon="104.279005"><ele>595.897</ele><time>2026-04-03T19:54:27.000Z</time></trkpt>
        <trkpt lat="29.533889" lon="104.278989"><ele>595.0423</ele><time>2026-04-03T19:54:31.000Z</time></trkpt>
        <trkpt lat="29.533841" lon="104.278956"><ele>593.8164</ele><time>2026-04-03T19:54:35.000Z</time></trkpt>
        <trkpt lat="29.533792" lon="104.278928"><ele>592.59576</ele><time>2026-04-03T19:54:39.000Z</time></trkpt>
        <trkpt lat="29.533745" lon="104.278897"><ele>593.2999</ele><time>2026-04-03T19:54:43.000Z</time></trkpt>
        <trkpt lat="29.533693" lon="104.278871"><ele>594.10956</ele><time>2026-04-03T19:54:47.000Z</time></trkpt>
        <trkpt lat="29.533663" lon="104.278824"><ele>592.84155</ele><time>2026-04-03T19:54:56.000Z</time></trkpt>
        <trkpt lat="29.533639" lon="104.278779"><ele>592.62604</ele><time>2026-04-03T19:55:04.000Z</time></trkpt>
        <trkpt lat="29.533631" lon="104.278726"><ele>593.4494</ele><time>2026-04-03T19:55:08.000Z</time></trkpt>
        <trkpt lat="29.533625" lon="104.278665"><ele>591.2745</ele><time>2026-04-03T19:55:12.000Z</time></trkpt>
        <trkpt lat="29.53362" lon="104.278613"><ele>590.72437</ele><time>2026-04-03T19:55:16.000Z</time></trkpt>
        <trkpt lat="29.533603" lon="104.278548"><ele>590.7137</ele><time>2026-04-03T19:55:20.000Z</time></trkpt>
        <trkpt lat="29.533575" lon="104.278492"><ele>589.68866</ele><time>2026-04-03T19:55:24.000Z</time></trkpt>
        <trkpt lat="29.533554" lon="104.278435"><ele>588.1734</ele><time>2026-04-03T19:55:28.000Z</time></trkpt>
        <trkpt lat="29.533534" lon="104.278382"><ele>586.1724</ele><time>2026-04-03T19:55:32.000Z</time></trkpt>
        <trkpt lat="29.533522" lon="104.278316"><ele>584.95996</ele><time>2026-04-03T19:55:36.000Z</time></trkpt>
        <trkpt lat="29.533494" lon="104.278269"><ele>585.18475</ele><time>2026-04-03T19:55:39.000Z</time></trkpt>
        <trkpt lat="29.533459" lon="104.278219"><ele>585.5038</ele><time>2026-04-03T19:55:44.000Z</time></trkpt>
        <trkpt lat="29.53342" lon="104.278186"><ele>585.7066</ele><time>2026-04-03T19:55:48.000Z</time></trkpt>
        <trkpt lat="29.533402" lon="104.278131"><ele>585.0854</ele><time>2026-04-03T19:55:51.000Z</time></trkpt>
        <trkpt lat="29.533363" lon="104.278092"><ele>585.67163</ele><time>2026-04-03T19:55:54.000Z</time></trkpt>
        <trkpt lat="29.533321" lon="104.278055"><ele>585.59485</ele><time>2026-04-03T19:55:58.000Z</time></trkpt>
        <trkpt lat="29.533277" lon="104.278017"><ele>586.0504</ele><time>2026-04-03T19:56:02.000Z</time></trkpt>
        <trkpt lat="29.53323" lon="104.277992"><ele>586.6334</ele><time>2026-04-03T19:56:06.000Z</time></trkpt>
        <trkpt lat="29.533183" lon="104.277985"><ele>585.2375</ele><time>2026-04-03T19:56:10.000Z</time></trkpt>
        <trkpt lat="29.533124" lon="104.277994"><ele>583.61383</ele><time>2026-04-03T19:56:15.000Z</time></trkpt>
        <trkpt lat="29.533075" lon="104.277993"><ele>582.60754</ele><time>2026-04-03T19:56:19.000Z</time></trkpt>
        <trkpt lat="29.533029" lon="104.278"><ele>582.13513</ele><time>2026-04-03T19:56:23.000Z</time></trkpt>
        <trkpt lat="29.532974" lon="104.277998"><ele>581.66864</ele><time>2026-04-03T19:56:40.000Z</time></trkpt>
        <trkpt lat="29.532926" lon="104.278001"><ele>581.1909</ele><time>2026-04-03T19:56:44.000Z</time></trkpt>
        <trkpt lat="29.532874" lon="104.277995"><ele>580.92267</ele><time>2026-04-03T19:56:56.000Z</time></trkpt>
        <trkpt lat="29.532828" lon="104.277989"><ele>580.4542</ele><time>2026-04-03T19:57:00.000Z</time></trkpt>
        <trkpt lat="29.532779" lon="104.277963"><ele>578.611</ele><time>2026-04-03T19:57:04.000Z</time></trkpt>
        <trkpt lat="29.532743" lon="104.277923"><ele>579.17426</ele><time>2026-04-03T19:57:08.000Z</time></trkpt>
        <trkpt lat="29.532706" lon="104.277886"><ele>578.2088</ele><time>2026-04-03T19:57:12.000Z</time></trkpt>
        <trkpt lat="29.532661" lon="104.277856"><ele>578.3422</ele><time>2026-04-03T19:57:16.000Z</time></trkpt>
        <trkpt lat="29.532624" lon="104.277822"><ele>576.3267</ele><time>2026-04-03T19:57:20.000Z</time></trkpt>
        <trkpt lat="29.532585" lon="104.277775"><ele>574.79755</ele><time>2026-04-03T19:57:24.000Z</time></trkpt>
        <trkpt lat="29.532554" lon="104.277732"><ele>573.8522</ele><time>2026-04-03T19:57:28.000Z</time></trkpt>
        <trkpt lat="29.532522" lon="104.277695"><ele>574.4697</ele><time>2026-04-03T19:57:31.000Z</time></trkpt>
        <trkpt lat="29.53249" lon="104.277635"><ele>575.44574</ele><time>2026-04-03T19:57:36.000Z</time></trkpt>
        <trkpt lat="29.532455" lon="104.277587"><ele>575.70074</ele><time>2026-04-03T19:57:40.000Z</time></trkpt>
        <trkpt lat="29.532424" lon="104.27754"><ele>575.7728</ele><time>2026-04-03T19:57:44.000Z</time></trkpt>
        <trkpt lat="29.532391" lon="104.2775"><ele>576.77014</ele><time>2026-04-03T19:57:48.000Z</time></trkpt>
        <trkpt lat="29.532348" lon="104.277454"><ele>578.47687</ele><time>2026-04-03T19:57:54.000Z</time></trkpt>
        <trkpt lat="29.532318" lon="104.277415"><ele>578.194</ele><time>2026-04-03T19:57:58.000Z</time></trkpt>
        <trkpt lat="29.53229" lon="104.277373"><ele>578.6988</ele><time>2026-04-03T19:58:02.000Z</time></trkpt>
        <trkpt lat="29.532261" lon="104.27733"><ele>578.67114</ele><time>2026-04-03T19:58:07.000Z</time></trkpt>
        <trkpt lat="29.532218" lon="104.277278"><ele>579.2667</ele><time>2026-04-03T19:58:12.000Z</time></trkpt>
        <trkpt lat="29.532203" lon="104.277219"><ele>579.5708</ele><time>2026-04-03T19:58:16.000Z</time></trkpt>
        <trkpt lat="29.532202" lon="104.277152"><ele>579.336</ele><time>2026-04-03T19:58:20.000Z</time></trkpt>
        <trkpt lat="29.532166" lon="104.277119"><ele>578.9637</ele><time>2026-04-03T19:58:25.000Z</time></trkpt>
        <trkpt lat="29.53223" lon="104.277029"><ele>579.4499</ele><time>2026-04-03T20:02:23.000Z</time></trkpt>
        <trkpt lat="29.532264" lon="104.276984"><ele>578.80206</ele><time>2026-04-03T20:02:28.000Z</time></trkpt>
        <trkpt lat="29.532288" lon="104.276928"><ele>579.22626</ele><time>2026-04-03T20:02:32.000Z</time></trkpt>
        <trkpt lat="29.53231" lon="104.276883"><ele>578.82666</ele><time>2026-04-03T20:02:36.000Z</time></trkpt>
        <trkpt lat="29.532323" lon="104.276826"><ele>578.9279</ele><time>2026-04-03T20:02:41.000Z</time></trkpt>
        <trkpt lat="29.532339" lon="104.276773"><ele>579.41284</ele><time>2026-04-03T20:02:45.000Z</time></trkpt>
        <trkpt lat="29.532348" lon="104.276717"><ele>579.46826</ele><time>2026-04-03T20:02:49.000Z</time></trkpt>
        <trkpt lat="29.532363" lon="104.276662"><ele>580.59973</ele><time>2026-04-03T20:02:53.000Z</time></trkpt>
        <trkpt lat="29.532361" lon="104.276593"><ele>580.7706</ele><time>2026-04-03T20:02:57.000Z</time></trkpt>
        <trkpt lat="29.532361" lon="104.276531"><ele>581.8328</ele><time>2026-04-03T20:03:01.000Z</time></trkpt>
        <trkpt lat="29.532363" lon="104.276478"><ele>581.73236</ele><time>2026-04-03T20:03:06.000Z</time></trkpt>
        <trkpt lat="29.532359" lon="104.276409"><ele>582.2849</ele><time>2026-04-03T20:03:12.000Z</time></trkpt>
        <trkpt lat="29.532367" lon="104.276354"><ele>582.53125</ele><time>2026-04-03T20:03:17.000Z</time></trkpt>
        <trkpt lat="29.532378" lon="104.276293"><ele>583.9563</ele><time>2026-04-03T20:03:23.000Z</time></trkpt>
        <trkpt lat="29.532388" lon="104.276242"><ele>584.757</ele><time>2026-04-03T20:03:29.000Z</time></trkpt>
        <trkpt lat="29.532399" lon="104.276188"><ele>584.9511</ele><time>2026-04-03T20:03:34.000Z</time></trkpt>
        <trkpt lat="29.532401" lon="104.276127"><ele>585.8085</ele><time>2026-04-03T20:03:39.000Z</time></trkpt>
        <trkpt lat="29.532391" lon="104.276073"><ele>585.46466</ele><time>2026-04-03T20:03:44.000Z</time></trkpt>
        <trkpt lat="29.532385" lon="104.276021"><ele>585.4583</ele><time>2026-04-03T20:03:49.000Z</time></trkpt>
        <trkpt lat="29.532387" lon="104.275964"><ele>586.0524</ele><time>2026-04-03T20:03:53.000Z</time></trkpt>
        <trkpt lat="29.532398" lon="104.275905"><ele>585.3129</ele><time>2026-04-03T20:03:58.000Z</time></trkpt>
        <trkpt lat="29.532362" lon="104.275853"><ele>585.69116</ele><time>2026-04-03T20:04:03.000Z</time></trkpt>
        <trkpt lat="29.532349" lon="104.275798"><ele>584.8322</ele><time>2026-04-03T20:04:08.000Z</time></trkpt>
        <trkpt lat="29.53234" lon="104.27574"><ele>584.38196</ele><time>2026-04-03T20:04:12.000Z</time></trkpt>
        <trkpt lat="29.532327" lon="104.27569"><ele>583.9737</ele><time>2026-04-03T20:04:16.000Z</time></trkpt>
        <trkpt lat="29.532315" lon="104.275635"><ele>584.3008</ele><time>2026-04-03T20:04:20.000Z</time></trkpt>
        <trkpt lat="29.532281" lon="104.275588"><ele>584.1651</ele><time>2026-04-03T20:04:25.000Z</time></trkpt>
        <trkpt lat="29.532245" lon="104.275544"><ele>583.36786</ele><time>2026-04-03T20:04:30.000Z</time></trkpt>
        <trkpt lat="29.532211" lon="104.275504"><ele>582.13324</ele><time>2026-04-03T20:04:34.000Z</time></trkpt>
        <trkpt lat="29.532188" lon="104.275453"><ele>581.4556</ele><time>2026-04-03T20:04:38.000Z</time></trkpt>
        <trkpt lat="29.532176" lon="104.275391"><ele>580.963</ele><time>2026-04-03T20:04:43.000Z</time></trkpt>
        <trkpt lat="29.532167" lon="104.275339"><ele>579.88074</ele><time>2026-04-03T20:04:47.000Z</time></trkpt>
        <trkpt lat="29.532134" lon="104.275292"><ele>579.60065</ele><time>2026-04-03T20:05:02.000Z</time></trkpt>
        <trkpt lat="29.532155" lon="104.275241"><ele>580.4705</ele><time>2026-04-03T20:05:07.000Z</time></trkpt>
        <trkpt lat="29.532178" lon="104.275193"><ele>581.28735</ele><time>2026-04-03T20:05:11.000Z</time></trkpt>
        <trkpt lat="29.532202" lon="104.275143"><ele>582.4732</ele><time>2026-04-03T20:05:15.000Z</time></trkpt>
        <trkpt lat="29.532223" lon="104.275091"><ele>583.40936</ele><time>2026-04-03T20:05:19.000Z</time></trkpt>
        <trkpt lat="29.532258" lon="104.275051"><ele>585.0774</ele><time>2026-04-03T20:05:23.000Z</time></trkpt>
        <trkpt lat="29.532294" lon="104.275006"><ele>585.4646</ele><time>2026-04-03T20:05:27.000Z</time></trkpt>
        <trkpt lat="29.532325" lon="104.274966"><ele>585.6917</ele><time>2026-04-03T20:05:31.000Z</time></trkpt>
        <trkpt lat="29.532357" lon="104.274923"><ele>586.1649</ele><time>2026-04-03T20:05:34.000Z</time></trkpt>
        <trkpt lat="29.53239" lon="104.274882"><ele>586.7583</ele><time>2026-04-03T20:05:38.000Z</time></trkpt>
        <trkpt lat="29.532432" lon="104.274855"><ele>586.86725</ele><time>2026-04-03T20:05:41.000Z</time></trkpt>
        <trkpt lat="29.532486" lon="104.274849"><ele>586.1119</ele><time>2026-04-03T20:05:45.000Z</time></trkpt>
        <trkpt lat="29.532543" lon="104.274854"><ele>585.8945</ele><time>2026-04-03T20:05:49.000Z</time></trkpt>
        <trkpt lat="29.532594" lon="104.274857"><ele>584.9149</ele><time>2026-04-03T20:05:53.000Z</time></trkpt>
        <trkpt lat="29.532639" lon="104.274875"><ele>585.3814</ele><time>2026-04-03T20:05:57.000Z</time></trkpt>
        <trkpt lat="29.532691" lon="104.274893"><ele>585.3116</ele><time>2026-04-03T20:06:01.000Z</time></trkpt>
        <trkpt lat="29.532744" lon="104.274913"><ele>585.78815</ele><time>2026-04-03T20:06:05.000Z</time></trkpt>
        <trkpt lat="29.532791" lon="104.274943"><ele>586.09033</ele><time>2026-04-03T20:06:10.000Z</time></trkpt>
        <trkpt lat="29.532836" lon="104.274971"><ele>586.2195</ele><time>2026-04-03T20:06:14.000Z</time></trkpt>
        <trkpt lat="29.532872" lon="104.275011"><ele>585.90704</ele><time>2026-04-03T20:06:18.000Z</time></trkpt>
        <trkpt lat="29.532913" lon="104.275039"><ele>586.3285</ele><time>2026-04-03T20:06:22.000Z</time></trkpt>
        <trkpt lat="29.532955" lon="104.275061"><ele>586.4856</ele><time>2026-04-03T20:06:26.000Z</time></trkpt>
        <trkpt lat="29.532985" lon="104.275104"><ele>590.0105</ele><time>2026-04-03T20:06:46.000Z</time></trkpt>
        <trkpt lat="29.53304" lon="104.275117"><ele>590.6888</ele><time>2026-04-03T20:07:18.000Z</time></trkpt>
        <trkpt lat="29.533084" lon="104.275101"><ele>590.9086</ele><time>2026-04-03T20:07:21.000Z</time></trkpt>
        <trkpt lat="29.533134" lon="104.275103"><ele>588.7384</ele><time>2026-04-03T20:07:26.000Z</time></trkpt>
        <trkpt lat="29.533181" lon="104.275062"><ele>587.4138</ele><time>2026-04-03T20:07:30.000Z</time></trkpt>
        <trkpt lat="29.533233" lon="104.275038"><ele>587.44257</ele><time>2026-04-03T20:07:34.000Z</time></trkpt>
        <trkpt lat="29.533279" lon="104.275017"><ele>586.2222</ele><time>2026-04-03T20:07:38.000Z</time></trkpt>
        <trkpt lat="29.533323" lon="104.274992"><ele>587.22266</ele><time>2026-04-03T20:07:42.000Z</time></trkpt>
        <trkpt lat="29.533365" lon="104.274971"><ele>586.8447</ele><time>2026-04-03T20:07:48.000Z</time></trkpt>
        <trkpt lat="29.533407" lon="104.274991"><ele>586.0212</ele><time>2026-04-03T20:07:53.000Z</time></trkpt>
        <trkpt lat="29.533452" lon="104.274998"><ele>586.1059</ele><time>2026-04-03T20:07:57.000Z</time></trkpt>
        <trkpt lat="29.533499" lon="104.275017"><ele>587.2736</ele><time>2026-04-03T20:08:01.000Z</time></trkpt>
        <trkpt lat="29.533549" lon="104.275027"><ele>587.4946</ele><time>2026-04-03T20:08:05.000Z</time></trkpt>
        <trkpt lat="29.533607" lon="104.275041"><ele>586.84784</ele><time>2026-04-03T20:08:10.000Z</time></trkpt>
        <trkpt lat="29.533654" lon="104.275054"><ele>586.69604</ele><time>2026-04-03T20:08:14.000Z</time></trkpt>
        <trkpt lat="29.533703" lon="104.275074"><ele>586.5491</ele><time>2026-04-03T20:08:18.000Z</time></trkpt>
        <trkpt lat="29.533747" lon="104.275097"><ele>586.1391</ele><time>2026-04-03T20:08:22.000Z</time></trkpt>
        <trkpt lat="29.533792" lon="104.275108"><ele>585.7762</ele><time>2026-04-03T20:08:26.000Z</time></trkpt>
        <trkpt lat="29.533838" lon="104.275134"><ele>584.8456</ele><time>2026-04-03T20:08:30.000Z</time></trkpt>
        <trkpt lat="29.533878" lon="104.275172"><ele>585.0858</ele><time>2026-04-03T20:08:34.000Z</time></trkpt>
        <trkpt lat="29.533911" lon="104.275208"><ele>584.4293</ele><time>2026-04-03T20:08:38.000Z</time></trkpt>
        <trkpt lat="29.53396" lon="104.275237"><ele>585.8475</ele><time>2026-04-03T20:08:42.000Z</time></trkpt>
        <trkpt lat="29.533996" lon="104.27527"><ele>585.1102</ele><time>2026-04-03T20:08:46.000Z</time></trkpt>
        <trkpt lat="29.53403" lon="104.275309"><ele>586.18414</ele><time>2026-04-03T20:08:50.000Z</time></trkpt>
        <trkpt lat="29.534079" lon="104.275326"><ele>586.47644</ele><time>2026-04-03T20:09:53.000Z</time></trkpt>
        <trkpt lat="29.534127" lon="104.275353"><ele>586.489</ele><time>2026-04-03T20:09:58.000Z</time></trkpt>
        <trkpt lat="29.534174" lon="104.275362"><ele>586.33636</ele><time>2026-04-03T20:10:20.000Z</time></trkpt>
        <trkpt lat="29.534227" lon="104.27537"><ele>585.013</ele><time>2026-04-03T20:10:25.000Z</time></trkpt>
        <trkpt lat="29.534272" lon="104.275391"><ele>584.344</ele><time>2026-04-03T20:10:30.000Z</time></trkpt>
        <trkpt lat="29.534301" lon="104.275441"><ele>584.4614</ele><time>2026-04-03T20:10:33.000Z</time></trkpt>
        <trkpt lat="29.534337" lon="104.275472"><ele>584.6719</ele><time>2026-04-03T20:10:36.000Z</time></trkpt>
        <trkpt lat="29.534375" lon="104.27551"><ele>585.6725</ele><time>2026-04-03T20:10:41.000Z</time></trkpt>
        <trkpt lat="29.534416" lon="104.275542"><ele>586.3218</ele><time>2026-04-03T20:10:46.000Z</time></trkpt>
        <trkpt lat="29.534452" lon="104.275574"><ele>587.3463</ele><time>2026-04-03T20:10:49.000Z</time></trkpt>
        <trkpt lat="29.534486" lon="104.275619"><ele>587.97485</ele><time>2026-04-03T20:10:54.000Z</time></trkpt>
        <trkpt lat="29.534529" lon="104.275649"><ele>588.2422</ele><time>2026-04-03T20:10:59.000Z</time></trkpt>
        <trkpt lat="29.534583" lon="104.275674"><ele>588.21423</ele><time>2026-04-03T20:11:05.000Z</time></trkpt>
        <trkpt lat="29.534629" lon="104.275696"><ele>588.9681</ele><time>2026-04-03T20:11:10.000Z</time></trkpt>
        <trkpt lat="29.534675" lon="104.275708"><ele>589.0788</ele><time>2026-04-03T20:11:14.000Z</time></trkpt>
        <trkpt lat="29.53473" lon="104.275721"><ele>588.8926</ele><time>2026-04-03T20:11:18.000Z</time></trkpt>
        <trkpt lat="29.534786" lon="104.275715"><ele>587.3992</ele><time>2026-04-03T20:11:23.000Z</time></trkpt>
        <trkpt lat="29.534844" lon="104.275713"><ele>587.52026</ele><time>2026-04-03T20:11:28.000Z</time></trkpt>
        <trkpt lat="29.5349" lon="104.275729"><ele>586.37915</ele><time>2026-04-03T20:11:32.000Z</time></trkpt>
        <trkpt lat="29.534946" lon="104.275739"><ele>584.36005</ele><time>2026-04-03T20:11:36.000Z</time></trkpt>
        <trkpt lat="29.534998" lon="104.275759"><ele>584.45386</ele><time>2026-04-03T20:11:40.000Z</time></trkpt>
        <trkpt lat="29.535047" lon="104.275769"><ele>583.9908</ele><time>2026-04-03T20:11:45.000Z</time></trkpt>
        <trkpt lat="29.535096" lon="104.27578"><ele>583.2629</ele><time>2026-04-03T20:11:49.000Z</time></trkpt>
        <trkpt lat="29.535142" lon="104.275795"><ele>581.6676</ele><time>2026-04-03T20:11:53.000Z</time></trkpt>
        <trkpt lat="29.53519" lon="104.275803"><ele>581.63806</ele><time>2026-04-03T20:12:02.000Z</time></trkpt>
        <trkpt lat="29.53524" lon="104.275778"><ele>580.99493</ele><time>2026-04-03T20:12:06.000Z</time></trkpt>
        <trkpt lat="29.535287" lon="104.275771"><ele>580.6401</ele><time>2026-04-03T20:12:10.000Z</time></trkpt>
        <trkpt lat="29.53533" lon="104.275741"><ele>578.2682</ele><time>2026-04-03T20:12:14.000Z</time></trkpt>
        <trkpt lat="29.535369" lon="104.275707"><ele>576.6571</ele><time>2026-04-03T20:12:18.000Z</time></trkpt>
        <trkpt lat="29.535411" lon="104.275683"><ele>576.106</ele><time>2026-04-03T20:12:22.000Z</time></trkpt>
        <trkpt lat="29.535474" lon="104.275685"><ele>572.5937</ele><time>2026-04-03T20:12:33.000Z</time></trkpt>
        <trkpt lat="29.535514" lon="104.275711"><ele>570.9239</ele><time>2026-04-03T20:12:38.000Z</time></trkpt>
        <trkpt lat="29.535551" lon="104.275757"><ele>571.38617</ele><time>2026-04-03T20:12:42.000Z</time></trkpt>
        <trkpt lat="29.53559" lon="104.275796"><ele>572.6734</ele><time>2026-04-03T20:12:46.000Z</time></trkpt>
        <trkpt lat="29.535628" lon="104.275829"><ele>572.28687</ele><time>2026-04-03T20:13:21.000Z</time></trkpt>
        <trkpt lat="29.53567" lon="104.27585"><ele>572.25616</ele><time>2026-04-03T20:15:51.000Z</time></trkpt>
        <trkpt lat="29.535713" lon="104.275873"><ele>571.8757</ele><time>2026-04-03T20:16:14.000Z</time></trkpt>
        <trkpt lat="29.535757" lon="104.275899"><ele>572.2751</ele><time>2026-04-03T20:16:29.000Z</time></trkpt>
        <trkpt lat="29.535805" lon="104.275917"><ele>571.9163</ele><time>2026-04-03T20:16:33.000Z</time></trkpt>
        <trkpt lat="29.535845" lon="104.275949"><ele>571.7734</ele><time>2026-04-03T20:16:39.000Z</time></trkpt>
        <trkpt lat="29.535892" lon="104.275975"><ele>571.7967</ele><time>2026-04-03T20:16:46.000Z</time></trkpt>
        <trkpt lat="29.53594" lon="104.275998"><ele>572.4725</ele><time>2026-04-03T20:16:51.000Z</time></trkpt>
        <trkpt lat="29.53599" lon="104.276029"><ele>572.4345</ele><time>2026-04-03T20:16:55.000Z</time></trkpt>
        <trkpt lat="29.53603" lon="104.276057"><ele>572.48975</ele><time>2026-04-03T20:16:59.000Z</time></trkpt>
        <trkpt lat="29.536069" lon="104.276104"><ele>573.1156</ele><time>2026-04-03T20:17:04.000Z</time></trkpt>
        <trkpt lat="29.536106" lon="104.276149"><ele>573.6956</ele><time>2026-04-03T20:17:08.000Z</time></trkpt>
        <trkpt lat="29.536139" lon="104.276189"><ele>574.01514</ele><time>2026-04-03T20:17:12.000Z</time></trkpt>
        <trkpt lat="29.536188" lon="104.276209"><ele>575.15204</ele><time>2026-04-03T20:17:18.000Z</time></trkpt>
        <trkpt lat="29.536235" lon="104.276195"><ele>575.56354</ele><time>2026-04-03T20:17:22.000Z</time></trkpt>
        <trkpt lat="29.53628" lon="104.276184"><ele>574.72156</ele><time>2026-04-03T20:17:26.000Z</time></trkpt>
        <trkpt lat="29.536325" lon="104.276171"><ele>574.08813</ele><time>2026-04-03T20:17:30.000Z</time></trkpt>
        <trkpt lat="29.536371" lon="104.276171"><ele>574.53735</ele><time>2026-04-03T20:17:34.000Z</time></trkpt>
        <trkpt lat="29.536421" lon="104.276165"><ele>573.7817</ele><time>2026-04-03T20:17:38.000Z</time></trkpt>
        <trkpt lat="29.536474" lon="104.276152"><ele>573.3489</ele><time>2026-04-03T20:17:43.000Z</time></trkpt>
        <trkpt lat="29.536516" lon="104.276114"><ele>572.9411</ele><time>2026-04-03T20:17:49.000Z</time></trkpt>
        <trkpt lat="29.536531" lon="104.276062"><ele>573.03345</ele><time>2026-04-03T20:17:56.000Z</time></trkpt>
        <trkpt lat="29.536523" lon="104.275993"><ele>573.4656</ele><time>2026-04-03T20:18:00.000Z</time></trkpt>
        <trkpt lat="29.536506" lon="104.275938"><ele>574.16376</ele><time>2026-04-03T20:18:04.000Z</time></trkpt>
        <trkpt lat="29.5365" lon="104.275876"><ele>573.6237</ele><time>2026-04-03T20:18:09.000Z</time></trkpt>
        <trkpt lat="29.536475" lon="104.275833"><ele>573.42676</ele><time>2026-04-03T20:18:14.000Z</time></trkpt>
        <trkpt lat="29.536438" lon="104.275798"><ele>572.64777</ele><time>2026-04-03T20:18:20.000Z</time></trkpt>
        <trkpt lat="29.536404" lon="104.275759"><ele>573.28925</ele><time>2026-04-03T20:18:25.000Z</time></trkpt>
        <trkpt lat="29.536383" lon="104.27571"><ele>573.7475</ele><time>2026-04-03T20:18:30.000Z</time></trkpt>
        <trkpt lat="29.53636" lon="104.275665"><ele>573.77606</ele><time>2026-04-03T20:18:34.000Z</time></trkpt>
        <trkpt lat="29.536344" lon="104.275608"><ele>573.8852</ele><time>2026-04-03T20:18:39.000Z</time></trkpt>
        <trkpt lat="29.53633" lon="104.275556"><ele>573.9245</ele><time>2026-04-03T20:18:43.000Z</time></trkpt>
        <trkpt lat="29.53632" lon="104.275505"><ele>573.6796</ele><time>2026-04-03T20:18:47.000Z</time></trkpt>
        <trkpt lat="29.536311" lon="104.275452"><ele>574.04565</ele><time>2026-04-03T20:18:51.000Z</time></trkpt>
        <trkpt lat="29.53631" lon="104.275387"><ele>574.20074</ele><time>2026-04-03T20:18:59.000Z</time></trkpt>
        <trkpt lat="29.536301" lon="104.275326"><ele>574.3841</ele><time>2026-04-03T20:19:05.000Z</time></trkpt>
        <trkpt lat="29.536293" lon="104.275269"><ele>575.34515</ele><time>2026-04-03T20:19:10.000Z</time></trkpt>
        <trkpt lat="29.536286" lon="104.275213"><ele>576.11304</ele><time>2026-04-03T20:19:15.000Z</time></trkpt>
        <trkpt lat="29.536276" lon="104.275156"><ele>576.6482</ele><time>2026-04-03T20:19:20.000Z</time></trkpt>
        <trkpt lat="29.536273" lon="104.275099"><ele>577.27155</ele><time>2026-04-03T20:19:25.000Z</time></trkpt>
        <trkpt lat="29.536288" lon="104.275048"><ele>578.27997</ele><time>2026-04-03T20:19:30.000Z</time></trkpt>
        <trkpt lat="29.536328" lon="104.275076"><ele>578.51276</ele><time>2026-04-03T20:19:49.000Z</time></trkpt>
        <trkpt lat="29.536348" lon="104.275123"><ele>579.2571</ele><time>2026-04-03T20:19:56.000Z</time></trkpt>
        <trkpt lat="29.536394" lon="104.275151"><ele>579.9066</ele><time>2026-04-03T20:20:04.000Z</time></trkpt>
        <trkpt lat="29.536374" lon="104.275213"><ele>579.1836</ele><time>2026-04-03T20:20:12.000Z</time></trkpt>
        <trkpt lat="29.536405" lon="104.275254"><ele>579.0623</ele><time>2026-04-03T20:20:16.000Z</time></trkpt>
        <trkpt lat="29.536429" lon="104.275299"><ele>578.58093</ele><time>2026-04-03T20:20:21.000Z</time></trkpt>
        <trkpt lat="29.536455" lon="104.275349"><ele>577.88873</ele><time>2026-04-03T20:20:29.000Z</time></trkpt>
        <trkpt lat="29.536489" lon="104.275391"><ele>578.4165</ele><time>2026-04-03T20:20:34.000Z</time></trkpt>
        <trkpt lat="29.536531" lon="104.275426"><ele>578.30774</ele><time>2026-04-03T20:20:40.000Z</time></trkpt>
        <trkpt lat="29.536579" lon="104.27543"><ele>579.85455</ele><time>2026-04-03T20:20:48.000Z</time></trkpt>
        <trkpt lat="29.536624" lon="104.275444"><ele>580.0839</ele><time>2026-04-03T20:20:53.000Z</time></trkpt>
        <trkpt lat="29.536671" lon="104.275457"><ele>580.7436</ele><time>2026-04-03T20:21:00.000Z</time></trkpt>
        <trkpt lat="29.536724" lon="104.275477"><ele>579.2489</ele><time>2026-04-03T20:21:09.000Z</time></trkpt>
        <trkpt lat="29.536772" lon="104.275497"><ele>580.25836</ele><time>2026-04-03T20:21:14.000Z</time></trkpt>
        <trkpt lat="29.536811" lon="104.275525"><ele>580.59906</ele><time>2026-04-03T20:21:18.000Z</time></trkpt>
        <trkpt lat="29.53686" lon="104.275542"><ele>580.2977</ele><time>2026-04-03T20:21:23.000Z</time></trkpt>
        <trkpt lat="29.536907" lon="104.275552"><ele>580.88885</ele><time>2026-04-03T20:21:28.000Z</time></trkpt>
        <trkpt lat="29.536957" lon="104.275564"><ele>580.19196</ele><time>2026-04-03T20:21:34.000Z</time></trkpt>
        <trkpt lat="29.537002" lon="104.275575"><ele>580.24945</ele><time>2026-04-03T20:21:49.000Z</time></trkpt>
        <trkpt lat="29.537049" lon="104.275597"><ele>580.31665</ele><time>2026-04-03T20:21:53.000Z</time></trkpt>
        <trkpt lat="29.537102" lon="104.275596"><ele>580.1168</ele><time>2026-04-03T20:21:58.000Z</time></trkpt>
        <trkpt lat="29.537152" lon="104.275606"><ele>580.3991</ele><time>2026-04-03T20:22:03.000Z</time></trkpt>
        <trkpt lat="29.537199" lon="104.275608"><ele>580.5314</ele><time>2026-04-03T20:22:08.000Z</time></trkpt>
        <trkpt lat="29.537245" lon="104.27561"><ele>580.5509</ele><time>2026-04-03T20:22:14.000Z</time></trkpt>
        <trkpt lat="29.537297" lon="104.275604"><ele>580.5666</ele><time>2026-04-03T20:22:20.000Z</time></trkpt>
        <trkpt lat="29.537346" lon="104.275594"><ele>580.2068</ele><time>2026-04-03T20:22:26.000Z</time></trkpt>
        <trkpt lat="29.537394" lon="104.275582"><ele>580.083</ele><time>2026-04-03T20:22:35.000Z</time></trkpt>
        <trkpt lat="29.53744" lon="104.275562"><ele>580.05237</ele><time>2026-04-03T20:22:41.000Z</time></trkpt>
        <trkpt lat="29.537478" lon="104.275533"><ele>580.3416</ele><time>2026-04-03T20:22:48.000Z</time></trkpt>
        <trkpt lat="29.537525" lon="104.275501"><ele>582.24774</ele><time>2026-04-03T20:22:56.000Z</time></trkpt>
        <trkpt lat="29.537569" lon="104.27553"><ele>586.05695</ele><time>2026-04-03T20:23:04.000Z</time></trkpt>
        <trkpt lat="29.537609" lon="104.275496"><ele>584.8652</ele><time>2026-04-03T20:23:13.000Z</time></trkpt>
        <trkpt lat="29.537606" lon="104.27555"><ele>588.47327</ele><time>2026-04-03T20:23:38.000Z</time></trkpt>
        <trkpt lat="29.53764" lon="104.275595"><ele>586.6748</ele><time>2026-04-03T20:25:27.000Z</time></trkpt>
        <trkpt lat="29.537663" lon="104.275656"><ele>585.5519</ele><time>2026-04-03T20:25:35.000Z</time></trkpt>
        <trkpt lat="29.537692" lon="104.275699"><ele>585.839</ele><time>2026-04-03T20:25:40.000Z</time></trkpt>
        <trkpt lat="29.537728" lon="104.275735"><ele>586.3472</ele><time>2026-04-03T20:25:58.000Z</time></trkpt>
        <trkpt lat="29.537775" lon="104.275723"><ele>588.314</ele><time>2026-04-03T20:26:08.000Z</time></trkpt>
        <trkpt lat="29.537779" lon="104.275778"><ele>587.78827</ele><time>2026-04-03T20:26:31.000Z</time></trkpt>
        <trkpt lat="29.537824" lon="104.275788"><ele>588.28735</ele><time>2026-04-03T20:26:43.000Z</time></trkpt>
        <trkpt lat="29.537872" lon="104.2758"><ele>590.04156</ele><time>2026-04-03T20:26:59.000Z</time></trkpt>
        <trkpt lat="29.537849" lon="104.27585"><ele>589.0882</ele><time>2026-04-03T20:27:14.000Z</time></trkpt>
        <trkpt lat="29.537854" lon="104.275908"><ele>589.54407</ele><time>2026-04-03T20:28:11.000Z</time></trkpt>
        <trkpt lat="29.537822" lon="104.275948"><ele>589.1089</ele><time>2026-04-03T20:28:19.000Z</time></trkpt>
        <trkpt lat="29.537789" lon="104.275992"><ele>589.4638</ele><time>2026-04-03T20:28:30.000Z</time></trkpt>
        <trkpt lat="29.53774" lon="104.276002"><ele>587.8153</ele><time>2026-04-03T20:28:38.000Z</time></trkpt>
        <trkpt lat="29.537779" lon="104.276035"><ele>588.01575</ele><time>2026-04-03T20:28:46.000Z</time></trkpt>
        <trkpt lat="29.537814" lon="104.27608"><ele>589.0276</ele><time>2026-04-03T20:28:55.000Z</time></trkpt>
        <trkpt lat="29.537816" lon="104.276136"><ele>590.3496</ele><time>2026-04-03T20:29:05.000Z</time></trkpt>
        <trkpt lat="29.537836" lon="104.276202"><ele>589.84393</ele><time>2026-04-03T20:29:12.000Z</time></trkpt>
        <trkpt lat="29.53782" lon="104.276252"><ele>596.7281</ele><time>2026-04-03T20:29:33.000Z</time></trkpt>
        <trkpt lat="29.537795" lon="104.2763"><ele>598.3587</ele><time>2026-04-03T20:29:40.000Z</time></trkpt>
        <trkpt lat="29.537756" lon="104.276345"><ele>599.5678</ele><time>2026-04-03T20:29:51.000Z</time></trkpt>
        <trkpt lat="29.537716" lon="104.276377"><ele>601.51416</ele><time>2026-04-03T20:29:59.000Z</time></trkpt>
        <trkpt lat="29.537768" lon="104.276375"><ele>604.0287</ele><time>2026-04-03T20:30:09.000Z</time></trkpt>
        <trkpt lat="29.537814" lon="104.276384"><ele>607.29266</ele><time>2026-04-03T20:30:17.000Z</time></trkpt>
        <trkpt lat="29.537858" lon="104.276401"><ele>609.21936</ele><time>2026-04-03T20:30:25.000Z</time></trkpt>
        <trkpt lat="29.537892" lon="104.276441"><ele>610.8522</ele><time>2026-04-03T20:30:38.000Z</time></trkpt>
        <trkpt lat="29.537926" lon="104.276495"><ele>612.1859</ele><time>2026-04-03T20:30:59.000Z</time></trkpt>
        <trkpt lat="29.537969" lon="104.276523"><ele>615.59393</ele><time>2026-04-03T20:31:11.000Z</time></trkpt>
        <trkpt lat="29.537997" lon="104.276579"><ele>616.25336</ele><time>2026-04-03T20:31:19.000Z</time></trkpt>
        <trkpt lat="29.538037" lon="104.276605"><ele>619.0366</ele><time>2026-04-03T20:31:26.000Z</time></trkpt>
        <trkpt lat="29.538073" lon="104.276647"><ele>620.39496</ele><time>2026-04-03T20:31:32.000Z</time></trkpt>
        <trkpt lat="29.538113" lon="104.276684"><ele>623.09937</ele><time>2026-04-03T20:31:39.000Z</time></trkpt>
        <trkpt lat="29.538122" lon="104.276752"><ele>596.51117</ele><time>2026-04-03T20:31:47.000Z</time></trkpt>
        <trkpt lat="29.538154" lon="104.276821"><ele>625.7435</ele><time>2026-04-03T20:32:16.000Z</time></trkpt>
        <trkpt lat="29.538188" lon="104.276863"><ele>626.4454</ele><time>2026-04-03T20:32:20.000Z</time></trkpt>
        <trkpt lat="29.538171" lon="104.276912"><ele>626.93066</ele><time>2026-04-03T20:32:22.000Z</time></trkpt>
        <trkpt lat="29.538175" lon="104.276974"><ele>627.555</ele><time>2026-04-03T20:32:24.000Z</time></trkpt>
        <trkpt lat="29.538162" lon="104.276917"><ele>628.64465</ele><time>2026-04-03T20:32:54.000Z</time></trkpt>
        <trkpt lat="29.538126" lon="104.276877"><ele>628.1921</ele><time>2026-04-03T20:32:57.000Z</time></trkpt>
        <trkpt lat="29.538252" lon="104.276877"><ele>628.13635</ele><time>2026-04-03T20:32:59.000Z</time></trkpt>
        <trkpt lat="29.538202" lon="104.276889"><ele>628.09894</ele><time>2026-04-03T20:33:12.000Z</time></trkpt>
        <trkpt lat="29.538158" lon="104.276931"><ele>627.36707</ele><time>2026-04-03T20:33:26.000Z</time></trkpt>
        <trkpt lat="29.538145" lon="104.276982"><ele>627.9159</ele><time>2026-04-03T20:33:39.000Z</time></trkpt>
        <trkpt lat="29.53818" lon="104.276938"><ele>629.1997</ele><time>2026-04-03T20:33:47.000Z</time></trkpt>
        <trkpt lat="29.538201" lon="104.276883"><ele>626.8797</ele><time>2026-04-03T20:33:53.000Z</time></trkpt>
        <trkpt lat="29.538193" lon="104.27694"><ele>628.15436</ele><time>2026-04-03T20:34:15.000Z</time></trkpt>
        <trkpt lat="29.538178" lon="104.277001"><ele>628.17804</ele><time>2026-04-03T20:34:17.000Z</time></trkpt>
        <trkpt lat="29.538127" lon="104.277009"><ele>628.68964</ele><time>2026-04-03T20:34:27.000Z</time></trkpt>
        <trkpt lat="29.538165" lon="104.276972"><ele>628.5231</ele><time>2026-04-03T20:34:41.000Z</time></trkpt>
        <trkpt lat="29.538204" lon="104.276945"><ele>627.80084</ele><time>2026-04-03T20:35:01.000Z</time></trkpt>
        <trkpt lat="29.538207" lon="104.276891"><ele>628.26855</ele><time>2026-04-03T20:37:05.000Z</time></trkpt>
        <trkpt lat="29.53821" lon="104.276952"><ele>627.4289</ele><time>2026-04-03T20:38:37.000Z</time></trkpt>
        <trkpt lat="29.538165" lon="104.276935"><ele>628.08856</ele><time>2026-04-03T20:40:14.000Z</time></trkpt>
        <trkpt lat="29.538223" lon="104.276924"><ele>628.4922</ele><time>2026-04-03T20:41:14.000Z</time></trkpt>
        <trkpt lat="29.538275" lon="104.276946"><ele>628.5066</ele><time>2026-04-03T20:41:33.000Z</time></trkpt>
        <trkpt lat="29.538214" lon="104.276936"><ele>628.51605</ele><time>2026-04-03T20:42:43.000Z</time></trkpt>
        <trkpt lat="29.538263" lon="104.276952"><ele>628.13385</ele><time>2026-04-03T20:42:54.000Z</time></trkpt>
        <trkpt lat="29.53826" lon="104.277008"><ele>629.83765</ele><time>2026-04-03T20:43:35.000Z</time></trkpt>
        <trkpt lat="29.538296" lon="104.27704"><ele>630.1355</ele><time>2026-04-03T20:43:48.000Z</time></trkpt>
        <trkpt lat="29.538324" lon="104.277085"><ele>630.51294</ele><time>2026-04-03T20:43:59.000Z</time></trkpt>
        <trkpt lat="29.538344" lon="104.277132"><ele>631.9093</ele><time>2026-04-03T20:44:08.000Z</time></trkpt>
        <trkpt lat="29.538308" lon="104.277172"><ele>633.80756</ele><time>2026-04-03T20:44:24.000Z</time></trkpt>
        <trkpt lat="29.538264" lon="104.277148"><ele>634.1305</ele><time>2026-04-03T20:44:35.000Z</time></trkpt>
        <trkpt lat="29.538225" lon="104.277116"><ele>634.67664</ele><time>2026-04-03T20:44:42.000Z</time></trkpt>
        <trkpt lat="29.538182" lon="104.277092"><ele>633.9154</ele><time>2026-04-03T20:44:52.000Z</time></trkpt>
        <trkpt lat="29.53814" lon="104.277067"><ele>634.3058</ele><time>2026-04-03T20:44:59.000Z</time></trkpt>
        <trkpt lat="29.538107" lon="104.277029"><ele>633.3572</ele><time>2026-04-03T20:45:07.000Z</time></trkpt>
        <trkpt lat="29.538066" lon="104.277006"><ele>632.7796</ele><time>2026-04-03T20:45:16.000Z</time></trkpt>
        <trkpt lat="29.538023" lon="104.27698"><ele>632.72974</ele><time>2026-04-03T20:45:26.000Z</time></trkpt>
        <trkpt lat="29.537976" lon="104.276977"><ele>631.51</ele><time>2026-04-03T20:45:42.000Z</time></trkpt>
        <trkpt lat="29.538016" lon="104.277005"><ele>632.73376</ele><time>2026-04-03T20:46:14.000Z</time></trkpt>
        <trkpt lat="29.538035" lon="104.277059"><ele>634.86316</ele><time>2026-04-03T20:46:53.000Z</time></trkpt>
        <trkpt lat="29.538068" lon="104.277101"><ele>636.7873</ele><time>2026-04-03T20:47:05.000Z</time></trkpt>
        <trkpt lat="29.538101" lon="104.277139"><ele>638.4935</ele><time>2026-04-03T20:47:15.000Z</time></trkpt>
        <trkpt lat="29.538124" lon="104.277189"><ele>639.3754</ele><time>2026-04-03T20:47:23.000Z</time></trkpt>
        <trkpt lat="29.538144" lon="104.277241"><ele>641.35803</ele><time>2026-04-03T20:47:33.000Z</time></trkpt>
        <trkpt lat="29.538147" lon="104.277294"><ele>642.77185</ele><time>2026-04-03T20:47:42.000Z</time></trkpt>
        <trkpt lat="29.538155" lon="104.277349"><ele>644.112</ele><time>2026-04-03T20:47:48.000Z</time></trkpt>
        <trkpt lat="29.538156" lon="104.277404"><ele>647.0681</ele><time>2026-04-03T20:47:55.000Z</time></trkpt>
        <trkpt lat="29.538109" lon="104.277409"><ele>646.4457</ele><time>2026-04-03T20:48:10.000Z</time></trkpt>
        <trkpt lat="29.538058" lon="104.277417"><ele>649.1539</ele><time>2026-04-03T20:48:17.000Z</time></trkpt>
        <trkpt lat="29.538006" lon="104.277418"><ele>650.6466</ele><time>2026-04-03T20:48:32.000Z</time></trkpt>
        <trkpt lat="29.538024" lon="104.277472"><ele>652.89026</ele><time>2026-04-03T20:48:58.000Z</time></trkpt>
        <trkpt lat="29.538038" lon="104.277527"><ele>654.0037</ele><time>2026-04-03T20:49:07.000Z</time></trkpt>
        <trkpt lat="29.538014" lon="104.277573"><ele>655.6593</ele><time>2026-04-03T20:49:14.000Z</time></trkpt>
        <trkpt lat="29.537971" lon="104.277592"><ele>656.74854</ele><time>2026-04-03T20:49:28.000Z</time></trkpt>
        <trkpt lat="29.538007" lon="104.277638"><ele>656.4292</ele><time>2026-04-03T20:49:51.000Z</time></trkpt>
        <trkpt lat="29.53804" lon="104.277676"><ele>657.24457</ele><time>2026-04-03T20:50:12.000Z</time></trkpt>
        <trkpt lat="29.538059" lon="104.27773"><ele>658.0615</ele><time>2026-04-03T20:50:31.000Z</time></trkpt>
        <trkpt lat="29.53802" lon="104.277761"><ele>658.42456</ele><time>2026-04-03T20:50:49.000Z</time></trkpt>
        <trkpt lat="29.538032" lon="104.277816"><ele>658.73395</ele><time>2026-04-03T20:50:56.000Z</time></trkpt>
        <trkpt lat="29.538052" lon="104.277873"><ele>659.744</ele><time>2026-04-03T20:51:10.000Z</time></trkpt>
        <trkpt lat="29.538108" lon="104.277883"><ele>656.4904</ele><time>2026-04-03T20:52:07.000Z</time></trkpt>
        <trkpt lat="29.538139" lon="104.277921"><ele>656.00543</ele><time>2026-04-03T20:52:11.000Z</time></trkpt>
        <trkpt lat="29.538179" lon="104.277967"><ele>657.2729</ele><time>2026-04-03T20:52:17.000Z</time></trkpt>
        <trkpt lat="29.538211" lon="104.278011"><ele>657.3195</ele><time>2026-04-03T20:52:21.000Z</time></trkpt>
        <trkpt lat="29.538255" lon="104.278035"><ele>657.55255</ele><time>2026-04-03T20:52:26.000Z</time></trkpt>
        <trkpt lat="29.538311" lon="104.278055"><ele>658.61523</ele><time>2026-04-03T20:52:30.000Z</time></trkpt>
        <trkpt lat="29.53837" lon="104.278066"><ele>659.0434</ele><time>2026-04-03T20:52:35.000Z</time></trkpt>
        <trkpt lat="29.538419" lon="104.278065"><ele>659.14215</ele><time>2026-04-03T20:52:39.000Z</time></trkpt>
        <trkpt lat="29.538466" lon="104.278055"><ele>659.15204</ele><time>2026-04-03T20:52:43.000Z</time></trkpt>
        <trkpt lat="29.538518" lon="104.278052"><ele>657.72815</ele><time>2026-04-03T20:52:48.000Z</time></trkpt>
        <trkpt lat="29.53857" lon="104.278059"><ele>656.8919</ele><time>2026-04-03T20:52:53.000Z</time></trkpt>
        <trkpt lat="29.538616" lon="104.278049"><ele>656.4336</ele><time>2026-04-03T20:52:58.000Z</time></trkpt>
        <trkpt lat="29.538664" lon="104.278056"><ele>653.92316</ele><time>2026-04-03T20:54:25.000Z</time></trkpt>
        <trkpt lat="29.538708" lon="104.278028"><ele>653.2715</ele><time>2026-04-03T20:54:32.000Z</time></trkpt>
        <trkpt lat="29.538757" lon="104.277999"><ele>654.3295</ele><time>2026-04-03T20:54:37.000Z</time></trkpt>
        <trkpt lat="29.53881" lon="104.277986"><ele>654.1679</ele><time>2026-04-03T20:54:43.000Z</time></trkpt>
        <trkpt lat="29.538906" lon="104.27799"><ele>654.9118</ele><time>2026-04-03T20:56:56.000Z</time></trkpt>
        <trkpt lat="29.538918" lon="104.278046"><ele>655.7107</ele><time>2026-04-03T20:57:02.000Z</time></trkpt>
        <trkpt lat="29.538885" lon="104.278094"><ele>656.88354</ele><time>2026-04-03T20:57:07.000Z</time></trkpt>
        <trkpt lat="29.538861" lon="104.278149"><ele>657.15405</ele><time>2026-04-03T20:57:12.000Z</time></trkpt>
        <trkpt lat="29.538824" lon="104.278188"><ele>657.63525</ele><time>2026-04-03T20:57:16.000Z</time></trkpt>
        <trkpt lat="29.538792" lon="104.278233"><ele>657.4639</ele><time>2026-04-03T20:57:21.000Z</time></trkpt>
        <trkpt lat="29.538755" lon="104.278268"><ele>656.90234</ele><time>2026-04-03T20:57:26.000Z</time></trkpt>
        <trkpt lat="29.538729" lon="104.278313"><ele>657.4134</ele><time>2026-04-03T20:57:32.000Z</time></trkpt>
        <trkpt lat="29.538685" lon="104.278362"><ele>659.41974</ele><time>2026-04-03T20:57:37.000Z</time></trkpt>
        <trkpt lat="29.538656" lon="104.278405"><ele>659.97766</ele><time>2026-04-03T20:57:42.000Z</time></trkpt>
        <trkpt lat="29.538628" lon="104.27845"><ele>660.30084</ele><time>2026-04-03T20:57:47.000Z</time></trkpt>
        <trkpt lat="29.53859" lon="104.278494"><ele>662.4001</ele><time>2026-04-03T20:57:52.000Z</time></trkpt>
        <trkpt lat="29.538548" lon="104.278511"><ele>663.4595</ele><time>2026-04-03T20:57:59.000Z</time></trkpt>
        <trkpt lat="29.53851" lon="104.278562"><ele>663.1964</ele><time>2026-04-03T20:58:06.000Z</time></trkpt>
        <trkpt lat="29.538472" lon="104.278601"><ele>663.21344</ele><time>2026-04-03T20:58:14.000Z</time></trkpt>
        <trkpt lat="29.538448" lon="104.278667"><ele>664.0934</ele><time>2026-04-03T20:58:20.000Z</time></trkpt>
        <trkpt lat="29.538422" lon="104.278718"><ele>666.7523</ele><time>2026-04-03T20:58:27.000Z</time></trkpt>
        <trkpt lat="29.538375" lon="104.278752"><ele>667.8411</ele><time>2026-04-03T20:58:34.000Z</time></trkpt>
        <trkpt lat="29.538333" lon="104.278777"><ele>669.9072</ele><time>2026-04-03T20:58:41.000Z</time></trkpt>
        <trkpt lat="29.53829" lon="104.27882"><ele>671.01855</ele><time>2026-04-03T20:58:46.000Z</time></trkpt>
        <trkpt lat="29.538261" lon="104.278871"><ele>673.2465</ele><time>2026-04-03T20:58:52.000Z</time></trkpt>
        <trkpt lat="29.538241" lon="104.27892"><ele>675.2554</ele><time>2026-04-03T20:58:57.000Z</time></trkpt>
        <trkpt lat="29.538219" lon="104.278981"><ele>677.26984</ele><time>2026-04-03T20:59:02.000Z</time></trkpt>
        <trkpt lat="29.538199" lon="104.279028"><ele>677.51855</ele><time>2026-04-03T20:59:08.000Z</time></trkpt>
        <trkpt lat="29.538179" lon="104.279085"><ele>676.3403</ele><time>2026-04-03T21:01:12.000Z</time></trkpt>
        <trkpt lat="29.538166" lon="104.279088"><ele>678.3972</ele><time>2026-04-03T21:08:17.000Z</time></trkpt>
        <trkpt lat="29.538126" lon="104.279059"><ele>670.67694</ele><time>2026-04-03T21:13:24.000Z</time></trkpt>
      </trkseg>
      <trkseg>
        <trkpt lat="29.537135" lon="104.278688"><ele>671.1432</ele><time>2026-04-03T21:37:50.000Z</time></trkpt>
        <trkpt lat="29.537081" lon="104.278693"><ele>675.13586</ele><time>2026-04-03T21:38:14.000Z</time></trkpt>
        <trkpt lat="29.537069" lon="104.278637"><ele>674.2902</ele><time>2026-04-03T21:38:33.000Z</time></trkpt>
      </trkseg>
      <trkseg>
        <trkpt lat="29.537122" lon="104.278652"><ele>672.5217</ele><time>2026-04-03T21:39:11.000Z</time></trkpt>
        <trkpt lat="29.537131" lon="104.278695"><ele>671.8301</ele><time>2026-04-03T21:39:13.000Z</time></trkpt>
        <trkpt lat="29.537142" lon="104.278758"><ele>671.14526</ele><time>2026-04-03T21:39:16.000Z</time></trkpt>
      </trkseg>
      <trkseg>
        <trkpt lat="29.538488" lon="104.278644"><ele>664.68677</ele><time>2026-04-03T22:12:46.000Z</time></trkpt>
        <trkpt lat="29.538519" lon="104.278593"><ele>660.8997</ele><time>2026-04-03T22:13:05.000Z</time></trkpt>
        <trkpt lat="29.538567" lon="104.27854"><ele>658.63904</ele><time>2026-04-03T22:13:15.000Z</time></trkpt>
        <trkpt lat="29.538618" lon="104.278502"><ele>656.3248</ele><time>2026-04-03T22:13:21.000Z</time></trkpt>
        <trkpt lat="29.538653" lon="104.278457"><ele>655.26624</ele><time>2026-04-03T22:13:26.000Z</time></trkpt>
        <trkpt lat="29.538692" lon="104.278409"><ele>654.98285</ele><time>2026-04-03T22:13:31.000Z</time></trkpt>
        <trkpt lat="29.538719" lon="104.278366"><ele>655.65857</ele><time>2026-04-03T22:13:35.000Z</time></trkpt>
        <trkpt lat="29.538752" lon="104.278328"><ele>654.4611</ele><time>2026-04-03T22:13:40.000Z</time></trkpt>
        <trkpt lat="29.538776" lon="104.278275"><ele>653.4677</ele><time>2026-04-03T22:13:45.000Z</time></trkpt>
        <trkpt lat="29.538815" lon="104.278223"><ele>650.8029</ele><time>2026-04-03T22:13:50.000Z</time></trkpt>
        <trkpt lat="29.538846" lon="104.278183"><ele>647.61115</ele><time>2026-04-03T22:13:54.000Z</time></trkpt>
        <trkpt lat="29.538878" lon="104.278138"><ele>648.8346</ele><time>2026-04-03T22:13:58.000Z</time></trkpt>
        <trkpt lat="29.538904" lon="104.278087"><ele>649.4857</ele><time>2026-04-03T22:14:02.000Z</time></trkpt>
        <trkpt lat="29.538931" lon="104.278037"><ele>650.93176</ele><time>2026-04-03T22:14:06.000Z</time></trkpt>
        <trkpt lat="29.538937" lon="104.277977"><ele>650.13556</ele><time>2026-04-03T22:14:10.000Z</time></trkpt>
        <trkpt lat="29.538978" lon="104.277942"><ele>649.90686</ele><time>2026-04-03T22:14:14.000Z</time></trkpt>
        <trkpt lat="29.539004" lon="104.277898"><ele>649.79175</ele><time>2026-04-03T22:14:18.000Z</time></trkpt>
        <trkpt lat="29.539034" lon="104.277854"><ele>648.9962</ele><time>2026-04-03T22:14:22.000Z</time></trkpt>
        <trkpt lat="29.539065" lon="104.277804"><ele>650.211</ele><time>2026-04-03T22:14:26.000Z</time></trkpt>
        <trkpt lat="29.539085" lon="104.277746"><ele>647.7725</ele><time>2026-04-03T22:14:31.000Z</time></trkpt>
        <trkpt lat="29.53911" lon="104.277702"><ele>647.8052</ele><time>2026-04-03T22:14:35.000Z</time></trkpt>
        <trkpt lat="29.539135" lon="104.277656"><ele>648.05304</ele><time>2026-04-03T22:14:39.000Z</time></trkpt>
        <trkpt lat="29.539156" lon="104.27761"><ele>647.5114</ele><time>2026-04-03T22:14:44.000Z</time></trkpt>
        <trkpt lat="29.539174" lon="104.277559"><ele>647.5143</ele><time>2026-04-03T22:14:49.000Z</time></trkpt>
        <trkpt lat="29.539188" lon="104.277504"><ele>648.65454</ele><time>2026-04-03T22:14:53.000Z</time></trkpt>
        <trkpt lat="29.539226" lon="104.277447"><ele>650.1099</ele><time>2026-04-03T22:14:58.000Z</time></trkpt>
        <trkpt lat="29.539257" lon="104.277402"><ele>649.9476</ele><time>2026-04-03T22:15:03.000Z</time></trkpt>
        <trkpt lat="29.539272" lon="104.27735"><ele>651.06134</ele><time>2026-04-03T22:15:07.000Z</time></trkpt>
        <trkpt lat="29.539302" lon="104.277299"><ele>650.04333</ele><time>2026-04-03T22:15:11.000Z</time></trkpt>
        <trkpt lat="29.539326" lon="104.277251"><ele>651.0024</ele><time>2026-04-03T22:15:15.000Z</time></trkpt>
        <trkpt lat="29.539342" lon="104.277192"><ele>651.7581</ele><time>2026-04-03T22:15:20.000Z</time></trkpt>
        <trkpt lat="29.539354" lon="104.277139"><ele>653.1396</ele><time>2026-04-03T22:15:24.000Z</time></trkpt>
        <trkpt lat="29.539382" lon="104.277091"><ele>654.15265</ele><time>2026-04-03T22:15:28.000Z</time></trkpt>
        <trkpt lat="29.539394" lon="104.277042"><ele>656.4738</ele><time>2026-04-03T22:15:32.000Z</time></trkpt>
        <trkpt lat="29.539398" lon="104.276981"><ele>657.9292</ele><time>2026-04-03T22:15:37.000Z</time></trkpt>
        <trkpt lat="29.539399" lon="104.276923"><ele>659.8021</ele><time>2026-04-03T22:15:41.000Z</time></trkpt>
        <trkpt lat="29.53939" lon="104.27687"><ele>660.45746</ele><time>2026-04-03T22:15:45.000Z</time></trkpt>
        <trkpt lat="29.539375" lon="104.276821"><ele>660.3412</ele><time>2026-04-03T22:15:49.000Z</time></trkpt>
        <trkpt lat="29.539341" lon="104.276775"><ele>660.6013</ele><time>2026-04-03T22:15:53.000Z</time></trkpt>
        <trkpt lat="29.539299" lon="104.276734"><ele>660.63293</ele><time>2026-04-03T22:15:58.000Z</time></trkpt>
        <trkpt lat="29.539275" lon="104.276686"><ele>663.4965</ele><time>2026-04-03T22:16:36.000Z</time></trkpt>
        <trkpt lat="29.539232" lon="104.276649"><ele>662.6572</ele><time>2026-04-03T22:16:40.000Z</time></trkpt>
        <trkpt lat="29.539198" lon="104.27661"><ele>662.4765</ele><time>2026-04-03T22:16:44.000Z</time></trkpt>
        <trkpt lat="29.539185" lon="104.276551"><ele>661.7594</ele><time>2026-04-03T22:16:48.000Z</time></trkpt>
        <trkpt lat="29.539209" lon="104.276493"><ele>660.7213</ele><time>2026-04-03T22:16:53.000Z</time></trkpt>
        <trkpt lat="29.539222" lon="104.276431"><ele>660.5074</ele><time>2026-04-03T22:16:57.000Z</time></trkpt>
        <trkpt lat="29.539229" lon="104.27637"><ele>660.2065</ele><time>2026-04-03T22:17:01.000Z</time></trkpt>
        <trkpt lat="29.539232" lon="104.276311"><ele>658.5844</ele><time>2026-04-03T22:17:05.000Z</time></trkpt>
        <trkpt lat="29.539216" lon="104.276261"><ele>658.3325</ele><time>2026-04-03T22:17:08.000Z</time></trkpt>
        <trkpt lat="29.539201" lon="104.276194"><ele>657.40607</ele><time>2026-04-03T22:17:12.000Z</time></trkpt>
        <trkpt lat="29.539184" lon="104.27614"><ele>655.69025</ele><time>2026-04-03T22:17:16.000Z</time></trkpt>
        <trkpt lat="29.539173" lon="104.276076"><ele>654.9766</ele><time>2026-04-03T22:17:20.000Z</time></trkpt>
        <trkpt lat="29.539184" lon="104.27601"><ele>657.20514</ele><time>2026-04-03T22:17:30.000Z</time></trkpt>
        <trkpt lat="29.539215" lon="104.275966"><ele>656.94507</ele><time>2026-04-03T22:17:35.000Z</time></trkpt>
        <trkpt lat="29.539256" lon="104.27593"><ele>655.12177</ele><time>2026-04-03T22:17:40.000Z</time></trkpt>
        <trkpt lat="29.539269" lon="104.275868"><ele>654.2487</ele><time>2026-04-03T22:17:47.000Z</time></trkpt>
        <trkpt lat="29.539298" lon="104.275824"><ele>655.4876</ele><time>2026-04-03T22:17:52.000Z</time></trkpt>
        <trkpt lat="29.539304" lon="104.275767"><ele>655.88715</ele><time>2026-04-03T22:17:56.000Z</time></trkpt>
        <trkpt lat="29.539316" lon="104.275711"><ele>655.82446</ele><time>2026-04-03T22:18:00.000Z</time></trkpt>
        <trkpt lat="29.539324" lon="104.275655"><ele>655.1929</ele><time>2026-04-03T22:18:04.000Z</time></trkpt>
        <trkpt lat="29.539335" lon="104.275592"><ele>654.22125</ele><time>2026-04-03T22:18:09.000Z</time></trkpt>
        <trkpt lat="29.539337" lon="104.275531"><ele>653.6401</ele><time>2026-04-03T22:18:14.000Z</time></trkpt>
        <trkpt lat="29.539328" lon="104.275479"><ele>653.7042</ele><time>2026-04-03T22:18:18.000Z</time></trkpt>
        <trkpt lat="29.539311" lon="104.275421"><ele>653.3626</ele><time>2026-04-03T22:18:23.000Z</time></trkpt>
        <trkpt lat="29.539288" lon="104.275373"><ele>653.18494</ele><time>2026-04-03T22:18:27.000Z</time></trkpt>
        <trkpt lat="29.539259" lon="104.275323"><ele>653.3175</ele><time>2026-04-03T22:18:31.000Z</time></trkpt>
        <trkpt lat="29.539216" lon="104.27529"><ele>652.8972</ele><time>2026-04-03T22:18:36.000Z</time></trkpt>
        <trkpt lat="29.539192" lon="104.275232"><ele>651.5183</ele><time>2026-04-03T22:18:41.000Z</time></trkpt>
        <trkpt lat="29.539174" lon="104.275171"><ele>651.8368</ele><time>2026-04-03T22:18:46.000Z</time></trkpt>
        <trkpt lat="29.539149" lon="104.275119"><ele>652.1217</ele><time>2026-04-03T22:18:52.000Z</time></trkpt>
        <trkpt lat="29.539129" lon="104.275069"><ele>651.5073</ele><time>2026-04-03T22:18:57.000Z</time></trkpt>
        <trkpt lat="29.53911" lon="104.275006"><ele>651.7471</ele><time>2026-04-03T22:19:02.000Z</time></trkpt>
        <trkpt lat="29.53908" lon="104.274959"><ele>652.39935</ele><time>2026-04-03T22:19:06.000Z</time></trkpt>
        <trkpt lat="29.539043" lon="104.274927"><ele>652.2175</ele><time>2026-04-03T22:19:10.000Z</time></trkpt>
        <trkpt lat="29.539089" lon="104.274945"><ele>654.8232</ele><time>2026-04-03T22:20:03.000Z</time></trkpt>
        <trkpt lat="29.539054" lon="104.274908"><ele>654.03094</ele><time>2026-04-03T22:21:18.000Z</time></trkpt>
        <trkpt lat="29.539007" lon="104.27489"><ele>655.032</ele><time>2026-04-03T22:21:24.000Z</time></trkpt>
        <trkpt lat="29.538961" lon="104.274882"><ele>656.6322</ele><time>2026-04-03T22:21:29.000Z</time></trkpt>
        <trkpt lat="29.538911" lon="104.274873"><ele>657.0684</ele><time>2026-04-03T22:21:36.000Z</time></trkpt>
        <trkpt lat="29.53886" lon="104.274851"><ele>655.87286</ele><time>2026-04-03T22:21:42.000Z</time></trkpt>
        <trkpt lat="29.538823" lon="104.274814"><ele>655.93646</ele><time>2026-04-03T22:21:46.000Z</time></trkpt>
        <trkpt lat="29.538821" lon="104.274752"><ele>655.8234</ele><time>2026-04-03T22:21:51.000Z</time></trkpt>
        <trkpt lat="29.538833" lon="104.274701"><ele>657.73596</ele><time>2026-04-03T22:21:59.000Z</time></trkpt>
        <trkpt lat="29.538847" lon="104.274645"><ele>659.5057</ele><time>2026-04-03T22:22:07.000Z</time></trkpt>
        <trkpt lat="29.538844" lon="104.274584"><ele>660.6239</ele><time>2026-04-03T22:22:27.000Z</time></trkpt>
        <trkpt lat="29.53886" lon="104.274526"><ele>660.315</ele><time>2026-04-03T22:22:33.000Z</time></trkpt>
        <trkpt lat="29.538887" lon="104.274476"><ele>662.2708</ele><time>2026-04-03T22:22:40.000Z</time></trkpt>
        <trkpt lat="29.538904" lon="104.274418"><ele>662.88654</ele><time>2026-04-03T22:22:44.000Z</time></trkpt>
        <trkpt lat="29.538949" lon="104.274399"><ele>663.8622</ele><time>2026-04-03T22:22:49.000Z</time></trkpt>
        <trkpt lat="29.538973" lon="104.274342"><ele>665.966</ele><time>2026-04-03T22:22:54.000Z</time></trkpt>
        <trkpt lat="29.538992" lon="104.274295"><ele>665.54236</ele><time>2026-04-03T22:22:58.000Z</time></trkpt>
        <trkpt lat="29.53902" lon="104.274241"><ele>665.937</ele><time>2026-04-03T22:23:02.000Z</time></trkpt>
        <trkpt lat="29.539035" lon="104.274192"><ele>666.08673</ele><time>2026-04-03T22:23:08.000Z</time></trkpt>
        <trkpt lat="29.539041" lon="104.274141"><ele>666.41974</ele><time>2026-04-03T22:23:12.000Z</time></trkpt>
        <trkpt lat="29.539039" lon="104.274085"><ele>667.5251</ele><time>2026-04-03T22:23:16.000Z</time></trkpt>
        <trkpt lat="29.539048" lon="104.274029"><ele>666.9589</ele><time>2026-04-03T22:23:20.000Z</time></trkpt>
        <trkpt lat="29.539047" lon="104.273974"><ele>666.86053</ele><time>2026-04-03T22:23:24.000Z</time></trkpt>
        <trkpt lat="29.539061" lon="104.273924"><ele>666.6917</ele><time>2026-04-03T22:23:28.000Z</time></trkpt>
        <trkpt lat="29.539073" lon="104.273864"><ele>666.4783</ele><time>2026-04-03T22:23:32.000Z</time></trkpt>
        <trkpt lat="29.539087" lon="104.27381"><ele>667.18805</ele><time>2026-04-03T22:23:35.000Z</time></trkpt>
        <trkpt lat="29.539086" lon="104.273752"><ele>667.8315</ele><time>2026-04-03T22:23:39.000Z</time></trkpt>
        <trkpt lat="29.539107" lon="104.273703"><ele>667.3908</ele><time>2026-04-03T22:23:43.000Z</time></trkpt>
        <trkpt lat="29.539107" lon="104.273639"><ele>668.22595</ele><time>2026-04-03T22:23:47.000Z</time></trkpt>
        <trkpt lat="29.539099" lon="104.273584"><ele>667.96027</ele><time>2026-04-03T22:23:53.000Z</time></trkpt>
        <trkpt lat="29.539059" lon="104.273535"><ele>668.21564</ele><time>2026-04-03T22:23:57.000Z</time></trkpt>
        <trkpt lat="29.539028" lon="104.273491"><ele>668.04535</ele><time>2026-04-03T22:24:01.000Z</time></trkpt>
        <trkpt lat="29.538986" lon="104.273472"><ele>667.1368</ele><time>2026-04-03T22:24:05.000Z</time></trkpt>
        <trkpt lat="29.538968" lon="104.273422"><ele>665.7806</ele><time>2026-04-03T22:24:11.000Z</time></trkpt>
        <trkpt lat="29.53895" lon="104.273373"><ele>665.1646</ele><time>2026-04-03T22:24:15.000Z</time></trkpt>
        <trkpt lat="29.538947" lon="104.273314"><ele>665.8518</ele><time>2026-04-03T22:24:20.000Z</time></trkpt>
        <trkpt lat="29.538942" lon="104.273253"><ele>666.68756</ele><time>2026-04-03T22:24:24.000Z</time></trkpt>
        <trkpt lat="29.53893" lon="104.273191"><ele>667.6129</ele><time>2026-04-03T22:24:29.000Z</time></trkpt>
        <trkpt lat="29.538924" lon="104.27313"><ele>667.64185</ele><time>2026-04-03T22:24:34.000Z</time></trkpt>
        <trkpt lat="29.538911" lon="104.273078"><ele>671.7921</ele><time>2026-04-03T22:25:33.000Z</time></trkpt>
        <trkpt lat="29.538889" lon="104.273022"><ele>671.1656</ele><time>2026-04-03T22:25:38.000Z</time></trkpt>
        <trkpt lat="29.538845" lon="104.272995"><ele>671.64404</ele><time>2026-04-03T22:25:44.000Z</time></trkpt>
        <trkpt lat="29.538814" lon="104.273033"><ele>671.74225</ele><time>2026-04-03T22:27:17.000Z</time></trkpt>
        <trkpt lat="29.538763" lon="104.273012"><ele>669.9041</ele><time>2026-04-03T22:27:23.000Z</time></trkpt>
        <trkpt lat="29.538716" lon="104.27302"><ele>668.97406</ele><time>2026-04-03T22:27:28.000Z</time></trkpt>
        <trkpt lat="29.538671" lon="104.27303"><ele>668.43695</ele><time>2026-04-03T22:27:32.000Z</time></trkpt>
        <trkpt lat="29.538619" lon="104.273035"><ele>667.3079</ele><time>2026-04-03T22:27:37.000Z</time></trkpt>
        <trkpt lat="29.538577" lon="104.273076"><ele>664.969</ele><time>2026-04-03T22:27:42.000Z</time></trkpt>
        <trkpt lat="29.538545" lon="104.273121"><ele>661.85046</ele><time>2026-04-03T22:27:47.000Z</time></trkpt>
        <trkpt lat="29.538508" lon="104.273165"><ele>661.1146</ele><time>2026-04-03T22:27:52.000Z</time></trkpt>
        <trkpt lat="29.538463" lon="104.273208"><ele>661.66534</ele><time>2026-04-03T22:27:59.000Z</time></trkpt>
        <trkpt lat="29.53843" lon="104.273266"><ele>662.09875</ele><time>2026-04-03T22:28:04.000Z</time></trkpt>
        <trkpt lat="29.538397" lon="104.273307"><ele>662.04987</ele><time>2026-04-03T22:28:09.000Z</time></trkpt>
        <trkpt lat="29.538355" lon="104.273348"><ele>664.5044</ele><time>2026-04-03T22:28:14.000Z</time></trkpt>
        <trkpt lat="29.538312" lon="104.273371"><ele>666.15466</ele><time>2026-04-03T22:28:18.000Z</time></trkpt>
        <trkpt lat="29.538258" lon="104.273374"><ele>666.3189</ele><time>2026-04-03T22:28:25.000Z</time></trkpt>
        <trkpt lat="29.538206" lon="104.273344"><ele>667.80383</ele><time>2026-04-03T22:28:30.000Z</time></trkpt>
        <trkpt lat="29.538176" lon="104.273301"><ele>668.926</ele><time>2026-04-03T22:28:34.000Z</time></trkpt>
        <trkpt lat="29.538153" lon="104.273255"><ele>671.01526</ele><time>2026-04-03T22:28:38.000Z</time></trkpt>
        <trkpt lat="29.538137" lon="104.273189"><ele>671.18475</ele><time>2026-04-03T22:28:43.000Z</time></trkpt>
        <trkpt lat="29.538157" lon="104.273141"><ele>671.4536</ele><time>2026-04-03T22:28:46.000Z</time></trkpt>
        <trkpt lat="29.538176" lon="104.273089"><ele>671.25354</ele><time>2026-04-03T22:28:50.000Z</time></trkpt>
        <trkpt lat="29.538186" lon="104.273035"><ele>672.4112</ele><time>2026-04-03T22:28:55.000Z</time></trkpt>
        <trkpt lat="29.538204" lon="104.272976"><ele>673.17426</ele><time>2026-04-03T22:29:00.000Z</time></trkpt>
        <trkpt lat="29.538214" lon="104.272919"><ele>673.8915</ele><time>2026-04-03T22:29:04.000Z</time></trkpt>
        <trkpt lat="29.538221" lon="104.272972"><ele>674.6952</ele><time>2026-04-03T22:29:08.000Z</time></trkpt>
        <trkpt lat="29.538219" lon="104.272915"><ele>673.7344</ele><time>2026-04-03T22:29:14.000Z</time></trkpt>
        <trkpt lat="29.53822" lon="104.272855"><ele>673.98706</ele><time>2026-04-03T22:29:19.000Z</time></trkpt>
        <trkpt lat="29.538228" lon="104.272798"><ele>673.1902</ele><time>2026-04-03T22:29:23.000Z</time></trkpt>
        <trkpt lat="29.538247" lon="104.272744"><ele>674.74567</ele><time>2026-04-03T22:29:27.000Z</time></trkpt>
        <trkpt lat="29.53825" lon="104.272681"><ele>675.7535</ele><time>2026-04-03T22:29:41.000Z</time></trkpt>
        <trkpt lat="29.53826" lon="104.272625"><ele>676.12604</ele><time>2026-04-03T22:29:45.000Z</time></trkpt>
        <trkpt lat="29.538268" lon="104.272571"><ele>675.9181</ele><time>2026-04-03T22:29:49.000Z</time></trkpt>
        <trkpt lat="29.538285" lon="104.272522"><ele>676.68036</ele><time>2026-04-03T22:29:54.000Z</time></trkpt>
        <trkpt lat="29.5383" lon="104.272463"><ele>678.7555</ele><time>2026-04-03T22:29:59.000Z</time></trkpt>
        <trkpt lat="29.538325" lon="104.272414"><ele>679.82623</ele><time>2026-04-03T22:30:05.000Z</time></trkpt>
        <trkpt lat="29.538353" lon="104.272361"><ele>679.4221</ele><time>2026-04-03T22:30:09.000Z</time></trkpt>
        <trkpt lat="29.538344" lon="104.272301"><ele>680.1816</ele><time>2026-04-03T22:30:14.000Z</time></trkpt>
        <trkpt lat="29.538322" lon="104.272253"><ele>679.6721</ele><time>2026-04-03T22:30:19.000Z</time></trkpt>
        <trkpt lat="29.538298" lon="104.272205"><ele>679.1351</ele><time>2026-04-03T22:30:23.000Z</time></trkpt>
        <trkpt lat="29.538289" lon="104.272153"><ele>678.68225</ele><time>2026-04-03T22:30:27.000Z</time></trkpt>
        <trkpt lat="29.538268" lon="104.272096"><ele>678.9012</ele><time>2026-04-03T22:30:33.000Z</time></trkpt>
        <trkpt lat="29.538254" lon="104.272038"><ele>678.3778</ele><time>2026-04-03T22:30:38.000Z</time></trkpt>
        <trkpt lat="29.538245" lon="104.271975"><ele>678.3664</ele><time>2026-04-03T22:30:43.000Z</time></trkpt>
        <trkpt lat="29.538255" lon="104.271923"><ele>677.681</ele><time>2026-04-03T22:30:57.000Z</time></trkpt>
        <trkpt lat="29.538224" lon="104.271881"><ele>676.15717</ele><time>2026-04-03T22:31:02.000Z</time></trkpt>
        <trkpt lat="29.538176" lon="104.271865"><ele>674.90967</ele><time>2026-04-03T22:31:08.000Z</time></trkpt>
        <trkpt lat="29.53813" lon="104.271853"><ele>673.1752</ele><time>2026-04-03T22:31:12.000Z</time></trkpt>
        <trkpt lat="29.538082" lon="104.27185"><ele>671.2779</ele><time>2026-04-03T22:31:17.000Z</time></trkpt>
        <trkpt lat="29.538031" lon="104.271834"><ele>669.1466</ele><time>2026-04-03T22:31:23.000Z</time></trkpt>
        <trkpt lat="29.537983" lon="104.271832"><ele>666.9683</ele><time>2026-04-03T22:31:29.000Z</time></trkpt>
        <trkpt lat="29.537932" lon="104.271839"><ele>665.5633</ele><time>2026-04-03T22:31:34.000Z</time></trkpt>
        <trkpt lat="29.537885" lon="104.271841"><ele>665.2041</ele><time>2026-04-03T22:31:38.000Z</time></trkpt>
        <trkpt lat="29.537837" lon="104.271834"><ele>664.9793</ele><time>2026-04-03T22:31:43.000Z</time></trkpt>
        <trkpt lat="29.537807" lon="104.271794"><ele>665.3017</ele><time>2026-04-03T22:31:46.000Z</time></trkpt>
        <trkpt lat="29.537762" lon="104.271753"><ele>665.80817</ele><time>2026-04-03T22:31:51.000Z</time></trkpt>
        <trkpt lat="29.537719" lon="104.271707"><ele>666.806</ele><time>2026-04-03T22:31:56.000Z</time></trkpt>
        <trkpt lat="29.537681" lon="104.271671"><ele>666.1828</ele><time>2026-04-03T22:32:00.000Z</time></trkpt>
        <trkpt lat="29.537655" lon="104.271627"><ele>666.30493</ele><time>2026-04-03T22:32:03.000Z</time></trkpt>
        <trkpt lat="29.537633" lon="104.271581"><ele>666.20654</ele><time>2026-04-03T22:32:06.000Z</time></trkpt>
        <trkpt lat="29.537608" lon="104.27153"><ele>667.8003</ele><time>2026-04-03T22:32:11.000Z</time></trkpt>
        <trkpt lat="29.537589" lon="104.271477"><ele>668.16797</ele><time>2026-04-03T22:32:15.000Z</time></trkpt>
        <trkpt lat="29.537557" lon="104.271437"><ele>668.8099</ele><time>2026-04-03T22:32:20.000Z</time></trkpt>
        <trkpt lat="29.537514" lon="104.271391"><ele>668.6959</ele><time>2026-04-03T22:32:23.000Z</time></trkpt>
        <trkpt lat="29.537494" lon="104.27133"><ele>670.36597</ele><time>2026-04-03T22:32:28.000Z</time></trkpt>
        <trkpt lat="29.537456" lon="104.271289"><ele>670.5784</ele><time>2026-04-03T22:32:32.000Z</time></trkpt>
        <trkpt lat="29.537429" lon="104.271231"><ele>671.7758</ele><time>2026-04-03T22:32:36.000Z</time></trkpt>
        <trkpt lat="29.537405" lon="104.271184"><ele>671.0435</ele><time>2026-04-03T22:32:40.000Z</time></trkpt>
        <trkpt lat="29.53737" lon="104.271139"><ele>670.0687</ele><time>2026-04-03T22:32:44.000Z</time></trkpt>
        <trkpt lat="29.53733" lon="104.271104"><ele>668.71906</ele><time>2026-04-03T22:32:48.000Z</time></trkpt>
        <trkpt lat="29.537299" lon="104.271062"><ele>667.70654</ele><time>2026-04-03T22:32:52.000Z</time></trkpt>
        <trkpt lat="29.537283" lon="104.271002"><ele>666.621</ele><time>2026-04-03T22:32:56.000Z</time></trkpt>
        <trkpt lat="29.537242" lon="104.270971"><ele>667.0498</ele><time>2026-04-03T22:33:00.000Z</time></trkpt>
        <trkpt lat="29.537198" lon="104.270938"><ele>667.74304</ele><time>2026-04-03T22:33:05.000Z</time></trkpt>
        <trkpt lat="29.537155" lon="104.270901"><ele>667.50037</ele><time>2026-04-03T22:33:10.000Z</time></trkpt>
        <trkpt lat="29.537119" lon="104.27086"><ele>667.6976</ele><time>2026-04-03T22:33:14.000Z</time></trkpt>
        <trkpt lat="29.537082" lon="104.270815"><ele>668.6221</ele><time>2026-04-03T22:33:18.000Z</time></trkpt>
        <trkpt lat="29.537059" lon="104.270759"><ele>668.36176</ele><time>2026-04-03T22:33:23.000Z</time></trkpt>
        <trkpt lat="29.537041" lon="104.270706"><ele>669.22046</ele><time>2026-04-03T22:33:28.000Z</time></trkpt>
        <trkpt lat="29.537047" lon="104.27065"><ele>669.4928</ele><time>2026-04-03T22:33:32.000Z</time></trkpt>
        <trkpt lat="29.537056" lon="104.270593"><ele>671.17957</ele><time>2026-04-03T22:33:36.000Z</time></trkpt>
        <trkpt lat="29.537058" lon="104.270526"><ele>673.0938</ele><time>2026-04-03T22:33:41.000Z</time></trkpt>
        <trkpt lat="29.537071" lon="104.27041"><ele>673.7746</ele><time>2026-04-03T22:34:48.000Z</time></trkpt>
        <trkpt lat="29.537106" lon="104.270366"><ele>673.4307</ele><time>2026-04-03T22:34:56.000Z</time></trkpt>
        <trkpt lat="29.537148" lon="104.270345"><ele>674.1387</ele><time>2026-04-03T22:35:00.000Z</time></trkpt>
        <trkpt lat="29.537179" lon="104.270297"><ele>675.9332</ele><time>2026-04-03T22:35:05.000Z</time></trkpt>
        <trkpt lat="29.537194" lon="104.270234"><ele>676.892</ele><time>2026-04-03T22:35:10.000Z</time></trkpt>
        <trkpt lat="29.537202" lon="104.270182"><ele>677.93555</ele><time>2026-04-03T22:35:14.000Z</time></trkpt>
        <trkpt lat="29.537195" lon="104.270126"><ele>675.61035</ele><time>2026-04-03T22:35:19.000Z</time></trkpt>
        <trkpt lat="29.537202" lon="104.270066"><ele>674.8929</ele><time>2026-04-03T22:35:23.000Z</time></trkpt>
        <trkpt lat="29.537213" lon="104.270012"><ele>671.76154</ele><time>2026-04-03T22:35:32.000Z</time></trkpt>
        <trkpt lat="29.53724" lon="104.269959"><ele>670.9775</ele><time>2026-04-03T22:35:38.000Z</time></trkpt>
        <trkpt lat="29.537256" lon="104.269911"><ele>670.15125</ele><time>2026-04-03T22:35:41.000Z</time></trkpt>
        <trkpt lat="29.537257" lon="104.269858"><ele>670.2268</ele><time>2026-04-03T22:35:47.000Z</time></trkpt>
        <trkpt lat="29.537272" lon="104.269804"><ele>668.77594</ele><time>2026-04-03T22:35:52.000Z</time></trkpt>
        <trkpt lat="29.537271" lon="104.26975"><ele>667.59766</ele><time>2026-04-03T22:35:55.000Z</time></trkpt>
        <trkpt lat="29.537261" lon="104.269697"><ele>666.86755</ele><time>2026-04-03T22:35:59.000Z</time></trkpt>
        <trkpt lat="29.537225" lon="104.269656"><ele>663.84717</ele><time>2026-04-03T22:36:04.000Z</time></trkpt>
        <trkpt lat="29.537181" lon="104.269619"><ele>662.1176</ele><time>2026-04-03T22:36:08.000Z</time></trkpt>
        <trkpt lat="29.537137" lon="104.26958"><ele>660.37</ele><time>2026-04-03T22:36:12.000Z</time></trkpt>
        <trkpt lat="29.537089" lon="104.26955"><ele>658.8932</ele><time>2026-04-03T22:36:17.000Z</time></trkpt>
        <trkpt lat="29.537043" lon="104.269511"><ele>658.3141</ele><time>2026-04-03T22:36:21.000Z</time></trkpt>
        <trkpt lat="29.537005" lon="104.269478"><ele>656.8736</ele><time>2026-04-03T22:36:25.000Z</time></trkpt>
        <trkpt lat="29.536996" lon="104.269423"><ele>656.75806</ele><time>2026-04-03T22:36:28.000Z</time></trkpt>
        <trkpt lat="29.537016" lon="104.269376"><ele>655.5396</ele><time>2026-04-03T22:36:31.000Z</time></trkpt>
        <trkpt lat="29.537067" lon="104.269355"><ele>655.2676</ele><time>2026-04-03T22:36:35.000Z</time></trkpt>
        <trkpt lat="29.537105" lon="104.269392"><ele>654.3292</ele><time>2026-04-03T22:36:39.000Z</time></trkpt>
        <trkpt lat="29.537153" lon="104.269411"><ele>655.26807</ele><time>2026-04-03T22:36:45.000Z</time></trkpt>
        <trkpt lat="29.537203" lon="104.269418"><ele>655.01227</ele><time>2026-04-03T22:36:52.000Z</time></trkpt>
        <trkpt lat="29.537248" lon="104.269419"><ele>654.7004</ele><time>2026-04-03T22:36:55.000Z</time></trkpt>
        <trkpt lat="29.537306" lon="104.269424"><ele>654.1774</ele><time>2026-04-03T22:36:59.000Z</time></trkpt>
        <trkpt lat="29.53736" lon="104.26942"><ele>654.9434</ele><time>2026-04-03T22:37:03.000Z</time></trkpt>
        <trkpt lat="29.537412" lon="104.269413"><ele>653.7273</ele><time>2026-04-03T22:37:07.000Z</time></trkpt>
        <trkpt lat="29.537458" lon="104.269412"><ele>652.1814</ele><time>2026-04-03T22:37:11.000Z</time></trkpt>
        <trkpt lat="29.537507" lon="104.269428"><ele>651.432</ele><time>2026-04-03T22:37:15.000Z</time></trkpt>
        <trkpt lat="29.53756" lon="104.26943"><ele>650.67084</ele><time>2026-04-03T22:37:18.000Z</time></trkpt>
        <trkpt lat="29.537614" lon="104.269442"><ele>650.1383</ele><time>2026-04-03T22:37:22.000Z</time></trkpt>
        <trkpt lat="29.537674" lon="104.269445"><ele>648.7665</ele><time>2026-04-03T22:37:28.000Z</time></trkpt>
        <trkpt lat="29.537723" lon="104.269469"><ele>648.3251</ele><time>2026-04-03T22:37:32.000Z</time></trkpt>
        <trkpt lat="29.537786" lon="104.269461"><ele>648.10364</ele><time>2026-04-03T22:37:36.000Z</time></trkpt>
        <trkpt lat="29.537832" lon="104.269465"><ele>649.0034</ele><time>2026-04-03T22:37:39.000Z</time></trkpt>
        <trkpt lat="29.537881" lon="104.269455"><ele>650.2273</ele><time>2026-04-03T22:37:43.000Z</time></trkpt>
        <trkpt lat="29.537929" lon="104.269451"><ele>649.5797</ele><time>2026-04-03T22:37:46.000Z</time></trkpt>
        <trkpt lat="29.537979" lon="104.269442"><ele>648.8882</ele><time>2026-04-03T22:37:51.000Z</time></trkpt>
        <trkpt lat="29.538027" lon="104.269427"><ele>648.335</ele><time>2026-04-03T22:37:56.000Z</time></trkpt>
        <trkpt lat="29.538031" lon="104.26948"><ele>646.2454</ele><time>2026-04-03T22:38:05.000Z</time></trkpt>
        <trkpt lat="29.538076" lon="104.269499"><ele>648.94867</ele><time>2026-04-03T22:38:17.000Z</time></trkpt>
        <trkpt lat="29.538122" lon="104.269471"><ele>648.0088</ele><time>2026-04-03T22:38:29.000Z</time></trkpt>
        <trkpt lat="29.538141" lon="104.269424"><ele>644.84735</ele><time>2026-04-03T22:38:41.000Z</time></trkpt>
        <trkpt lat="29.538189" lon="104.269423"><ele>640.7625</ele><time>2026-04-03T22:38:58.000Z</time></trkpt>
        <trkpt lat="29.538218" lon="104.269386"><ele>641.1017</ele><time>2026-04-03T22:39:29.000Z</time></trkpt>
        <trkpt lat="29.538186" lon="104.269424"><ele>639.70734</ele><time>2026-04-03T22:39:53.000Z</time></trkpt>
        <trkpt lat="29.538218" lon="104.269386"><ele>641.1017</ele><time>2026-04-03T22:40:09.000Z</time></trkpt>
        <trkpt lat="29.53824" lon="104.269424"><ele>639.6157</ele><time>2026-04-03T22:41:21.000Z</time></trkpt>
        <trkpt lat="29.538289" lon="104.269425"><ele>638.514</ele><time>2026-04-03T22:41:53.000Z</time></trkpt>
        <trkpt lat="29.538339" lon="104.269427"><ele>637.3961</ele><time>2026-04-03T22:42:09.000Z</time></trkpt>
        <trkpt lat="29.538385" lon="104.269448"><ele>638.313</ele><time>2026-04-03T22:42:25.000Z</time></trkpt>
        <trkpt lat="29.538431" lon="104.269462"><ele>637.95807</ele><time>2026-04-03T22:43:41.000Z</time></trkpt>
        <trkpt lat="29.53847" lon="104.269495"><ele>641.6994</ele><time>2026-04-03T22:43:54.000Z</time></trkpt>
        <trkpt lat="29.538422" lon="104.269524"><ele>641.511</ele><time>2026-04-03T22:44:39.000Z</time></trkpt>
        <trkpt lat="29.538473" lon="104.269553"><ele>641.3102</ele><time>2026-04-03T22:45:08.000Z</time></trkpt>
        <trkpt lat="29.538519" lon="104.269581"><ele>641.6764</ele><time>2026-04-03T22:45:11.000Z</time></trkpt>
        <trkpt lat="29.538558" lon="104.269608"><ele>640.76227</ele><time>2026-04-03T22:45:16.000Z</time></trkpt>
        <trkpt lat="29.538607" lon="104.269609"><ele>642.1541</ele><time>2026-04-03T22:45:38.000Z</time></trkpt>
        <trkpt lat="29.538651" lon="104.269623"><ele>641.17645</ele><time>2026-04-03T22:45:43.000Z</time></trkpt>
        <trkpt lat="29.538702" lon="104.269612"><ele>640.53015</ele><time>2026-04-03T22:45:49.000Z</time></trkpt>
        <trkpt lat="29.538757" lon="104.26962"><ele>638.28033</ele><time>2026-04-03T22:45:54.000Z</time></trkpt>
        <trkpt lat="29.538785" lon="104.269579"><ele>636.7729</ele><time>2026-04-03T22:45:59.000Z</time></trkpt>
        <trkpt lat="29.538809" lon="104.269533"><ele>635.23</ele><time>2026-04-03T22:46:02.000Z</time></trkpt>
        <trkpt lat="29.538852" lon="104.26951"><ele>628.8823</ele><time>2026-04-03T22:46:15.000Z</time></trkpt>
        <trkpt lat="29.538862" lon="104.269454"><ele>625.30194</ele><time>2026-04-03T22:46:20.000Z</time></trkpt>
        <trkpt lat="29.538874" lon="104.269403"><ele>624.07056</ele><time>2026-04-03T22:46:26.000Z</time></trkpt>
        <trkpt lat="29.53887" lon="104.269352"><ele>623.6329</ele><time>2026-04-03T22:46:30.000Z</time></trkpt>
        <trkpt lat="29.538869" lon="104.269287"><ele>622.27765</ele><time>2026-04-03T22:46:34.000Z</time></trkpt>
        <trkpt lat="29.538853" lon="104.269221"><ele>619.7533</ele><time>2026-04-03T22:46:38.000Z</time></trkpt>
        <trkpt lat="29.538843" lon="104.26916"><ele>617.21765</ele><time>2026-04-03T22:46:42.000Z</time></trkpt>
        <trkpt lat="29.538847" lon="104.269106"><ele>617.5383</ele><time>2026-04-03T22:46:46.000Z</time></trkpt>
        <trkpt lat="29.538868" lon="104.269058"><ele>615.65204</ele><time>2026-04-03T22:46:49.000Z</time></trkpt>
        <trkpt lat="29.538904" lon="104.269018"><ele>613.6114</ele><time>2026-04-03T22:46:53.000Z</time></trkpt>
        <trkpt lat="29.538932" lon="104.268977"><ele>612.4764</ele><time>2026-04-03T22:46:57.000Z</time></trkpt>
        <trkpt lat="29.538944" lon="104.268914"><ele>612.43976</ele><time>2026-04-03T22:47:01.000Z</time></trkpt>
        <trkpt lat="29.538965" lon="104.268868"><ele>609.2799</ele><time>2026-04-03T22:47:07.000Z</time></trkpt>
        <trkpt lat="29.538975" lon="104.268807"><ele>608.4853</ele><time>2026-04-03T22:47:12.000Z</time></trkpt>
        <trkpt lat="29.538978" lon="104.268747"><ele>608.08234</ele><time>2026-04-03T22:47:16.000Z</time></trkpt>
        <trkpt lat="29.538978" lon="104.26869"><ele>606.6167</ele><time>2026-04-03T22:47:20.000Z</time></trkpt>
        <trkpt lat="29.538978" lon="104.268634"><ele>605.5796</ele><time>2026-04-03T22:47:24.000Z</time></trkpt>
        <trkpt lat="29.538996" lon="104.268578"><ele>604.8356</ele><time>2026-04-03T22:47:28.000Z</time></trkpt>
        <trkpt lat="29.539029" lon="104.268529"><ele>604.61487</ele><time>2026-04-03T22:47:33.000Z</time></trkpt>
        <trkpt lat="29.539055" lon="104.268481"><ele>603.577</ele><time>2026-04-03T22:47:37.000Z</time></trkpt>
        <trkpt lat="29.539053" lon="104.268428"><ele>602.6724</ele><time>2026-04-03T22:47:42.000Z</time></trkpt>
        <trkpt lat="29.539034" lon="104.268377"><ele>602.09674</ele><time>2026-04-03T22:47:47.000Z</time></trkpt>
        <trkpt lat="29.539008" lon="104.268333"><ele>602.40906</ele><time>2026-04-03T22:48:04.000Z</time></trkpt>
        <trkpt lat="29.538974" lon="104.268281"><ele>602.9153</ele><time>2026-04-03T22:48:08.000Z</time></trkpt>
        <trkpt lat="29.538933" lon="104.268245"><ele>602.32806</ele><time>2026-04-03T22:48:13.000Z</time></trkpt>
        <trkpt lat="29.538893" lon="104.268205"><ele>602.51624</ele><time>2026-04-03T22:48:17.000Z</time></trkpt>
        <trkpt lat="29.538873" lon="104.268156"><ele>602.8134</ele><time>2026-04-03T22:48:22.000Z</time></trkpt>
        <trkpt lat="29.53884" lon="104.268117"><ele>602.46423</ele><time>2026-04-03T22:48:26.000Z</time></trkpt>
        <trkpt lat="29.538801" lon="104.268087"><ele>602.0282</ele><time>2026-04-03T22:48:29.000Z</time></trkpt>
        <trkpt lat="29.538762" lon="104.268048"><ele>602.4669</ele><time>2026-04-03T22:48:34.000Z</time></trkpt>
        <trkpt lat="29.538721" lon="104.268022"><ele>602.61017</ele><time>2026-04-03T22:48:39.000Z</time></trkpt>
        <trkpt lat="29.538681" lon="104.267994"><ele>603.23737</ele><time>2026-04-03T22:48:44.000Z</time></trkpt>
        <trkpt lat="29.538633" lon="104.267972"><ele>604.0112</ele><time>2026-04-03T22:48:49.000Z</time></trkpt>
        <trkpt lat="29.538589" lon="104.267953"><ele>604.27057</ele><time>2026-04-03T22:48:56.000Z</time></trkpt>
        <trkpt lat="29.538551" lon="104.267912"><ele>603.3499</ele><time>2026-04-03T22:49:00.000Z</time></trkpt>
        <trkpt lat="29.538511" lon="104.267879"><ele>602.9567</ele><time>2026-04-03T22:49:04.000Z</time></trkpt>
        <trkpt lat="29.538461" lon="104.267865"><ele>603.3263</ele><time>2026-04-03T22:49:08.000Z</time></trkpt>
        <trkpt lat="29.538415" lon="104.267853"><ele>603.0105</ele><time>2026-04-03T22:49:12.000Z</time></trkpt>
        <trkpt lat="29.538373" lon="104.267836"><ele>602.89813</ele><time>2026-04-03T22:49:16.000Z</time></trkpt>
        <trkpt lat="29.538331" lon="104.267816"><ele>603.15717</ele><time>2026-04-03T22:49:20.000Z</time></trkpt>
        <trkpt lat="29.538281" lon="104.267788"><ele>602.40204</ele><time>2026-04-03T22:49:25.000Z</time></trkpt>
        <trkpt lat="29.538237" lon="104.267773"><ele>603.146</ele><time>2026-04-03T22:49:49.000Z</time></trkpt>
        <trkpt lat="29.538185" lon="104.267787"><ele>601.968</ele><time>2026-04-03T22:50:01.000Z</time></trkpt>
        <trkpt lat="29.538133" lon="104.267789"><ele>600.7445</ele><time>2026-04-03T22:50:07.000Z</time></trkpt>
        <trkpt lat="29.538083" lon="104.267799"><ele>599.57495</ele><time>2026-04-03T22:50:12.000Z</time></trkpt>
        <trkpt lat="29.538032" lon="104.267804"><ele>599.26733</ele><time>2026-04-03T22:50:17.000Z</time></trkpt>
        <trkpt lat="29.537986" lon="104.267786"><ele>598.62933</ele><time>2026-04-03T22:50:21.000Z</time></trkpt>
        <trkpt lat="29.537937" lon="104.267771"><ele>597.2976</ele><time>2026-04-03T22:50:25.000Z</time></trkpt>
        <trkpt lat="29.537891" lon="104.267759"><ele>597.003</ele><time>2026-04-03T22:50:30.000Z</time></trkpt>
        <trkpt lat="29.537845" lon="104.267736"><ele>596.0821</ele><time>2026-04-03T22:50:34.000Z</time></trkpt>
        <trkpt lat="29.537794" lon="104.267716"><ele>594.0122</ele><time>2026-04-03T22:50:39.000Z</time></trkpt>
        <trkpt lat="29.537747" lon="104.267697"><ele>592.74506</ele><time>2026-04-03T22:50:43.000Z</time></trkpt>
        <trkpt lat="29.537695" lon="104.267687"><ele>592.34143</ele><time>2026-04-03T22:50:47.000Z</time></trkpt>
        <trkpt lat="29.537644" lon="104.267677"><ele>591.05023</ele><time>2026-04-03T22:50:51.000Z</time></trkpt>
        <trkpt lat="29.537585" lon="104.267674"><ele>589.0924</ele><time>2026-04-03T22:50:56.000Z</time></trkpt>
        <trkpt lat="29.537535" lon="104.267664"><ele>589.84485</ele><time>2026-04-03T22:51:00.000Z</time></trkpt>
        <trkpt lat="29.537482" lon="104.267664"><ele>588.7819</ele><time>2026-04-03T22:51:12.000Z</time></trkpt>
        <trkpt lat="29.537436" lon="104.267674"><ele>588.7388</ele><time>2026-04-03T22:51:16.000Z</time></trkpt>
        <trkpt lat="29.537378" lon="104.267671"><ele>588.53345</ele><time>2026-04-03T22:51:22.000Z</time></trkpt>
        <trkpt lat="29.537332" lon="104.267641"><ele>588.5334</ele><time>2026-04-03T22:51:26.000Z</time></trkpt>
        <trkpt lat="29.537275" lon="104.267646"><ele>588.37524</ele><time>2026-04-03T22:51:31.000Z</time></trkpt>
        <trkpt lat="29.537224" lon="104.267639"><ele>588.6373</ele><time>2026-04-03T22:51:35.000Z</time></trkpt>
        <trkpt lat="29.537177" lon="104.267611"><ele>587.27673</ele><time>2026-04-03T22:51:39.000Z</time></trkpt>
        <trkpt lat="29.537128" lon="104.267581"><ele>586.18274</ele><time>2026-04-03T22:51:43.000Z</time></trkpt>
        <trkpt lat="29.537073" lon="104.267551"><ele>584.7913</ele><time>2026-04-03T22:51:47.000Z</time></trkpt>
        <trkpt lat="29.537027" lon="104.267521"><ele>583.5493</ele><time>2026-04-03T22:51:52.000Z</time></trkpt>
        <trkpt lat="29.536982" lon="104.267509"><ele>581.2934</ele><time>2026-04-03T22:51:57.000Z</time></trkpt>
        <trkpt lat="29.536943" lon="104.267471"><ele>580.4348</ele><time>2026-04-03T22:52:01.000Z</time></trkpt>
        <trkpt lat="29.536893" lon="104.267444"><ele>579.427</ele><time>2026-04-03T22:52:05.000Z</time></trkpt>
        <trkpt lat="29.536849" lon="104.267429"><ele>578.85144</ele><time>2026-04-03T22:52:08.000Z</time></trkpt>
        <trkpt lat="29.536799" lon="104.267438"><ele>578.8978</ele><time>2026-04-03T22:52:12.000Z</time></trkpt>
        <trkpt lat="29.536746" lon="104.267431"><ele>579.5118</ele><time>2026-04-03T22:52:16.000Z</time></trkpt>
        <trkpt lat="29.5367" lon="104.267434"><ele>579.2445</ele><time>2026-04-03T22:52:20.000Z</time></trkpt>
        <trkpt lat="29.536643" lon="104.267428"><ele>579.3265</ele><time>2026-04-03T22:52:24.000Z</time></trkpt>
        <trkpt lat="29.536594" lon="104.267425"><ele>578.26135</ele><time>2026-04-03T22:52:28.000Z</time></trkpt>
        <trkpt lat="29.53654" lon="104.267419"><ele>576.72424</ele><time>2026-04-03T22:52:33.000Z</time></trkpt>
        <trkpt lat="29.536487" lon="104.267413"><ele>576.5478</ele><time>2026-04-03T22:52:37.000Z</time></trkpt>
        <trkpt lat="29.536442" lon="104.267411"><ele>576.8623</ele><time>2026-04-03T22:52:41.000Z</time></trkpt>
        <trkpt lat="29.536396" lon="104.267411"><ele>576.4323</ele><time>2026-04-03T22:52:46.000Z</time></trkpt>
        <trkpt lat="29.536352" lon="104.267419"><ele>574.8349</ele><time>2026-04-03T22:52:50.000Z</time></trkpt>
        <trkpt lat="29.536299" lon="104.267413"><ele>575.3013</ele><time>2026-04-03T22:52:55.000Z</time></trkpt>
        <trkpt lat="29.536253" lon="104.267411"><ele>575.1528</ele><time>2026-04-03T22:52:59.000Z</time></trkpt>
        <trkpt lat="29.536207" lon="104.267407"><ele>574.76697</ele><time>2026-04-03T22:53:03.000Z</time></trkpt>
        <trkpt lat="29.536156" lon="104.267397"><ele>574.52045</ele><time>2026-04-03T22:53:08.000Z</time></trkpt>
        <trkpt lat="29.536113" lon="104.267361"><ele>573.084</ele><time>2026-04-03T22:53:13.000Z</time></trkpt>
        <trkpt lat="29.536104" lon="104.267302"><ele>572.898</ele><time>2026-04-03T22:53:18.000Z</time></trkpt>
        <trkpt lat="29.536115" lon="104.267249"><ele>572.8714</ele><time>2026-04-03T22:53:21.000Z</time></trkpt>
        <trkpt lat="29.5361" lon="104.267193"><ele>572.365</ele><time>2026-04-03T22:53:25.000Z</time></trkpt>
        <trkpt lat="29.536084" lon="104.267143"><ele>571.6588</ele><time>2026-04-03T22:53:29.000Z</time></trkpt>
        <trkpt lat="29.536079" lon="104.267089"><ele>571.31555</ele><time>2026-04-03T22:53:33.000Z</time></trkpt>
        <trkpt lat="29.536112" lon="104.267048"><ele>570.90576</ele><time>2026-04-03T22:53:38.000Z</time></trkpt>
        <trkpt lat="29.536155" lon="104.267004"><ele>571.28204</ele><time>2026-04-03T22:53:56.000Z</time></trkpt>
        <trkpt lat="29.536204" lon="104.266975"><ele>570.75757</ele><time>2026-04-03T22:54:04.000Z</time></trkpt>
        <trkpt lat="29.53625" lon="104.266935"><ele>570.9666</ele><time>2026-04-03T22:54:08.000Z</time></trkpt>
        <trkpt lat="29.536289" lon="104.26689"><ele>571.34644</ele><time>2026-04-03T22:54:12.000Z</time></trkpt>
        <trkpt lat="29.536333" lon="104.266858"><ele>570.7974</ele><time>2026-04-03T22:54:16.000Z</time></trkpt>
        <trkpt lat="29.536365" lon="104.266813"><ele>571.26276</ele><time>2026-04-03T22:54:20.000Z</time></trkpt>
        <trkpt lat="29.536388" lon="104.266766"><ele>571.12134</ele><time>2026-04-03T22:54:24.000Z</time></trkpt>
        <trkpt lat="29.536415" lon="104.266721"><ele>571.0812</ele><time>2026-04-03T22:54:28.000Z</time></trkpt>
        <trkpt lat="29.536431" lon="104.266671"><ele>571.8941</ele><time>2026-04-03T22:54:32.000Z</time></trkpt>
        <trkpt lat="29.536449" lon="104.266621"><ele>572.2696</ele><time>2026-04-03T22:54:35.000Z</time></trkpt>
        <trkpt lat="29.536481" lon="104.266585"><ele>572.57916</ele><time>2026-04-03T22:54:39.000Z</time></trkpt>
        <trkpt lat="29.536516" lon="104.266536"><ele>571.61993</ele><time>2026-04-03T22:54:44.000Z</time></trkpt>
        <trkpt lat="29.536549" lon="104.266498"><ele>570.9271</ele><time>2026-04-03T22:54:49.000Z</time></trkpt>
        <trkpt lat="29.53656" lon="104.266446"><ele>570.77405</ele><time>2026-04-03T22:54:54.000Z</time></trkpt>
        <trkpt lat="29.536587" lon="104.266397"><ele>569.9882</ele><time>2026-04-03T22:54:59.000Z</time></trkpt>
        <trkpt lat="29.536613" lon="104.266338"><ele>569.7313</ele><time>2026-04-03T22:55:04.000Z</time></trkpt>
        <trkpt lat="29.536638" lon="104.266284"><ele>569.2738</ele><time>2026-04-03T22:55:09.000Z</time></trkpt>
        <trkpt lat="29.536676" lon="104.266246"><ele>570.18335</ele><time>2026-04-03T22:55:13.000Z</time></trkpt>
        <trkpt lat="29.536729" lon="104.266242"><ele>568.4904</ele><time>2026-04-03T22:55:18.000Z</time></trkpt>
        <trkpt lat="29.536776" lon="104.26624"><ele>569.0267</ele><time>2026-04-03T22:55:22.000Z</time></trkpt>
        <trkpt lat="29.536825" lon="104.266228"><ele>569.06586</ele><time>2026-04-03T22:55:27.000Z</time></trkpt>
        <trkpt lat="29.536881" lon="104.266222"><ele>568.1574</ele><time>2026-04-03T22:55:31.000Z</time></trkpt>
        <trkpt lat="29.53693" lon="104.266197"><ele>567.2091</ele><time>2026-04-03T22:55:35.000Z</time></trkpt>
        <trkpt lat="29.536974" lon="104.266166"><ele>566.34937</ele><time>2026-04-03T22:55:39.000Z</time></trkpt>
        <trkpt lat="29.53701" lon="104.266125"><ele>565.57684</ele><time>2026-04-03T22:55:44.000Z</time></trkpt>
        <trkpt lat="29.537055" lon="104.266094"><ele>564.3204</ele><time>2026-04-03T22:55:52.000Z</time></trkpt>
        <trkpt lat="29.537091" lon="104.266056"><ele>565.4425</ele><time>2026-04-03T22:56:09.000Z</time></trkpt>
        <trkpt lat="29.537127" lon="104.266014"><ele>566.0363</ele><time>2026-04-03T22:56:21.000Z</time></trkpt>
        <trkpt lat="29.537148" lon="104.265967"><ele>566.67926</ele><time>2026-04-03T22:56:26.000Z</time></trkpt>
        <trkpt lat="29.537185" lon="104.265936"><ele>565.48926</ele><time>2026-04-03T22:56:43.000Z</time></trkpt>
        <trkpt lat="29.537196" lon="104.265883"><ele>564.1746</ele><time>2026-04-03T22:57:10.000Z</time></trkpt>
        <trkpt lat="29.53723" lon="104.265842"><ele>564.30225</ele><time>2026-04-03T22:57:24.000Z</time></trkpt>
        <trkpt lat="29.537273" lon="104.265803"><ele>563.2039</ele><time>2026-04-03T22:57:37.000Z</time></trkpt>
        <trkpt lat="29.537303" lon="104.265765"><ele>563.89886</ele><time>2026-04-03T22:58:10.000Z</time></trkpt>
        <trkpt lat="29.53727" lon="104.265728"><ele>563.61694</ele><time>2026-04-03T22:58:33.000Z</time></trkpt>
        <trkpt lat="29.537236" lon="104.265687"><ele>563.2454</ele><time>2026-04-03T23:00:46.000Z</time></trkpt>
        <trkpt lat="29.537303" lon="104.265705"><ele>563.2875</ele><time>2026-04-03T23:05:32.000Z</time></trkpt>
        <trkpt lat="29.537349" lon="104.265702"><ele>561.07874</ele><time>2026-04-03T23:06:07.000Z</time></trkpt>
        <trkpt lat="29.537558" lon="104.265683"><ele>560.6495</ele><time>2026-04-03T23:06:25.000Z</time></trkpt>
        <trkpt lat="29.537619" lon="104.265674"><ele>560.17474</ele><time>2026-04-03T23:06:30.000Z</time></trkpt>
        <trkpt lat="29.537673" lon="104.265696"><ele>559.3264</ele><time>2026-04-03T23:06:35.000Z</time></trkpt>
        <trkpt lat="29.537715" lon="104.26572"><ele>557.773</ele><time>2026-04-03T23:06:39.000Z</time></trkpt>
        <trkpt lat="29.537758" lon="104.265748"><ele>557.3576</ele><time>2026-04-03T23:06:43.000Z</time></trkpt>
        <trkpt lat="29.537794" lon="104.265784"><ele>555.69885</ele><time>2026-04-03T23:06:48.000Z</time></trkpt>
        <trkpt lat="29.537825" lon="104.26583"><ele>555.4821</ele><time>2026-04-03T23:06:53.000Z</time></trkpt>
        <trkpt lat="29.537857" lon="104.265866"><ele>554.4293</ele><time>2026-04-03T23:06:58.000Z</time></trkpt>
        <trkpt lat="29.537895" lon="104.265907"><ele>554.7695</ele><time>2026-04-03T23:07:03.000Z</time></trkpt>
        <trkpt lat="29.537919" lon="104.265953"><ele>554.9726</ele><time>2026-04-03T23:07:07.000Z</time></trkpt>
        <trkpt lat="29.537951" lon="104.266004"><ele>555.1671</ele><time>2026-04-03T23:07:13.000Z</time></trkpt>
        <trkpt lat="29.53798" lon="104.266048"><ele>554.31537</ele><time>2026-04-03T23:07:19.000Z</time></trkpt>
        <trkpt lat="29.537936" lon="104.266088"><ele>554.35846</ele><time>2026-04-03T23:08:27.000Z</time></trkpt>
        <trkpt lat="29.537982" lon="104.266086"><ele>556.71826</ele><time>2026-04-03T23:09:41.000Z</time></trkpt>
        <trkpt lat="29.538018" lon="104.266129"><ele>555.5167</ele><time>2026-04-03T23:09:47.000Z</time></trkpt>
        <trkpt lat="29.538053" lon="104.266164"><ele>554.7964</ele><time>2026-04-03T23:09:52.000Z</time></trkpt>
        <trkpt lat="29.538097" lon="104.266193"><ele>554.92224</ele><time>2026-04-03T23:10:00.000Z</time></trkpt>
        <trkpt lat="29.538139" lon="104.266214"><ele>554.4408</ele><time>2026-04-03T23:10:07.000Z</time></trkpt>
        <trkpt lat="29.538185" lon="104.26624"><ele>554.1765</ele><time>2026-04-03T23:10:13.000Z</time></trkpt>
        <trkpt lat="29.538231" lon="104.266253"><ele>554.4182</ele><time>2026-04-03T23:10:17.000Z</time></trkpt>
        <trkpt lat="29.538284" lon="104.26625"><ele>554.492</ele><time>2026-04-03T23:10:22.000Z</time></trkpt>
        <trkpt lat="29.538335" lon="104.266226"><ele>553.58575</ele><time>2026-04-03T23:10:27.000Z</time></trkpt>
        <trkpt lat="29.538375" lon="104.266199"><ele>552.89087</ele><time>2026-04-03T23:10:31.000Z</time></trkpt>
        <trkpt lat="29.538421" lon="104.266183"><ele>552.4625</ele><time>2026-04-03T23:10:35.000Z</time></trkpt>
        <trkpt lat="29.538477" lon="104.266172"><ele>551.6544</ele><time>2026-04-03T23:10:40.000Z</time></trkpt>
        <trkpt lat="29.538534" lon="104.266164"><ele>550.8818</ele><time>2026-04-03T23:10:51.000Z</time></trkpt>
        <trkpt lat="29.538582" lon="104.26616"><ele>550.5044</ele><time>2026-04-03T23:10:54.000Z</time></trkpt>
        <trkpt lat="29.538642" lon="104.266161"><ele>549.92816</ele><time>2026-04-03T23:10:58.000Z</time></trkpt>
        <trkpt lat="29.538696" lon="104.266165"><ele>549.8454</ele><time>2026-04-03T23:11:02.000Z</time></trkpt>
        <trkpt lat="29.538743" lon="104.266156"><ele>549.77124</ele><time>2026-04-03T23:11:05.000Z</time></trkpt>
        <trkpt lat="29.5388" lon="104.266144"><ele>549.57965</ele><time>2026-04-03T23:11:09.000Z</time></trkpt>
        <trkpt lat="29.538847" lon="104.266137"><ele>549.9615</ele><time>2026-04-03T23:11:12.000Z</time></trkpt>
        <trkpt lat="29.538899" lon="104.26613"><ele>550.7549</ele><time>2026-04-03T23:11:16.000Z</time></trkpt>
        <trkpt lat="29.538949" lon="104.266114"><ele>551.3964</ele><time>2026-04-03T23:11:22.000Z</time></trkpt>
        <trkpt lat="29.538996" lon="104.266103"><ele>551.3119</ele><time>2026-04-03T23:11:26.000Z</time></trkpt>
        <trkpt lat="29.539031" lon="104.266064"><ele>551.882</ele><time>2026-04-03T23:11:31.000Z</time></trkpt>
        <trkpt lat="29.539067" lon="104.26603"><ele>551.67944</ele><time>2026-04-03T23:11:35.000Z</time></trkpt>
        <trkpt lat="29.53911" lon="104.266002"><ele>550.6149</ele><time>2026-04-03T23:11:40.000Z</time></trkpt>
        <trkpt lat="29.539152" lon="104.265965"><ele>550.70233</ele><time>2026-04-03T23:11:45.000Z</time></trkpt>
        <trkpt lat="29.539192" lon="104.265927"><ele>550.5459</ele><time>2026-04-03T23:11:49.000Z</time></trkpt>
        <trkpt lat="29.53924" lon="104.265888"><ele>549.6417</ele><time>2026-04-03T23:11:53.000Z</time></trkpt>
        <trkpt lat="29.539277" lon="104.265849"><ele>548.9601</ele><time>2026-04-03T23:11:58.000Z</time></trkpt>
        <trkpt lat="29.539306" lon="104.265805"><ele>547.853</ele><time>2026-04-03T23:12:02.000Z</time></trkpt>
        <trkpt lat="29.539339" lon="104.265767"><ele>545.60834</ele><time>2026-04-03T23:12:08.000Z</time></trkpt>
        <trkpt lat="29.539387" lon="104.265727"><ele>543.29553</ele><time>2026-04-03T23:12:12.000Z</time></trkpt>
        <trkpt lat="29.539425" lon="104.265688"><ele>541.7792</ele><time>2026-04-03T23:12:16.000Z</time></trkpt>
        <trkpt lat="29.539465" lon="104.265646"><ele>541.2077</ele><time>2026-04-03T23:12:20.000Z</time></trkpt>
        <trkpt lat="29.539501" lon="104.265611"><ele>540.7827</ele><time>2026-04-03T23:12:23.000Z</time></trkpt>
        <trkpt lat="29.539533" lon="104.265572"><ele>539.6983</ele><time>2026-04-03T23:12:26.000Z</time></trkpt>
        <trkpt lat="29.539574" lon="104.265529"><ele>538.7377</ele><time>2026-04-03T23:12:31.000Z</time></trkpt>
        <trkpt lat="29.539611" lon="104.265486"><ele>537.43427</ele><time>2026-04-03T23:12:45.000Z</time></trkpt>
        <trkpt lat="29.539638" lon="104.26544"><ele>535.65936</ele><time>2026-04-03T23:12:50.000Z</time></trkpt>
        <trkpt lat="29.539661" lon="104.265387"><ele>534.6513</ele><time>2026-04-03T23:12:56.000Z</time></trkpt>
        <trkpt lat="29.539689" lon="104.265334"><ele>534.5045</ele><time>2026-04-03T23:13:00.000Z</time></trkpt>
        <trkpt lat="29.539724" lon="104.265277"><ele>533.55756</ele><time>2026-04-03T23:13:05.000Z</time></trkpt>
        <trkpt lat="29.539758" lon="104.265222"><ele>534.6916</ele><time>2026-04-03T23:13:09.000Z</time></trkpt>
        <trkpt lat="29.539781" lon="104.265163"><ele>534.67035</ele><time>2026-04-03T23:13:13.000Z</time></trkpt>
        <trkpt lat="29.539797" lon="104.265112"><ele>535.63385</ele><time>2026-04-03T23:13:16.000Z</time></trkpt>
        <trkpt lat="29.539803" lon="104.265047"><ele>535.8659</ele><time>2026-04-03T23:13:21.000Z</time></trkpt>
        <trkpt lat="29.539804" lon="104.264989"><ele>536.966</ele><time>2026-04-03T23:13:25.000Z</time></trkpt>
        <trkpt lat="29.539812" lon="104.264938"><ele>537.92346</ele><time>2026-04-03T23:13:28.000Z</time></trkpt>
        <trkpt lat="29.539796" lon="104.264884"><ele>538.2557</ele><time>2026-04-03T23:13:32.000Z</time></trkpt>
        <trkpt lat="29.539767" lon="104.264833"><ele>538.985</ele><time>2026-04-03T23:13:37.000Z</time></trkpt>
        <trkpt lat="29.539744" lon="104.264782"><ele>539.461</ele><time>2026-04-03T23:13:43.000Z</time></trkpt>
        <trkpt lat="29.5397" lon="104.264759"><ele>539.8525</ele><time>2026-04-03T23:13:48.000Z</time></trkpt>
        <trkpt lat="29.53967" lon="104.264715"><ele>539.656</ele><time>2026-04-03T23:13:55.000Z</time></trkpt>
        <trkpt lat="29.539618" lon="104.264704"><ele>539.4971</ele><time>2026-04-03T23:14:01.000Z</time></trkpt>
        <trkpt lat="29.539589" lon="104.264655"><ele>538.5614</ele><time>2026-04-03T23:14:09.000Z</time></trkpt>
        <trkpt lat="29.539602" lon="104.264597"><ele>538.7766</ele><time>2026-04-03T23:14:15.000Z</time></trkpt>
        <trkpt lat="29.539648" lon="104.264574"><ele>538.8391</ele><time>2026-04-03T23:14:21.000Z</time></trkpt>
        <trkpt lat="29.539673" lon="104.26452"><ele>540.047</ele><time>2026-04-03T23:14:30.000Z</time></trkpt>
        <trkpt lat="29.539689" lon="104.264469"><ele>540.2367</ele><time>2026-04-03T23:14:41.000Z</time></trkpt>
        <trkpt lat="29.53971" lon="104.264423"><ele>540.757</ele><time>2026-04-03T23:14:46.000Z</time></trkpt>
        <trkpt lat="29.539752" lon="104.264381"><ele>541.5312</ele><time>2026-04-03T23:15:02.000Z</time></trkpt>
        <trkpt lat="29.539774" lon="104.264328"><ele>540.3888</ele><time>2026-04-03T23:15:06.000Z</time></trkpt>
        <trkpt lat="29.539812" lon="104.264278"><ele>538.714</ele><time>2026-04-03T23:15:10.000Z</time></trkpt>
        <trkpt lat="29.539853" lon="104.264245"><ele>536.88654</ele><time>2026-04-03T23:15:14.000Z</time></trkpt>
        <trkpt lat="29.539914" lon="104.264243"><ele>536.43787</ele><time>2026-04-03T23:15:17.000Z</time></trkpt>
        <trkpt lat="29.539959" lon="104.264269"><ele>534.41345</ele><time>2026-04-03T23:15:20.000Z</time></trkpt>
        <trkpt lat="29.540006" lon="104.264291"><ele>534.3408</ele><time>2026-04-03T23:15:23.000Z</time></trkpt>
        <trkpt lat="29.540039" lon="104.264334"><ele>531.3325</ele><time>2026-04-03T23:15:26.000Z</time></trkpt>
        <trkpt lat="29.540089" lon="104.26437"><ele>531.73584</ele><time>2026-04-03T23:15:30.000Z</time></trkpt>
        <trkpt lat="29.540134" lon="104.264397"><ele>531.0691</ele><time>2026-04-03T23:15:34.000Z</time></trkpt>
        <trkpt lat="29.540168" lon="104.264434"><ele>529.97046</ele><time>2026-04-03T23:16:13.000Z</time></trkpt>
        <trkpt lat="29.540214" lon="104.264454"><ele>529.3125</ele><time>2026-04-03T23:16:20.000Z</time></trkpt>
        <trkpt lat="29.540262" lon="104.264455"><ele>528.49554</ele><time>2026-04-03T23:16:29.000Z</time></trkpt>
        <trkpt lat="29.540306" lon="104.264469"><ele>527.90106</ele><time>2026-04-03T23:16:34.000Z</time></trkpt>
        <trkpt lat="29.540351" lon="104.264457"><ele>527.68964</ele><time>2026-04-03T23:16:40.000Z</time></trkpt>
        <trkpt lat="29.5404" lon="104.264459"><ele>526.7098</ele><time>2026-04-03T23:16:44.000Z</time></trkpt>
        <trkpt lat="29.540446" lon="104.264478"><ele>525.51465</ele><time>2026-04-03T23:16:47.000Z</time></trkpt>
        <trkpt lat="29.540464" lon="104.26453"><ele>526.3588</ele><time>2026-04-03T23:16:52.000Z</time></trkpt>
        <trkpt lat="29.540508" lon="104.264558"><ele>526.82733</ele><time>2026-04-03T23:16:57.000Z</time></trkpt>
        <trkpt lat="29.540549" lon="104.264579"><ele>527.0354</ele><time>2026-04-03T23:17:03.000Z</time></trkpt>
        <trkpt lat="29.540591" lon="104.264603"><ele>526.3087</ele><time>2026-04-03T23:17:08.000Z</time></trkpt>
        <trkpt lat="29.540634" lon="104.264623"><ele>526.14856</ele><time>2026-04-03T23:17:12.000Z</time></trkpt>
        <trkpt lat="29.540672" lon="104.264651"><ele>526.2753</ele><time>2026-04-03T23:17:15.000Z</time></trkpt>
        <trkpt lat="29.540721" lon="104.264663"><ele>527.54156</ele><time>2026-04-03T23:17:20.000Z</time></trkpt>
        <trkpt lat="29.540779" lon="104.264666"><ele>522.81476</ele><time>2026-04-03T23:17:39.000Z</time></trkpt>
        <trkpt lat="29.540821" lon="104.264685"><ele>522.9507</ele><time>2026-04-03T23:17:43.000Z</time></trkpt>
        <trkpt lat="29.540874" lon="104.264703"><ele>522.38995</ele><time>2026-04-03T23:17:47.000Z</time></trkpt>
        <trkpt lat="29.540929" lon="104.264735"><ele>521.4789</ele><time>2026-04-03T23:17:52.000Z</time></trkpt>
        <trkpt lat="29.540975" lon="104.264748"><ele>521.31287</ele><time>2026-04-03T23:17:55.000Z</time></trkpt>
        <trkpt lat="29.541028" lon="104.264751"><ele>521.1944</ele><time>2026-04-03T23:17:59.000Z</time></trkpt>
        <trkpt lat="29.541081" lon="104.26474"><ele>520.6154</ele><time>2026-04-03T23:18:04.000Z</time></trkpt>
        <trkpt lat="29.541139" lon="104.264723"><ele>520.4585</ele><time>2026-04-03T23:18:08.000Z</time></trkpt>
        <trkpt lat="29.541184" lon="104.264736"><ele>519.59766</ele><time>2026-04-03T23:18:12.000Z</time></trkpt>
        <trkpt lat="29.54123" lon="104.264732"><ele>517.98395</ele><time>2026-04-03T23:18:15.000Z</time></trkpt>
        <trkpt lat="29.541279" lon="104.264724"><ele>515.0433</ele><time>2026-04-03T23:18:21.000Z</time></trkpt>
        <trkpt lat="29.541328" lon="104.264706"><ele>513.6492</ele><time>2026-04-03T23:18:27.000Z</time></trkpt>
        <trkpt lat="29.541384" lon="104.264721"><ele>510.90945</ele><time>2026-04-03T23:18:31.000Z</time></trkpt>
        <trkpt lat="29.541429" lon="104.264735"><ele>510.20425</ele><time>2026-04-03T23:18:34.000Z</time></trkpt>
        <trkpt lat="29.541477" lon="104.264755"><ele>508.7118</ele><time>2026-04-03T23:18:38.000Z</time></trkpt>
        <trkpt lat="29.541511" lon="104.264804"><ele>506.93155</ele><time>2026-04-03T23:18:44.000Z</time></trkpt>
        <trkpt lat="29.541539" lon="104.26485"><ele>505.24872</ele><time>2026-04-03T23:18:50.000Z</time></trkpt>
        <trkpt lat="29.541586" lon="104.264894"><ele>503.91357</ele><time>2026-04-03T23:18:54.000Z</time></trkpt>
        <trkpt lat="29.541634" lon="104.264922"><ele>504.4797</ele><time>2026-04-03T23:18:58.000Z</time></trkpt>
        <trkpt lat="29.541683" lon="104.264932"><ele>502.67834</ele><time>2026-04-03T23:19:01.000Z</time></trkpt>
        <trkpt lat="29.541737" lon="104.26492"><ele>501.0369</ele><time>2026-04-03T23:19:06.000Z</time></trkpt>
        <trkpt lat="29.541792" lon="104.264938"><ele>499.57327</ele><time>2026-04-03T23:19:10.000Z</time></trkpt>
        <trkpt lat="29.541839" lon="104.26495"><ele>499.28564</ele><time>2026-04-03T23:19:13.000Z</time></trkpt>
        <trkpt lat="29.541885" lon="104.264951"><ele>497.0671</ele><time>2026-04-03T23:19:18.000Z</time></trkpt>
        <trkpt lat="29.541938" lon="104.264969"><ele>496.59055</ele><time>2026-04-03T23:19:23.000Z</time></trkpt>
        <trkpt lat="29.541983" lon="104.264987"><ele>496.1203</ele><time>2026-04-03T23:19:26.000Z</time></trkpt>
        <trkpt lat="29.542041" lon="104.264994"><ele>495.11972</ele><time>2026-04-03T23:19:29.000Z</time></trkpt>
        <trkpt lat="29.542076" lon="104.265037"><ele>492.26407</ele><time>2026-04-03T23:19:35.000Z</time></trkpt>
        <trkpt lat="29.542126" lon="104.265053"><ele>487.6987</ele><time>2026-04-03T23:19:41.000Z</time></trkpt>
        <trkpt lat="29.542175" lon="104.265057"><ele>484.997</ele><time>2026-04-03T23:19:44.000Z</time></trkpt>
        <trkpt lat="29.542231" lon="104.265068"><ele>484.29446</ele><time>2026-04-03T23:19:47.000Z</time></trkpt>
        <trkpt lat="29.542289" lon="104.265056"><ele>481.33856</ele><time>2026-04-03T23:19:52.000Z</time></trkpt>
        <trkpt lat="29.542336" lon="104.265042"><ele>481.0012</ele><time>2026-04-03T23:19:56.000Z</time></trkpt>
        <trkpt lat="29.542395" lon="104.265037"><ele>480.10742</ele><time>2026-04-03T23:20:02.000Z</time></trkpt>
        <trkpt lat="29.542443" lon="104.265008"><ele>480.0071</ele><time>2026-04-03T23:20:07.000Z</time></trkpt>
        <trkpt lat="29.542491" lon="104.264976"><ele>478.82654</ele><time>2026-04-03T23:20:14.000Z</time></trkpt>
        <trkpt lat="29.54254" lon="104.264985"><ele>479.60385</ele><time>2026-04-03T23:20:17.000Z</time></trkpt>
        <trkpt lat="29.542588" lon="104.265002"><ele>481.29602</ele><time>2026-04-03T23:20:22.000Z</time></trkpt>
        <trkpt lat="29.542655" lon="104.265055"><ele>477.66608</ele><time>2026-04-03T23:21:00.000Z</time></trkpt>
        <trkpt lat="29.542721" lon="104.265019"><ele>476.53705</ele><time>2026-04-03T23:23:07.000Z</time></trkpt>
        <trkpt lat="29.542682" lon="104.264986"><ele>478.4674</ele><time>2026-04-03T23:25:56.000Z</time></trkpt>
        <trkpt lat="29.542732" lon="104.264985"><ele>472.17688</ele><time>2026-04-03T23:29:27.000Z</time></trkpt>
        <trkpt lat="29.542778" lon="104.264987"><ele>472.7621</ele><time>2026-04-03T23:29:33.000Z</time></trkpt>
        <trkpt lat="29.542824" lon="104.265002"><ele>474.44507</ele><time>2026-04-03T23:30:29.000Z</time></trkpt>
        <trkpt lat="29.542869" lon="104.264991"><ele>472.86966</ele><time>2026-04-03T23:30:38.000Z</time></trkpt>
        <trkpt lat="29.542917" lon="104.264985"><ele>473.0222</ele><time>2026-04-03T23:30:44.000Z</time></trkpt>
        <trkpt lat="29.54297" lon="104.264985"><ele>473.5955</ele><time>2026-04-03T23:30:49.000Z</time></trkpt>
        <trkpt lat="29.543022" lon="104.264979"><ele>474.23383</ele><time>2026-04-03T23:30:53.000Z</time></trkpt>
        <trkpt lat="29.543067" lon="104.265002"><ele>472.79965</ele><time>2026-04-03T23:30:59.000Z</time></trkpt>
        <trkpt lat="29.543116" lon="104.265032"><ele>473.53906</ele><time>2026-04-03T23:31:04.000Z</time></trkpt>
        <trkpt lat="29.543165" lon="104.265051"><ele>471.60583</ele><time>2026-04-03T23:31:09.000Z</time></trkpt>
        <trkpt lat="29.543211" lon="104.265073"><ele>472.18326</ele><time>2026-04-03T23:31:14.000Z</time></trkpt>
        <trkpt lat="29.543262" lon="104.265084"><ele>472.85568</ele><time>2026-04-03T23:31:18.000Z</time></trkpt>
        <trkpt lat="29.543307" lon="104.2651"><ele>472.36145</ele><time>2026-04-03T23:31:22.000Z</time></trkpt>
        <trkpt lat="29.543348" lon="104.265129"><ele>472.98</ele><time>2026-04-03T23:31:27.000Z</time></trkpt>
        <trkpt lat="29.5434" lon="104.265146"><ele>472.64056</ele><time>2026-04-03T23:31:52.000Z</time></trkpt>
        <trkpt lat="29.543448" lon="104.265162"><ele>470.99432</ele><time>2026-04-03T23:31:59.000Z</time></trkpt>
        <trkpt lat="29.543497" lon="104.26517"><ele>471.34317</ele><time>2026-04-03T23:32:05.000Z</time></trkpt>
        <trkpt lat="29.54354" lon="104.265184"><ele>471.51828</ele><time>2026-04-03T23:32:24.000Z</time></trkpt>
        <trkpt lat="29.543599" lon="104.265196"><ele>470.9518</ele><time>2026-04-03T23:32:31.000Z</time></trkpt>
        <trkpt lat="29.543647" lon="104.26522"><ele>469.9461</ele><time>2026-04-03T23:32:36.000Z</time></trkpt>
        <trkpt lat="29.543688" lon="104.265242"><ele>469.07303</ele><time>2026-04-03T23:32:41.000Z</time></trkpt>
        <trkpt lat="29.543732" lon="104.265259"><ele>469.89145</ele><time>2026-04-03T23:32:47.000Z</time></trkpt>
        <trkpt lat="29.543786" lon="104.265276"><ele>469.0637</ele><time>2026-04-03T23:32:53.000Z</time></trkpt>
        <trkpt lat="29.543835" lon="104.265294"><ele>468.78336</ele><time>2026-04-03T23:32:59.000Z</time></trkpt>
        <trkpt lat="29.543814" lon="104.265342"><ele>468.80142</ele><time>2026-04-03T23:33:39.000Z</time></trkpt>
        <trkpt lat="29.543862" lon="104.265354"><ele>466.57462</ele><time>2026-04-03T23:34:43.000Z</time></trkpt>
        <trkpt lat="29.543914" lon="104.265349"><ele>467.129</ele><time>2026-04-03T23:34:48.000Z</time></trkpt>
        <trkpt lat="29.543967" lon="104.265346"><ele>467.3195</ele><time>2026-04-03T23:34:54.000Z</time></trkpt>
        <trkpt lat="29.543994" lon="104.26539"><ele>468.53998</ele><time>2026-04-03T23:35:09.000Z</time></trkpt>
        <trkpt lat="29.544035" lon="104.265371"><ele>467.02722</ele><time>2026-04-03T23:35:27.000Z</time></trkpt>
        <trkpt lat="29.544084" lon="104.265376"><ele>468.3865</ele><time>2026-04-03T23:35:32.000Z</time></trkpt>
        <trkpt lat="29.54413" lon="104.265388"><ele>469.1307</ele><time>2026-04-03T23:35:35.000Z</time></trkpt>
        <trkpt lat="29.54418" lon="104.265401"><ele>470.4578</ele><time>2026-04-03T23:35:39.000Z</time></trkpt>
        <trkpt lat="29.544225" lon="104.265426"><ele>471.68585</ele><time>2026-04-03T23:35:43.000Z</time></trkpt>
        <trkpt lat="29.544275" lon="104.265445"><ele>472.23267</ele><time>2026-04-03T23:35:48.000Z</time></trkpt>
        <trkpt lat="29.544322" lon="104.265478"><ele>472.1977</ele><time>2026-04-03T23:36:42.000Z</time></trkpt>
        <trkpt lat="29.544378" lon="104.265498"><ele>472.38678</ele><time>2026-04-03T23:36:46.000Z</time></trkpt>
        <trkpt lat="29.54442" lon="104.26552"><ele>473.06555</ele><time>2026-04-03T23:36:50.000Z</time></trkpt>
        <trkpt lat="29.54447" lon="104.265536"><ele>474.3208</ele><time>2026-04-03T23:36:55.000Z</time></trkpt>
        <trkpt lat="29.544516" lon="104.265552"><ele>474.59467</ele><time>2026-04-03T23:36:59.000Z</time></trkpt>
        <trkpt lat="29.544568" lon="104.265564"><ele>474.56677</ele><time>2026-04-03T23:37:04.000Z</time></trkpt>
        <trkpt lat="29.544615" lon="104.265576"><ele>475.02505</ele><time>2026-04-03T23:37:08.000Z</time></trkpt>
        <trkpt lat="29.544667" lon="104.265582"><ele>475.64752</ele><time>2026-04-03T23:37:13.000Z</time></trkpt>
        <trkpt lat="29.544714" lon="104.265589"><ele>476.57632</ele><time>2026-04-03T23:37:17.000Z</time></trkpt>
        <trkpt lat="29.54476" lon="104.265601"><ele>477.47488</ele><time>2026-04-03T23:37:21.000Z</time></trkpt>
        <trkpt lat="29.544814" lon="104.265611"><ele>477.2875</ele><time>2026-04-03T23:37:26.000Z</time></trkpt>
        <trkpt lat="29.544862" lon="104.265628"><ele>476.77957</ele><time>2026-04-03T23:37:30.000Z</time></trkpt>
        <trkpt lat="29.544916" lon="104.265638"><ele>476.37683</ele><time>2026-04-03T23:37:35.000Z</time></trkpt>
        <trkpt lat="29.544972" lon="104.265665"><ele>477.0769</ele><time>2026-04-03T23:37:42.000Z</time></trkpt>
        <trkpt lat="29.545016" lon="104.265689"><ele>476.55905</ele><time>2026-04-03T23:37:46.000Z</time></trkpt>
        <trkpt lat="29.545074" lon="104.265706"><ele>476.64435</ele><time>2026-04-03T23:37:51.000Z</time></trkpt>
        <trkpt lat="29.545117" lon="104.265748"><ele>475.33572</ele><time>2026-04-03T23:38:05.000Z</time></trkpt>
        <trkpt lat="29.545121" lon="104.2658"><ele>475.35678</ele><time>2026-04-03T23:38:16.000Z</time></trkpt>
        <trkpt lat="29.545156" lon="104.265844"><ele>473.448</ele><time>2026-04-03T23:40:03.000Z</time></trkpt>
        <trkpt lat="29.545248" lon="104.265892"><ele>472.62613</ele><time>2026-04-03T23:40:16.000Z</time></trkpt>
        <trkpt lat="29.545296" lon="104.265893"><ele>472.51743</ele><time>2026-04-03T23:40:20.000Z</time></trkpt>
        <trkpt lat="29.54535" lon="104.26589"><ele>470.8652</ele><time>2026-04-03T23:40:25.000Z</time></trkpt>
        <trkpt lat="29.545406" lon="104.265892"><ele>469.58948</ele><time>2026-04-03T23:40:33.000Z</time></trkpt>
        <trkpt lat="29.545449" lon="104.265921"><ele>469.45563</ele><time>2026-04-03T23:40:40.000Z</time></trkpt>
        <trkpt lat="29.545485" lon="104.265967"><ele>469.06375</ele><time>2026-04-03T23:40:45.000Z</time></trkpt>
        <trkpt lat="29.54553" lon="104.265991"><ele>467.8696</ele><time>2026-04-03T23:40:50.000Z</time></trkpt>
        <trkpt lat="29.545585" lon="104.266017"><ele>467.09445</ele><time>2026-04-03T23:40:54.000Z</time></trkpt>
        <trkpt lat="29.545624" lon="104.266046"><ele>466.48517</ele><time>2026-04-03T23:40:58.000Z</time></trkpt>
        <trkpt lat="29.545674" lon="104.266076"><ele>465.9044</ele><time>2026-04-03T23:41:01.000Z</time></trkpt>
        <trkpt lat="29.545732" lon="104.266096"><ele>465.39844</ele><time>2026-04-03T23:41:05.000Z</time></trkpt>
        <trkpt lat="29.545794" lon="104.266106"><ele>465.98114</ele><time>2026-04-03T23:41:09.000Z</time></trkpt>
        <trkpt lat="29.54584" lon="104.266123"><ele>464.54727</ele><time>2026-04-03T23:41:14.000Z</time></trkpt>
        <trkpt lat="29.545884" lon="104.266142"><ele>465.20572</ele><time>2026-04-03T23:41:19.000Z</time></trkpt>
        <trkpt lat="29.545933" lon="104.266162"><ele>465.74344</ele><time>2026-04-03T23:41:23.000Z</time></trkpt>
        <trkpt lat="29.545981" lon="104.266178"><ele>466.72122</ele><time>2026-04-03T23:41:28.000Z</time></trkpt>
        <trkpt lat="29.546028" lon="104.266211"><ele>467.36887</ele><time>2026-04-03T23:41:32.000Z</time></trkpt>
        <trkpt lat="29.546069" lon="104.266247"><ele>466.66904</ele><time>2026-04-03T23:41:36.000Z</time></trkpt>
        <trkpt lat="29.546108" lon="104.266279"><ele>466.60345</ele><time>2026-04-03T23:41:40.000Z</time></trkpt>
        <trkpt lat="29.546138" lon="104.26632"><ele>467.92725</ele><time>2026-04-03T23:41:45.000Z</time></trkpt>
        <trkpt lat="29.546181" lon="104.266347"><ele>468.91632</ele><time>2026-04-03T23:41:50.000Z</time></trkpt>
        <trkpt lat="29.546231" lon="104.266371"><ele>470.58942</ele><time>2026-04-03T23:41:55.000Z</time></trkpt>
        <trkpt lat="29.546278" lon="104.266379"><ele>471.20963</ele><time>2026-04-03T23:42:00.000Z</time></trkpt>
        <trkpt lat="29.546326" lon="104.266378"><ele>472.48865</ele><time>2026-04-03T23:42:04.000Z</time></trkpt>
        <trkpt lat="29.546374" lon="104.266351"><ele>473.561</ele><time>2026-04-03T23:42:10.000Z</time></trkpt>
        <trkpt lat="29.546382" lon="104.266291"><ele>476.70734</ele><time>2026-04-03T23:42:15.000Z</time></trkpt>
        <trkpt lat="29.546382" lon="104.266231"><ele>476.81262</ele><time>2026-04-03T23:42:21.000Z</time></trkpt>
        <trkpt lat="29.54638" lon="104.266165"><ele>475.52124</ele><time>2026-04-03T23:42:25.000Z</time></trkpt>
        <trkpt lat="29.546374" lon="104.266106"><ele>474.99164</ele><time>2026-04-03T23:42:29.000Z</time></trkpt>
        <trkpt lat="29.546394" lon="104.266043"><ele>474.13644</ele><time>2026-04-03T23:42:34.000Z</time></trkpt>
        <trkpt lat="29.546436" lon="104.265996"><ele>474.06454</ele><time>2026-04-03T23:42:38.000Z</time></trkpt>
        <trkpt lat="29.546472" lon="104.265961"><ele>473.57224</ele><time>2026-04-03T23:42:41.000Z</time></trkpt>
        <trkpt lat="29.546517" lon="104.265934"><ele>472.69553</ele><time>2026-04-03T23:42:45.000Z</time></trkpt>
        <trkpt lat="29.546559" lon="104.265905"><ele>472.5857</ele><time>2026-04-03T23:42:49.000Z</time></trkpt>
        <trkpt lat="29.546598" lon="104.265863"><ele>473.4923</ele><time>2026-04-03T23:42:55.000Z</time></trkpt>
        <trkpt lat="29.546625" lon="104.265817"><ele>474.88593</ele><time>2026-04-03T23:43:01.000Z</time></trkpt>
        <trkpt lat="29.546658" lon="104.265773"><ele>476.01627</ele><time>2026-04-03T23:43:07.000Z</time></trkpt>
        <trkpt lat="29.546702" lon="104.265751"><ele>477.38852</ele><time>2026-04-03T23:43:12.000Z</time></trkpt>
        <trkpt lat="29.546742" lon="104.265718"><ele>476.9264</ele><time>2026-04-03T23:43:16.000Z</time></trkpt>
        <trkpt lat="29.546795" lon="104.265726"><ele>475.85153</ele><time>2026-04-03T23:43:22.000Z</time></trkpt>
        <trkpt lat="29.54684" lon="104.265695"><ele>474.26114</ele><time>2026-04-03T23:43:29.000Z</time></trkpt>
        <trkpt lat="29.54689" lon="104.265704"><ele>473.70752</ele><time>2026-04-03T23:43:33.000Z</time></trkpt>
        <trkpt lat="29.546944" lon="104.265726"><ele>472.9052</ele><time>2026-04-03T23:43:37.000Z</time></trkpt>
        <trkpt lat="29.54699" lon="104.265756"><ele>471.90884</ele><time>2026-04-03T23:43:41.000Z</time></trkpt>
        <trkpt lat="29.547037" lon="104.265789"><ele>469.9167</ele><time>2026-04-03T23:43:46.000Z</time></trkpt>
        <trkpt lat="29.547077" lon="104.265829"><ele>468.50598</ele><time>2026-04-03T23:44:02.000Z</time></trkpt>
        <trkpt lat="29.5471" lon="104.265875"><ele>468.26028</ele><time>2026-04-03T23:44:07.000Z</time></trkpt>
        <trkpt lat="29.547105" lon="104.265935"><ele>467.62363</ele><time>2026-04-03T23:44:12.000Z</time></trkpt>
        <trkpt lat="29.547101" lon="104.265988"><ele>467.7559</ele><time>2026-04-03T23:44:16.000Z</time></trkpt>
        <trkpt lat="29.5471" lon="104.266042"><ele>467.2152</ele><time>2026-04-03T23:44:20.000Z</time></trkpt>
        <trkpt lat="29.547078" lon="104.266099"><ele>466.5158</ele><time>2026-04-03T23:44:24.000Z</time></trkpt>
        <trkpt lat="29.547049" lon="104.266143"><ele>465.9616</ele><time>2026-04-03T23:44:28.000Z</time></trkpt>
        <trkpt lat="29.547009" lon="104.266188"><ele>466.15457</ele><time>2026-04-03T23:44:32.000Z</time></trkpt>
        <trkpt lat="29.546984" lon="104.266237"><ele>466.12537</ele><time>2026-04-03T23:44:36.000Z</time></trkpt>
        <trkpt lat="29.546949" lon="104.266274"><ele>466.12445</ele><time>2026-04-03T23:44:40.000Z</time></trkpt>
        <trkpt lat="29.546938" lon="104.266331"><ele>466.6149</ele><time>2026-04-03T23:44:44.000Z</time></trkpt>
        <trkpt lat="29.546928" lon="104.266384"><ele>466.6136</ele><time>2026-04-03T23:44:48.000Z</time></trkpt>
        <trkpt lat="29.546882" lon="104.266399"><ele>471.22736</ele><time>2026-04-03T23:45:14.000Z</time></trkpt>
        <trkpt lat="29.546836" lon="104.266427"><ele>471.66797</ele><time>2026-04-03T23:45:19.000Z</time></trkpt>
        <trkpt lat="29.546786" lon="104.266442"><ele>473.1094</ele><time>2026-04-03T23:45:26.000Z</time></trkpt>
        <trkpt lat="29.546743" lon="104.266469"><ele>474.2208</ele><time>2026-04-03T23:45:53.000Z</time></trkpt>
        <trkpt lat="29.546737" lon="104.266529"><ele>474.0514</ele><time>2026-04-03T23:45:58.000Z</time></trkpt>
        <trkpt lat="29.5467" lon="104.266576"><ele>474.04446</ele><time>2026-04-03T23:46:04.000Z</time></trkpt>
        <trkpt lat="29.546688" lon="104.266627"><ele>473.3255</ele><time>2026-04-03T23:46:09.000Z</time></trkpt>
        <trkpt lat="29.546683" lon="104.266687"><ele>473.95523</ele><time>2026-04-03T23:46:14.000Z</time></trkpt>
        <trkpt lat="29.546677" lon="104.266743"><ele>474.88425</ele><time>2026-04-03T23:46:19.000Z</time></trkpt>
        <trkpt lat="29.546667" lon="104.266794"><ele>475.58612</ele><time>2026-04-03T23:46:23.000Z</time></trkpt>
        <trkpt lat="29.546663" lon="104.266858"><ele>475.97034</ele><time>2026-04-03T23:46:28.000Z</time></trkpt>
        <trkpt lat="29.546656" lon="104.266918"><ele>477.4598</ele><time>2026-04-03T23:46:36.000Z</time></trkpt>
        <trkpt lat="29.546668" lon="104.266975"><ele>479.5298</ele><time>2026-04-03T23:47:26.000Z</time></trkpt>
        <trkpt lat="29.546705" lon="104.266938"><ele>479.3414</ele><time>2026-04-03T23:47:44.000Z</time></trkpt>
        <trkpt lat="29.546654" lon="104.266936"><ele>483.33798</ele><time>2026-04-03T23:47:53.000Z</time></trkpt>
        <trkpt lat="29.54672" lon="104.26693"><ele>478.30228</ele><time>2026-04-03T23:47:54.000Z</time></trkpt>
        <trkpt lat="29.546705" lon="104.266979"><ele>475.8091</ele><time>2026-04-03T23:48:13.000Z</time></trkpt>
        <trkpt lat="29.546661" lon="104.267026"><ele>477.9395</ele><time>2026-04-03T23:48:20.000Z</time></trkpt>
        <trkpt lat="29.54665" lon="104.267089"><ele>480.9433</ele><time>2026-04-03T23:48:28.000Z</time></trkpt>
        <trkpt lat="29.546627" lon="104.267137"><ele>482.31708</ele><time>2026-04-03T23:48:33.000Z</time></trkpt>
        <trkpt lat="29.546583" lon="104.267122"><ele>484.80774</ele><time>2026-04-03T23:48:37.000Z</time></trkpt>
        <trkpt lat="29.546585" lon="104.267179"><ele>484.1875</ele><time>2026-04-03T23:48:41.000Z</time></trkpt>
        <trkpt lat="29.546585" lon="104.26724"><ele>485.31958</ele><time>2026-04-03T23:48:45.000Z</time></trkpt>
        <trkpt lat="29.546588" lon="104.267302"><ele>485.65228</ele><time>2026-04-03T23:48:50.000Z</time></trkpt>
        <trkpt lat="29.546588" lon="104.267363"><ele>486.16776</ele><time>2026-04-03T23:48:57.000Z</time></trkpt>
        <trkpt lat="29.546594" lon="104.267416"><ele>486.00085</ele><time>2026-04-03T23:49:10.000Z</time></trkpt>
        <trkpt lat="29.546602" lon="104.26747"><ele>486.4158</ele><time>2026-04-03T23:49:13.000Z</time></trkpt>
        <trkpt lat="29.546622" lon="104.267519"><ele>487.3202</ele><time>2026-04-03T23:49:20.000Z</time></trkpt>
        <trkpt lat="29.546638" lon="104.267575"><ele>486.54733</ele><time>2026-04-03T23:49:46.000Z</time></trkpt>
        <trkpt lat="29.546672" lon="104.267615"><ele>485.92657</ele><time>2026-04-03T23:49:50.000Z</time></trkpt>
        <trkpt lat="29.546701" lon="104.267656"><ele>486.4972</ele><time>2026-04-03T23:50:11.000Z</time></trkpt>
        <trkpt lat="29.54674" lon="104.267706"><ele>487.59213</ele><time>2026-04-03T23:50:20.000Z</time></trkpt>
        <trkpt lat="29.546763" lon="104.267759"><ele>489.0341</ele><time>2026-04-03T23:50:25.000Z</time></trkpt>
        <trkpt lat="29.546765" lon="104.267816"><ele>489.9491</ele><time>2026-04-03T23:50:29.000Z</time></trkpt>
        <trkpt lat="29.54673" lon="104.267767"><ele>489.59277</ele><time>2026-04-03T23:50:36.000Z</time></trkpt>
        <trkpt lat="29.546683" lon="104.267795"><ele>487.78723</ele><time>2026-04-03T23:50:42.000Z</time></trkpt>
        <trkpt lat="29.546651" lon="104.26784"><ele>486.30963</ele><time>2026-04-03T23:50:48.000Z</time></trkpt>
        <trkpt lat="29.546614" lon="104.267878"><ele>486.35147</ele><time>2026-04-03T23:50:56.000Z</time></trkpt>
        <trkpt lat="29.546564" lon="104.267871"><ele>485.1625</ele><time>2026-04-03T23:51:05.000Z</time></trkpt>
        <trkpt lat="29.546565" lon="104.267924"><ele>483.36877</ele><time>2026-04-03T23:51:11.000Z</time></trkpt>
        <trkpt lat="29.546539" lon="104.267974"><ele>483.56427</ele><time>2026-04-03T23:51:16.000Z</time></trkpt>
        <trkpt lat="29.54651" lon="104.268024"><ele>484.40646</ele><time>2026-04-03T23:51:21.000Z</time></trkpt>
        <trkpt lat="29.546462" lon="104.268044"><ele>485.95267</ele><time>2026-04-03T23:51:28.000Z</time></trkpt>
        <trkpt lat="29.54642" lon="104.268073"><ele>485.45477</ele><time>2026-04-03T23:51:35.000Z</time></trkpt>
        <trkpt lat="29.546461" lon="104.268043"><ele>486.8312</ele><time>2026-04-03T23:51:44.000Z</time></trkpt>
        <trkpt lat="29.546514" lon="104.26805"><ele>486.68237</ele><time>2026-04-03T23:51:50.000Z</time></trkpt>
        <trkpt lat="29.546477" lon="104.268098"><ele>488.16556</ele><time>2026-04-03T23:51:58.000Z</time></trkpt>
        <trkpt lat="29.546435" lon="104.268132"><ele>486.16803</ele><time>2026-04-03T23:52:06.000Z</time></trkpt>
        <trkpt lat="29.5464" lon="104.268169"><ele>485.39612</ele><time>2026-04-03T23:52:12.000Z</time></trkpt>
        <trkpt lat="29.546372" lon="104.26822"><ele>484.58936</ele><time>2026-04-03T23:52:17.000Z</time></trkpt>
        <trkpt lat="29.546372" lon="104.268278"><ele>487.1702</ele><time>2026-04-03T23:52:55.000Z</time></trkpt>
        <trkpt lat="29.546381" lon="104.268221"><ele>488.76013</ele><time>2026-04-03T23:53:20.000Z</time></trkpt>
        <trkpt lat="29.546377" lon="104.268165"><ele>486.73904</ele><time>2026-04-03T23:53:29.000Z</time></trkpt>
        <trkpt lat="29.546341" lon="104.268199"><ele>483.68088</ele><time>2026-04-03T23:53:40.000Z</time></trkpt>
        <trkpt lat="29.546296" lon="104.268193"><ele>478.3669</ele><time>2026-04-03T23:54:01.000Z</time></trkpt>
        <trkpt lat="29.54632" lon="104.268261"><ele>477.7017</ele><time>2026-04-03T23:54:16.000Z</time></trkpt>
        <trkpt lat="29.546334" lon="104.268322"><ele>481.57883</ele><time>2026-04-03T23:54:20.000Z</time></trkpt>
        <trkpt lat="29.546344" lon="104.268381"><ele>481.21063</ele><time>2026-04-03T23:54:26.000Z</time></trkpt>
        <trkpt lat="29.546354" lon="104.268439"><ele>482.43634</ele><time>2026-04-03T23:54:29.000Z</time></trkpt>
        <trkpt lat="29.546386" lon="104.268478"><ele>483.759</ele><time>2026-04-03T23:54:33.000Z</time></trkpt>
        <trkpt lat="29.54643" lon="104.268512"><ele>485.49014</ele><time>2026-04-03T23:54:37.000Z</time></trkpt>
        <trkpt lat="29.546462" lon="104.268472"><ele>490.44812</ele><time>2026-04-03T23:55:00.000Z</time></trkpt>
        <trkpt lat="29.546514" lon="104.268481"><ele>491.0776</ele><time>2026-04-03T23:55:29.000Z</time></trkpt>
        <trkpt lat="29.546557" lon="104.268501"><ele>492.1037</ele><time>2026-04-03T23:55:35.000Z</time></trkpt>
        <trkpt lat="29.5466" lon="104.268537"><ele>491.50696</ele><time>2026-04-03T23:55:44.000Z</time></trkpt>
        <trkpt lat="29.546613" lon="104.268592"><ele>491.70474</ele><time>2026-04-03T23:55:49.000Z</time></trkpt>
        <trkpt lat="29.546632" lon="104.268644"><ele>491.87592</ele><time>2026-04-03T23:55:53.000Z</time></trkpt>
        <trkpt lat="29.546643" lon="104.268702"><ele>492.22263</ele><time>2026-04-03T23:55:57.000Z</time></trkpt>
        <trkpt lat="29.546645" lon="104.268757"><ele>492.7349</ele><time>2026-04-03T23:56:01.000Z</time></trkpt>
        <trkpt lat="29.546631" lon="104.268811"><ele>494.3173</ele><time>2026-04-03T23:56:05.000Z</time></trkpt>
        <trkpt lat="29.54661" lon="104.268857"><ele>495.7499</ele><time>2026-04-03T23:56:09.000Z</time></trkpt>
        <trkpt lat="29.546587" lon="104.268913"><ele>495.74918</ele><time>2026-04-03T23:56:14.000Z</time></trkpt>
        <trkpt lat="29.546541" lon="104.268943"><ele>495.38293</ele><time>2026-04-03T23:56:18.000Z</time></trkpt>
        <trkpt lat="29.5465" lon="104.268969"><ele>495.1921</ele><time>2026-04-03T23:56:22.000Z</time></trkpt>
        <trkpt lat="29.546456" lon="104.268998"><ele>494.8916</ele><time>2026-04-03T23:56:28.000Z</time></trkpt>
        <trkpt lat="29.546407" lon="104.269016"><ele>494.57806</ele><time>2026-04-03T23:56:32.000Z</time></trkpt>
        <trkpt lat="29.546356" lon="104.269026"><ele>494.36697</ele><time>2026-04-03T23:56:36.000Z</time></trkpt>
        <trkpt lat="29.546305" lon="104.269028"><ele>494.1891</ele><time>2026-04-03T23:56:40.000Z</time></trkpt>
        <trkpt lat="29.546262" lon="104.269046"><ele>494.05447</ele><time>2026-04-03T23:56:44.000Z</time></trkpt>
        <trkpt lat="29.546218" lon="104.269059"><ele>492.97574</ele><time>2026-04-03T23:56:48.000Z</time></trkpt>
        <trkpt lat="29.546176" lon="104.269081"><ele>492.10538</ele><time>2026-04-03T23:56:52.000Z</time></trkpt>
        <trkpt lat="29.546136" lon="104.26912"><ele>490.8707</ele><time>2026-04-03T23:56:57.000Z</time></trkpt>
        <trkpt lat="29.546094" lon="104.269162"><ele>491.07263</ele><time>2026-04-03T23:57:01.000Z</time></trkpt>
        <trkpt lat="29.546045" lon="104.269194"><ele>491.53262</ele><time>2026-04-03T23:57:05.000Z</time></trkpt>
        <trkpt lat="29.546009" lon="104.269231"><ele>492.27994</ele><time>2026-04-03T23:57:10.000Z</time></trkpt>
        <trkpt lat="29.545962" lon="104.269229"><ele>491.9378</ele><time>2026-04-03T23:57:14.000Z</time></trkpt>
        <trkpt lat="29.545919" lon="104.26921"><ele>493.49734</ele><time>2026-04-03T23:57:18.000Z</time></trkpt>
        <trkpt lat="29.545873" lon="104.269183"><ele>494.85776</ele><time>2026-04-03T23:57:22.000Z</time></trkpt>
        <trkpt lat="29.545829" lon="104.269143"><ele>494.45508</ele><time>2026-04-03T23:57:26.000Z</time></trkpt>
        <trkpt lat="29.545802" lon="104.26909"><ele>494.35284</ele><time>2026-04-03T23:57:30.000Z</time></trkpt>
        <trkpt lat="29.545776" lon="104.269034"><ele>493.08508</ele><time>2026-04-03T23:57:35.000Z</time></trkpt>
        <trkpt lat="29.545757" lon="104.268985"><ele>492.53336</ele><time>2026-04-03T23:57:39.000Z</time></trkpt>
        <trkpt lat="29.545739" lon="104.268929"><ele>490.3747</ele><time>2026-04-03T23:57:44.000Z</time></trkpt>
        <trkpt lat="29.545716" lon="104.268882"><ele>489.20352</ele><time>2026-04-03T23:57:47.000Z</time></trkpt>
        <trkpt lat="29.545693" lon="104.268835"><ele>487.605</ele><time>2026-04-03T23:57:52.000Z</time></trkpt>
        <trkpt lat="29.545643" lon="104.268831"><ele>488.66647</ele><time>2026-04-03T23:57:58.000Z</time></trkpt>
        <trkpt lat="29.545618" lon="104.268782"><ele>489.0284</ele><time>2026-04-03T23:58:02.000Z</time></trkpt>
        <trkpt lat="29.545574" lon="104.268765"><ele>486.51917</ele><time>2026-04-03T23:58:11.000Z</time></trkpt>
        <trkpt lat="29.545549" lon="104.268811"><ele>487.9979</ele><time>2026-04-03T23:58:20.000Z</time></trkpt>
        <trkpt lat="29.545546" lon="104.268868"><ele>490.4086</ele><time>2026-04-03T23:58:36.000Z</time></trkpt>
        <trkpt lat="29.545549" lon="104.26892"><ele>491.1927</ele><time>2026-04-03T23:58:47.000Z</time></trkpt>
        <trkpt lat="29.545549" lon="104.268974"><ele>492.0108</ele><time>2026-04-03T23:58:55.000Z</time></trkpt>
        <trkpt lat="29.545539" lon="104.269028"><ele>493.25577</ele><time>2026-04-03T23:59:03.000Z</time></trkpt>
        <trkpt lat="29.545517" lon="104.269076"><ele>495.79428</ele><time>2026-04-03T23:59:16.000Z</time></trkpt>
        <trkpt lat="29.545482" lon="104.269113"><ele>496.3548</ele><time>2026-04-03T23:59:27.000Z</time></trkpt>
        <trkpt lat="29.54545" lon="104.269153"><ele>500.19055</ele><time>2026-04-03T23:59:40.000Z</time></trkpt>
        <trkpt lat="29.54544" lon="104.269212"><ele>501.49878</ele><time>2026-04-03T23:59:49.000Z</time></trkpt>
        <trkpt lat="29.545406" lon="104.269247"><ele>502.62927</ele><time>2026-04-03T23:59:55.000Z</time></trkpt>
        <trkpt lat="29.545409" lon="104.269304"><ele>501.36768</ele><time>2026-04-04T00:00:12.000Z</time></trkpt>
        <trkpt lat="29.545378" lon="104.269353"><ele>504.44287</ele><time>2026-04-04T00:00:18.000Z</time></trkpt>
        <trkpt lat="29.545386" lon="104.269405"><ele>506.68317</ele><time>2026-04-04T00:00:33.000Z</time></trkpt>
        <trkpt lat="29.545405" lon="104.269457"><ele>509.27435</ele><time>2026-04-04T00:00:46.000Z</time></trkpt>
        <trkpt lat="29.54538" lon="104.269502"><ele>511.84427</ele><time>2026-04-04T00:00:53.000Z</time></trkpt>
        <trkpt lat="29.545337" lon="104.269518"><ele>515.8977</ele><time>2026-04-04T00:01:05.000Z</time></trkpt>
        <trkpt lat="29.545283" lon="104.269509"><ele>515.2858</ele><time>2026-04-04T00:01:13.000Z</time></trkpt>
        <trkpt lat="29.545261" lon="104.269557"><ele>515.2287</ele><time>2026-04-04T00:01:20.000Z</time></trkpt>
        <trkpt lat="29.545223" lon="104.269586"><ele>514.6691</ele><time>2026-04-04T00:01:26.000Z</time></trkpt>
        <trkpt lat="29.545256" lon="104.269638"><ele>515.6906</ele><time>2026-04-04T00:01:32.000Z</time></trkpt>
        <trkpt lat="29.545232" lon="104.269685"><ele>517.1317</ele><time>2026-04-04T00:01:37.000Z</time></trkpt>
        <trkpt lat="29.54521" lon="104.269731"><ele>519.42285</ele><time>2026-04-04T00:01:46.000Z</time></trkpt>
        <trkpt lat="29.545228" lon="104.269784"><ele>521.6672</ele><time>2026-04-04T00:01:55.000Z</time></trkpt>
        <trkpt lat="29.54523" lon="104.269836"><ele>525.06384</ele><time>2026-04-04T00:02:29.000Z</time></trkpt>
        <trkpt lat="29.545215" lon="104.269892"><ele>526.3819</ele><time>2026-04-04T00:02:44.000Z</time></trkpt>
        <trkpt lat="29.545187" lon="104.269942"><ele>528.9532</ele><time>2026-04-04T00:03:22.000Z</time></trkpt>
        <trkpt lat="29.545145" lon="104.269965"><ele>529.99994</ele><time>2026-04-04T00:03:39.000Z</time></trkpt>
        <trkpt lat="29.5451" lon="104.269999"><ele>529.88116</ele><time>2026-04-04T00:03:55.000Z</time></trkpt>
        <trkpt lat="29.545057" lon="104.270018"><ele>529.9505</ele><time>2026-04-04T00:03:59.000Z</time></trkpt>
        <trkpt lat="29.545008" lon="104.270034"><ele>530.90656</ele><time>2026-04-04T00:04:04.000Z</time></trkpt>
        <trkpt lat="29.54506" lon="104.270021"><ele>532.7739</ele><time>2026-04-04T00:04:23.000Z</time></trkpt>
        <trkpt lat="29.545111" lon="104.269999"><ele>531.77985</ele><time>2026-04-04T00:04:28.000Z</time></trkpt>
        <trkpt lat="29.545126" lon="104.270053"><ele>530.02997</ele><time>2026-04-04T00:04:35.000Z</time></trkpt>
        <trkpt lat="29.545166" lon="104.270093"><ele>530.102</ele><time>2026-04-04T00:04:43.000Z</time></trkpt>
        <trkpt lat="29.545207" lon="104.270125"><ele>529.6497</ele><time>2026-04-04T00:04:50.000Z</time></trkpt>
        <trkpt lat="29.545171" lon="104.270157"><ele>530.7068</ele><time>2026-04-04T00:04:57.000Z</time></trkpt>
        <trkpt lat="29.545125" lon="104.270183"><ele>532.2254</ele><time>2026-04-04T00:05:37.000Z</time></trkpt>
        <trkpt lat="29.545076" lon="104.270205"><ele>532.9698</ele><time>2026-04-04T00:05:43.000Z</time></trkpt>
        <trkpt lat="29.545033" lon="104.270225"><ele>534.3354</ele><time>2026-04-04T00:05:48.000Z</time></trkpt>
        <trkpt lat="29.544993" lon="104.270251"><ele>536.5454</ele><time>2026-04-04T00:05:55.000Z</time></trkpt>
        <trkpt lat="29.544947" lon="104.270256"><ele>537.1034</ele><time>2026-04-04T00:06:01.000Z</time></trkpt>
        <trkpt lat="29.5449" lon="104.270278"><ele>537.6004</ele><time>2026-04-04T00:06:07.000Z</time></trkpt>
        <trkpt lat="29.544856" lon="104.270288"><ele>537.55237</ele><time>2026-04-04T00:06:11.000Z</time></trkpt>
        <trkpt lat="29.544801" lon="104.270301"><ele>537.1811</ele><time>2026-04-04T00:06:16.000Z</time></trkpt>
        <trkpt lat="29.544745" lon="104.270306"><ele>537.04364</ele><time>2026-04-04T00:06:21.000Z</time></trkpt>
        <trkpt lat="29.544694" lon="104.270314"><ele>537.1296</ele><time>2026-04-04T00:06:30.000Z</time></trkpt>
        <trkpt lat="29.544636" lon="104.270295"><ele>537.5276</ele><time>2026-04-04T00:06:34.000Z</time></trkpt>
        <trkpt lat="29.544589" lon="104.270297"><ele>538.6988</ele><time>2026-04-04T00:06:38.000Z</time></trkpt>
        <trkpt lat="29.544547" lon="104.270317"><ele>539.2129</ele><time>2026-04-04T00:06:42.000Z</time></trkpt>
        <trkpt lat="29.544521" lon="104.270378"><ele>537.29456</ele><time>2026-04-04T00:06:54.000Z</time></trkpt>
        <trkpt lat="29.544501" lon="104.270313"><ele>537.03314</ele><time>2026-04-04T00:07:30.000Z</time></trkpt>
        <trkpt lat="29.544447" lon="104.270321"><ele>538.8591</ele><time>2026-04-04T00:07:36.000Z</time></trkpt>
        <trkpt lat="29.544402" lon="104.270312"><ele>540.68085</ele><time>2026-04-04T00:07:41.000Z</time></trkpt>
        <trkpt lat="29.544351" lon="104.270334"><ele>538.05774</ele><time>2026-04-04T00:07:45.000Z</time></trkpt>
        <trkpt lat="29.544302" lon="104.270322"><ele>538.72504</ele><time>2026-04-04T00:07:49.000Z</time></trkpt>
        <trkpt lat="29.544249" lon="104.270302"><ele>540.80133</ele><time>2026-04-04T00:07:55.000Z</time></trkpt>
        <trkpt lat="29.544196" lon="104.27031"><ele>541.89923</ele><time>2026-04-04T00:08:00.000Z</time></trkpt>
        <trkpt lat="29.544146" lon="104.270312"><ele>543.8923</ele><time>2026-04-04T00:08:05.000Z</time></trkpt>
        <trkpt lat="29.544093" lon="104.270307"><ele>545.77344</ele><time>2026-04-04T00:08:10.000Z</time></trkpt>
        <trkpt lat="29.544042" lon="104.270311"><ele>549.41626</ele><time>2026-04-04T00:08:14.000Z</time></trkpt>
        <trkpt lat="29.543992" lon="104.270312"><ele>550.7326</ele><time>2026-04-04T00:08:18.000Z</time></trkpt>
        <trkpt lat="29.543939" lon="104.270317"><ele>552.6021</ele><time>2026-04-04T00:08:23.000Z</time></trkpt>
        <trkpt lat="29.543892" lon="104.270319"><ele>553.26074</ele><time>2026-04-04T00:08:28.000Z</time></trkpt>
        <trkpt lat="29.543847" lon="104.270331"><ele>553.5078</ele><time>2026-04-04T00:08:32.000Z</time></trkpt>
        <trkpt lat="29.543796" lon="104.270348"><ele>553.1529</ele><time>2026-04-04T00:08:37.000Z</time></trkpt>
        <trkpt lat="29.543756" lon="104.270372"><ele>555.5713</ele><time>2026-04-04T00:08:41.000Z</time></trkpt>
        <trkpt lat="29.54371" lon="104.270365"><ele>555.83734</ele><time>2026-04-04T00:08:45.000Z</time></trkpt>
        <trkpt lat="29.543664" lon="104.270388"><ele>554.8522</ele><time>2026-04-04T00:08:51.000Z</time></trkpt>
        <trkpt lat="29.543608" lon="104.270383"><ele>557.27277</ele><time>2026-04-04T00:08:55.000Z</time></trkpt>
        <trkpt lat="29.543555" lon="104.270383"><ele>557.3089</ele><time>2026-04-04T00:08:59.000Z</time></trkpt>
        <trkpt lat="29.543508" lon="104.270386"><ele>558.35785</ele><time>2026-04-04T00:09:11.000Z</time></trkpt>
        <trkpt lat="29.543516" lon="104.270445"><ele>557.345</ele><time>2026-04-04T00:09:30.000Z</time></trkpt>
        <trkpt lat="29.543543" lon="104.270489"><ele>555.8516</ele><time>2026-04-04T00:09:34.000Z</time></trkpt>
        <trkpt lat="29.543582" lon="104.270461"><ele>554.9245</ele><time>2026-04-04T00:09:52.000Z</time></trkpt>
        <trkpt lat="29.543547" lon="104.270418"><ele>555.22266</ele><time>2026-04-04T00:10:08.000Z</time></trkpt>
        <trkpt lat="29.543586" lon="104.270387"><ele>556.89777</ele><time>2026-04-04T00:10:24.000Z</time></trkpt>
        <trkpt lat="29.543611" lon="104.270442"><ele>555.45233</ele><time>2026-04-04T00:10:30.000Z</time></trkpt>
        <trkpt lat="29.543577" lon="104.27049"><ele>553.1836</ele><time>2026-04-04T00:10:36.000Z</time></trkpt>
        <trkpt lat="29.543591" lon="104.270541"><ele>553.44</ele><time>2026-04-04T00:10:43.000Z</time></trkpt>
        <trkpt lat="29.543556" lon="104.270578"><ele>553.0209</ele><time>2026-04-04T00:10:50.000Z</time></trkpt>
        <trkpt lat="29.543533" lon="104.270631"><ele>550.7952</ele><time>2026-04-04T00:10:58.000Z</time></trkpt>
        <trkpt lat="29.543508" lon="104.270674"><ele>550.31946</ele><time>2026-04-04T00:11:37.000Z</time></trkpt>
        <trkpt lat="29.543464" lon="104.270704"><ele>552.79065</ele><time>2026-04-04T00:13:33.000Z</time></trkpt>
        <trkpt lat="29.543438" lon="104.270749"><ele>550.85596</ele><time>2026-04-04T00:13:39.000Z</time></trkpt>
        <trkpt lat="29.543399" lon="104.270775"><ele>550.2971</ele><time>2026-04-04T00:13:45.000Z</time></trkpt>
        <trkpt lat="29.543371" lon="104.270832"><ele>550.45703</ele><time>2026-04-04T00:13:54.000Z</time></trkpt>
        <trkpt lat="29.543328" lon="104.270855"><ele>548.6453</ele><time>2026-04-04T00:14:05.000Z</time></trkpt>
        <trkpt lat="29.543285" lon="104.270887"><ele>549.9907</ele><time>2026-04-04T00:14:09.000Z</time></trkpt>
        <trkpt lat="29.543244" lon="104.270916"><ele>549.21375</ele><time>2026-04-04T00:14:13.000Z</time></trkpt>
        <trkpt lat="29.54322" lon="104.270965"><ele>548.3212</ele><time>2026-04-04T00:14:21.000Z</time></trkpt>
        <trkpt lat="29.543187" lon="104.271004"><ele>548.61584</ele><time>2026-04-04T00:14:29.000Z</time></trkpt>
        <trkpt lat="29.543173" lon="104.271057"><ele>548.2206</ele><time>2026-04-04T00:14:38.000Z</time></trkpt>
        <trkpt lat="29.543146" lon="104.271101"><ele>547.67706</ele><time>2026-04-04T00:14:46.000Z</time></trkpt>
        <trkpt lat="29.543128" lon="104.271153"><ele>545.9563</ele><time>2026-04-04T00:15:02.000Z</time></trkpt>
        <trkpt lat="29.543101" lon="104.271194"><ele>545.2273</ele><time>2026-04-04T00:15:24.000Z</time></trkpt>
        <trkpt lat="29.543068" lon="104.271232"><ele>545.5309</ele><time>2026-04-04T00:16:54.000Z</time></trkpt>
        <trkpt lat="29.543025" lon="104.271252"><ele>543.8068</ele><time>2026-04-04T00:17:10.000Z</time></trkpt>
        <trkpt lat="29.542987" lon="104.271282"><ele>544.89813</ele><time>2026-04-04T00:17:38.000Z</time></trkpt>
        <trkpt lat="29.542973" lon="104.271336"><ele>544.26825</ele><time>2026-04-04T00:17:52.000Z</time></trkpt>
        <trkpt lat="29.542951" lon="104.271385"><ele>544.2569</ele><time>2026-04-04T00:17:58.000Z</time></trkpt>
        <trkpt lat="29.542936" lon="104.271437"><ele>544.1251</ele><time>2026-04-04T00:18:06.000Z</time></trkpt>
        <trkpt lat="29.542953" lon="104.271489"><ele>543.97156</ele><time>2026-04-04T00:18:11.000Z</time></trkpt>
        <trkpt lat="29.54296" lon="104.27154"><ele>542.91754</ele><time>2026-04-04T00:18:26.000Z</time></trkpt>
        <trkpt lat="29.543008" lon="104.271546"><ele>544.42395</ele><time>2026-04-04T00:19:15.000Z</time></trkpt>
        <trkpt lat="29.543054" lon="104.271543"><ele>543.86774</ele><time>2026-04-04T00:20:02.000Z</time></trkpt>
        <trkpt lat="29.543056" lon="104.271491"><ele>543.3717</ele><time>2026-04-04T00:20:19.000Z</time></trkpt>
        <trkpt lat="29.543104" lon="104.271513"><ele>540.80035</ele><time>2026-04-04T00:20:31.000Z</time></trkpt>
        <trkpt lat="29.54312" lon="104.271565"><ele>540.4562</ele><time>2026-04-04T00:20:36.000Z</time></trkpt>
        <trkpt lat="29.543071" lon="104.27157"><ele>539.996</ele><time>2026-04-04T00:20:40.000Z</time></trkpt>
        <trkpt lat="29.543114" lon="104.271595"><ele>539.01105</ele><time>2026-04-04T00:20:44.000Z</time></trkpt>
        <trkpt lat="29.543145" lon="104.271636"><ele>538.757</ele><time>2026-04-04T00:20:48.000Z</time></trkpt>
        <trkpt lat="29.543187" lon="104.271663"><ele>538.5175</ele><time>2026-04-04T00:20:52.000Z</time></trkpt>
        <trkpt lat="29.543229" lon="104.271698"><ele>541.11005</ele><time>2026-04-04T00:21:01.000Z</time></trkpt>
        <trkpt lat="29.543277" lon="104.271724"><ele>541.26544</ele><time>2026-04-04T00:21:15.000Z</time></trkpt>
        <trkpt lat="29.543318" lon="104.271745"><ele>542.02936</ele><time>2026-04-04T00:21:21.000Z</time></trkpt>
        <trkpt lat="29.543366" lon="104.271741"><ele>542.2632</ele><time>2026-04-04T00:21:27.000Z</time></trkpt>
        <trkpt lat="29.543412" lon="104.271759"><ele>539.1119</ele><time>2026-04-04T00:21:38.000Z</time></trkpt>
        <trkpt lat="29.543456" lon="104.271779"><ele>537.14764</ele><time>2026-04-04T00:21:43.000Z</time></trkpt>
        <trkpt lat="29.543501" lon="104.2718"><ele>537.1234</ele><time>2026-04-04T00:21:49.000Z</time></trkpt>
        <trkpt lat="29.543555" lon="104.271803"><ele>537.2615</ele><time>2026-04-04T00:21:54.000Z</time></trkpt>
        <trkpt lat="29.543603" lon="104.271809"><ele>537.0411</ele><time>2026-04-04T00:21:59.000Z</time></trkpt>
        <trkpt lat="29.54365" lon="104.271834"><ele>536.6189</ele><time>2026-04-04T00:22:04.000Z</time></trkpt>
        <trkpt lat="29.5437" lon="104.27184"><ele>535.8807</ele><time>2026-04-04T00:22:08.000Z</time></trkpt>
        <trkpt lat="29.543748" lon="104.271841"><ele>535.52185</ele><time>2026-04-04T00:22:12.000Z</time></trkpt>
        <trkpt lat="29.54378" lon="104.271882"><ele>536.6632</ele><time>2026-04-04T00:22:17.000Z</time></trkpt>
        <trkpt lat="29.543822" lon="104.271924"><ele>536.1242</ele><time>2026-04-04T00:22:30.000Z</time></trkpt>
        <trkpt lat="29.543873" lon="104.271936"><ele>536.16895</ele><time>2026-04-04T00:22:34.000Z</time></trkpt>
        <trkpt lat="29.543927" lon="104.271951"><ele>536.65643</ele><time>2026-04-04T00:22:39.000Z</time></trkpt>
        <trkpt lat="29.543972" lon="104.271974"><ele>536.2043</ele><time>2026-04-04T00:22:43.000Z</time></trkpt>
        <trkpt lat="29.543962" lon="104.272029"><ele>535.33276</ele><time>2026-04-04T00:22:47.000Z</time></trkpt>
        <trkpt lat="29.543974" lon="104.272085"><ele>535.53723</ele><time>2026-04-04T00:22:58.000Z</time></trkpt>
        <trkpt lat="29.543972" lon="104.272149"><ele>536.05286</ele><time>2026-04-04T00:23:21.000Z</time></trkpt>
        <trkpt lat="29.543956" lon="104.272199"><ele>537.57074</ele><time>2026-04-04T00:23:28.000Z</time></trkpt>
        <trkpt lat="29.543928" lon="104.272242"><ele>538.43854</ele><time>2026-04-04T00:23:34.000Z</time></trkpt>
        <trkpt lat="29.543917" lon="104.272294"><ele>537.8876</ele><time>2026-04-04T00:23:40.000Z</time></trkpt>
        <trkpt lat="29.543901" lon="104.272344"><ele>536.8218</ele><time>2026-04-04T00:23:48.000Z</time></trkpt>
        <trkpt lat="29.543925" lon="104.272393"><ele>534.9119</ele><time>2026-04-04T00:23:56.000Z</time></trkpt>
        <trkpt lat="29.543968" lon="104.272365"><ele>533.59015</ele><time>2026-04-04T00:24:06.000Z</time></trkpt>
        <trkpt lat="29.543988" lon="104.272412"><ele>533.1829</ele><time>2026-04-04T00:24:38.000Z</time></trkpt>
        <trkpt lat="29.544035" lon="104.27244"><ele>535.2183</ele><time>2026-04-04T00:27:33.000Z</time></trkpt>
        <trkpt lat="29.544086" lon="104.272443"><ele>531.268</ele><time>2026-04-04T00:27:41.000Z</time></trkpt>
        <trkpt lat="29.544128" lon="104.272464"><ele>531.5337</ele><time>2026-04-04T00:27:48.000Z</time></trkpt>
        <trkpt lat="29.544156" lon="104.272505"><ele>526.9298</ele><time>2026-04-04T00:28:07.000Z</time></trkpt>
        <trkpt lat="29.544173" lon="104.27256"><ele>526.778</ele><time>2026-04-04T00:28:12.000Z</time></trkpt>
        <trkpt lat="29.544222" lon="104.27256"><ele>526.08734</ele><time>2026-04-04T00:28:24.000Z</time></trkpt>
        <trkpt lat="29.544277" lon="104.272556"><ele>526.77765</ele><time>2026-04-04T00:28:31.000Z</time></trkpt>
        <trkpt lat="29.544324" lon="104.272539"><ele>525.19965</ele><time>2026-04-04T00:28:37.000Z</time></trkpt>
        <trkpt lat="29.544374" lon="104.272521"><ele>522.074</ele><time>2026-04-04T00:28:45.000Z</time></trkpt>
        <trkpt lat="29.544418" lon="104.272536"><ele>522.6039</ele><time>2026-04-04T00:28:51.000Z</time></trkpt>
        <trkpt lat="29.544473" lon="104.272553"><ele>520.5507</ele><time>2026-04-04T00:29:02.000Z</time></trkpt>
        <trkpt lat="29.544521" lon="104.272559"><ele>518.8555</ele><time>2026-04-04T00:29:07.000Z</time></trkpt>
        <trkpt lat="29.544567" lon="104.272555"><ele>518.69495</ele><time>2026-04-04T00:29:11.000Z</time></trkpt>
        <trkpt lat="29.544615" lon="104.272571"><ele>518.24243</ele><time>2026-04-04T00:29:15.000Z</time></trkpt>
        <trkpt lat="29.544664" lon="104.272589"><ele>517.78156</ele><time>2026-04-04T00:29:18.000Z</time></trkpt>
        <trkpt lat="29.544715" lon="104.272619"><ele>516.1134</ele><time>2026-04-04T00:29:23.000Z</time></trkpt>
        <trkpt lat="29.54476" lon="104.272622"><ele>513.4929</ele><time>2026-04-04T00:29:28.000Z</time></trkpt>
        <trkpt lat="29.544813" lon="104.272619"><ele>512.56885</ele><time>2026-04-04T00:29:34.000Z</time></trkpt>
        <trkpt lat="29.544865" lon="104.272624"><ele>510.9469</ele><time>2026-04-04T00:29:40.000Z</time></trkpt>
        <trkpt lat="29.544911" lon="104.272634"><ele>509.57874</ele><time>2026-04-04T00:29:45.000Z</time></trkpt>
        <trkpt lat="29.544957" lon="104.27264"><ele>508.6929</ele><time>2026-04-04T00:29:49.000Z</time></trkpt>
        <trkpt lat="29.544969" lon="104.272704"><ele>508.36514</ele><time>2026-04-04T00:29:53.000Z</time></trkpt>
        <trkpt lat="29.544977" lon="104.272755"><ele>507.43054</ele><time>2026-04-04T00:29:57.000Z</time></trkpt>
        <trkpt lat="29.545023" lon="104.272768"><ele>507.2089</ele><time>2026-04-04T00:30:02.000Z</time></trkpt>
        <trkpt lat="29.545067" lon="104.272789"><ele>504.18793</ele><time>2026-04-04T00:30:09.000Z</time></trkpt>
        <trkpt lat="29.545113" lon="104.272789"><ele>502.88757</ele><time>2026-04-04T00:30:14.000Z</time></trkpt>
        <trkpt lat="29.545168" lon="104.272817"><ele>502.38245</ele><time>2026-04-04T00:30:18.000Z</time></trkpt>
        <trkpt lat="29.545196" lon="104.272863"><ele>498.95602</ele><time>2026-04-04T00:30:26.000Z</time></trkpt>
        <trkpt lat="29.545229" lon="104.272907"><ele>498.71774</ele><time>2026-04-04T00:30:35.000Z</time></trkpt>
        <trkpt lat="29.545272" lon="104.272891"><ele>497.54404</ele><time>2026-04-04T00:31:01.000Z</time></trkpt>
        <trkpt lat="29.545313" lon="104.272865"><ele>496.68286</ele><time>2026-04-04T00:31:05.000Z</time></trkpt>
        <trkpt lat="29.545366" lon="104.272852"><ele>498.3129</ele><time>2026-04-04T00:31:09.000Z</time></trkpt>
        <trkpt lat="29.54542" lon="104.272875"><ele>497.85773</ele><time>2026-04-04T00:31:14.000Z</time></trkpt>
        <trkpt lat="29.545452" lon="104.272916"><ele>496.78165</ele><time>2026-04-04T00:31:19.000Z</time></trkpt>
        <trkpt lat="29.545434" lon="104.27299"><ele>492.56677</ele><time>2026-04-04T00:31:29.000Z</time></trkpt>
        <trkpt lat="29.545415" lon="104.273039"><ele>491.35287</ele><time>2026-04-04T00:31:33.000Z</time></trkpt>
        <trkpt lat="29.545364" lon="104.27306"><ele>492.37988</ele><time>2026-04-04T00:31:37.000Z</time></trkpt>
        <trkpt lat="29.545321" lon="104.273087"><ele>493.6499</ele><time>2026-04-04T00:31:40.000Z</time></trkpt>
        <trkpt lat="29.545283" lon="104.273125"><ele>493.66516</ele><time>2026-04-04T00:31:45.000Z</time></trkpt>
        <trkpt lat="29.545228" lon="104.273128"><ele>492.84076</ele><time>2026-04-04T00:31:50.000Z</time></trkpt>
        <trkpt lat="29.545196" lon="104.273173"><ele>490.92715</ele><time>2026-04-04T00:31:55.000Z</time></trkpt>
        <trkpt lat="29.545153" lon="104.273188"><ele>490.20135</ele><time>2026-04-04T00:32:00.000Z</time></trkpt>
        <trkpt lat="29.545183" lon="104.273232"><ele>487.56555</ele><time>2026-04-04T00:32:08.000Z</time></trkpt>
        <trkpt lat="29.545224" lon="104.273265"><ele>486.544</ele><time>2026-04-04T00:32:16.000Z</time></trkpt>
        <trkpt lat="29.545267" lon="104.273282"><ele>486.5144</ele><time>2026-04-04T00:32:20.000Z</time></trkpt>
        <trkpt lat="29.545319" lon="104.273263"><ele>486.81482</ele><time>2026-04-04T00:32:26.000Z</time></trkpt>
        <trkpt lat="29.545363" lon="104.273293"><ele>487.8185</ele><time>2026-04-04T00:32:30.000Z</time></trkpt>
        <trkpt lat="29.545403" lon="104.27332"><ele>489.0538</ele><time>2026-04-04T00:32:34.000Z</time></trkpt>
        <trkpt lat="29.54545" lon="104.27334"><ele>488.72125</ele><time>2026-04-04T00:32:38.000Z</time></trkpt>
        <trkpt lat="29.545487" lon="104.27337"><ele>488.44226</ele><time>2026-04-04T00:32:42.000Z</time></trkpt>
        <trkpt lat="29.545527" lon="104.273402"><ele>488.0807</ele><time>2026-04-04T00:32:46.000Z</time></trkpt>
        <trkpt lat="29.545562" lon="104.273437"><ele>488.243</ele><time>2026-04-04T00:32:50.000Z</time></trkpt>
        <trkpt lat="29.545603" lon="104.273472"><ele>488.26767</ele><time>2026-04-04T00:32:55.000Z</time></trkpt>
        <trkpt lat="29.545648" lon="104.273507"><ele>488.2872</ele><time>2026-04-04T00:33:00.000Z</time></trkpt>
        <trkpt lat="29.545686" lon="104.273541"><ele>488.13013</ele><time>2026-04-04T00:33:04.000Z</time></trkpt>
        <trkpt lat="29.545738" lon="104.273564"><ele>488.19177</ele><time>2026-04-04T00:33:08.000Z</time></trkpt>
        <trkpt lat="29.54578" lon="104.273591"><ele>487.956</ele><time>2026-04-04T00:33:13.000Z</time></trkpt>
        <trkpt lat="29.545836" lon="104.273586"><ele>489.07162</ele><time>2026-04-04T00:33:19.000Z</time></trkpt>
        <trkpt lat="29.545888" lon="104.273581"><ele>489.15543</ele><time>2026-04-04T00:33:24.000Z</time></trkpt>
        <trkpt lat="29.545931" lon="104.2736"><ele>489.28934</ele><time>2026-04-04T00:33:29.000Z</time></trkpt>
        <trkpt lat="29.545978" lon="104.273589"><ele>487.39447</ele><time>2026-04-04T00:33:40.000Z</time></trkpt>
        <trkpt lat="29.546028" lon="104.273602"><ele>486.60797</ele><time>2026-04-04T00:33:46.000Z</time></trkpt>
        <trkpt lat="29.546077" lon="104.273623"><ele>486.9113</ele><time>2026-04-04T00:33:51.000Z</time></trkpt>
        <trkpt lat="29.546095" lon="104.273683"><ele>485.29706</ele><time>2026-04-04T00:33:57.000Z</time></trkpt>
        <trkpt lat="29.546114" lon="104.273742"><ele>486.03873</ele><time>2026-04-04T00:34:02.000Z</time></trkpt>
        <trkpt lat="29.546128" lon="104.273801"><ele>486.1248</ele><time>2026-04-04T00:34:07.000Z</time></trkpt>
        <trkpt lat="29.546142" lon="104.273859"><ele>487.535</ele><time>2026-04-04T00:34:12.000Z</time></trkpt>
        <trkpt lat="29.546151" lon="104.273911"><ele>487.6912</ele><time>2026-04-04T00:34:17.000Z</time></trkpt>
        <trkpt lat="29.546149" lon="104.273969"><ele>489.00937</ele><time>2026-04-04T00:34:28.000Z</time></trkpt>
        <trkpt lat="29.546133" lon="104.274021"><ele>490.83093</ele><time>2026-04-04T00:34:33.000Z</time></trkpt>
        <trkpt lat="29.546116" lon="104.274071"><ele>492.85587</ele><time>2026-04-04T00:34:38.000Z</time></trkpt>
        <trkpt lat="29.546083" lon="104.274111"><ele>494.70627</ele><time>2026-04-04T00:34:44.000Z</time></trkpt>
        <trkpt lat="29.546048" lon="104.274147"><ele>495.83755</ele><time>2026-04-04T00:34:49.000Z</time></trkpt>
        <trkpt lat="29.546015" lon="104.274185"><ele>497.799</ele><time>2026-04-04T00:34:54.000Z</time></trkpt>
        <trkpt lat="29.54598" lon="104.274229"><ele>498.9429</ele><time>2026-04-04T00:35:03.000Z</time></trkpt>
        <trkpt lat="29.545937" lon="104.274264"><ele>498.9468</ele><time>2026-04-04T00:35:10.000Z</time></trkpt>
        <trkpt lat="29.545893" lon="104.274303"><ele>499.06723</ele><time>2026-04-04T00:35:18.000Z</time></trkpt>
        <trkpt lat="29.545842" lon="104.274319"><ele>498.91656</ele><time>2026-04-04T00:35:25.000Z</time></trkpt>
        <trkpt lat="29.545802" lon="104.274346"><ele>501.12173</ele><time>2026-04-04T00:35:30.000Z</time></trkpt>
        <trkpt lat="29.545759" lon="104.274372"><ele>501.9436</ele><time>2026-04-04T00:35:35.000Z</time></trkpt>
        <trkpt lat="29.545722" lon="104.274403"><ele>501.65375</ele><time>2026-04-04T00:35:41.000Z</time></trkpt>
        <trkpt lat="29.545766" lon="104.274415"><ele>502.7813</ele><time>2026-04-04T00:35:52.000Z</time></trkpt>
        <trkpt lat="29.545821" lon="104.274423"><ele>502.72876</ele><time>2026-04-04T00:36:00.000Z</time></trkpt>
        <trkpt lat="29.545866" lon="104.274462"><ele>503.30426</ele><time>2026-04-04T00:36:05.000Z</time></trkpt>
        <trkpt lat="29.545885" lon="104.274512"><ele>501.51776</ele><time>2026-04-04T00:36:10.000Z</time></trkpt>
        <trkpt lat="29.545903" lon="104.27457"><ele>499.82065</ele><time>2026-04-04T00:36:15.000Z</time></trkpt>
        <trkpt lat="29.545888" lon="104.274625"><ele>497.3552</ele><time>2026-04-04T00:36:22.000Z</time></trkpt>
        <trkpt lat="29.545909" lon="104.274678"><ele>495.36533</ele><time>2026-04-04T00:36:28.000Z</time></trkpt>
        <trkpt lat="29.545916" lon="104.274731"><ele>495.60434</ele><time>2026-04-04T00:36:31.000Z</time></trkpt>
        <trkpt lat="29.545888" lon="104.274775"><ele>495.1274</ele><time>2026-04-04T00:36:40.000Z</time></trkpt>
        <trkpt lat="29.545886" lon="104.274837"><ele>495.4838</ele><time>2026-04-04T00:37:16.000Z</time></trkpt>
        <trkpt lat="29.545907" lon="104.274884"><ele>494.62735</ele><time>2026-04-04T00:37:37.000Z</time></trkpt>
        <trkpt lat="29.545883" lon="104.274929"><ele>492.01755</ele><time>2026-04-04T00:37:51.000Z</time></trkpt>
        <trkpt lat="29.545853" lon="104.27497"><ele>490.10413</ele><time>2026-04-04T00:38:08.000Z</time></trkpt>
        <trkpt lat="29.545849" lon="104.275025"><ele>489.41406</ele><time>2026-04-04T00:38:23.000Z</time></trkpt>
        <trkpt lat="29.545878" lon="104.275069"><ele>486.836</ele><time>2026-04-04T00:38:35.000Z</time></trkpt>
        <trkpt lat="29.545904" lon="104.275124"><ele>486.06128</ele><time>2026-04-04T00:38:42.000Z</time></trkpt>
        <trkpt lat="29.545851" lon="104.275129"><ele>484.16745</ele><time>2026-04-04T00:38:48.000Z</time></trkpt>
        <trkpt lat="29.545806" lon="104.275155"><ele>483.37375</ele><time>2026-04-04T00:38:54.000Z</time></trkpt>
        <trkpt lat="29.545757" lon="104.275147"><ele>482.93115</ele><time>2026-04-04T00:38:59.000Z</time></trkpt>
        <trkpt lat="29.54571" lon="104.275129"><ele>485.9718</ele><time>2026-04-04T00:39:04.000Z</time></trkpt>
        <trkpt lat="29.545656" lon="104.275117"><ele>485.29547</ele><time>2026-04-04T00:39:08.000Z</time></trkpt>
        <trkpt lat="29.545595" lon="104.275119"><ele>486.09607</ele><time>2026-04-04T00:39:12.000Z</time></trkpt>
        <trkpt lat="29.545543" lon="104.275122"><ele>485.92007</ele><time>2026-04-04T00:39:19.000Z</time></trkpt>
        <trkpt lat="29.545529" lon="104.275069"><ele>485.70685</ele><time>2026-04-04T00:39:26.000Z</time></trkpt>
        <trkpt lat="29.545477" lon="104.275075"><ele>487.47202</ele><time>2026-04-04T00:39:32.000Z</time></trkpt>
        <trkpt lat="29.545437" lon="104.275108"><ele>487.00488</ele><time>2026-04-04T00:39:39.000Z</time></trkpt>
        <trkpt lat="29.54539" lon="104.275104"><ele>487.18668</ele><time>2026-04-04T00:39:50.000Z</time></trkpt>
        <trkpt lat="29.545339" lon="104.275089"><ele>488.53522</ele><time>2026-04-04T00:39:56.000Z</time></trkpt>
        <trkpt lat="29.545294" lon="104.275074"><ele>489.93036</ele><time>2026-04-04T00:40:01.000Z</time></trkpt>
        <trkpt lat="29.545253" lon="104.275112"><ele>488.37555</ele><time>2026-04-04T00:40:14.000Z</time></trkpt>
        <trkpt lat="29.545277" lon="104.275167"><ele>487.21848</ele><time>2026-04-04T00:40:20.000Z</time></trkpt>
        <trkpt lat="29.545231" lon="104.2752"><ele>485.04318</ele><time>2026-04-04T00:40:29.000Z</time></trkpt>
        <trkpt lat="29.545189" lon="104.275233"><ele>484.20844</ele><time>2026-04-04T00:40:34.000Z</time></trkpt>
        <trkpt lat="29.545158" lon="104.27528"><ele>484.2875</ele><time>2026-04-04T00:40:45.000Z</time></trkpt>
        <trkpt lat="29.545106" lon="104.275296"><ele>483.99573</ele><time>2026-04-04T00:40:51.000Z</time></trkpt>
        <trkpt lat="29.545064" lon="104.27533"><ele>484.79556</ele><time>2026-04-04T00:40:56.000Z</time></trkpt>
        <trkpt lat="29.545028" lon="104.275365"><ele>484.23798</ele><time>2026-04-04T00:41:01.000Z</time></trkpt>
        <trkpt lat="29.545002" lon="104.275421"><ele>482.84866</ele><time>2026-04-04T00:41:06.000Z</time></trkpt>
        <trkpt lat="29.544969" lon="104.27546"><ele>482.18973</ele><time>2026-04-04T00:41:10.000Z</time></trkpt>
        <trkpt lat="29.544967" lon="104.27553"><ele>480.56622</ele><time>2026-04-04T00:41:17.000Z</time></trkpt>
        <trkpt lat="29.544995" lon="104.275588"><ele>481.08</ele><time>2026-04-04T00:41:21.000Z</time></trkpt>
        <trkpt lat="29.54498" lon="104.275643"><ele>482.0793</ele><time>2026-04-04T00:41:25.000Z</time></trkpt>
        <trkpt lat="29.544966" lon="104.275698"><ele>481.5679</ele><time>2026-04-04T00:41:32.000Z</time></trkpt>
        <trkpt lat="29.544966" lon="104.275756"><ele>483.30276</ele><time>2026-04-04T00:41:37.000Z</time></trkpt>
        <trkpt lat="29.544955" lon="104.275813"><ele>485.94876</ele><time>2026-04-04T00:41:42.000Z</time></trkpt>
        <trkpt lat="29.544958" lon="104.275868"><ele>486.35913</ele><time>2026-04-04T00:41:49.000Z</time></trkpt>
        <trkpt lat="29.544964" lon="104.275925"><ele>488.10788</ele><time>2026-04-04T00:41:57.000Z</time></trkpt>
        <trkpt lat="29.544972" lon="104.275978"><ele>489.91898</ele><time>2026-04-04T00:42:01.000Z</time></trkpt>
        <trkpt lat="29.544993" lon="104.276031"><ele>491.57474</ele><time>2026-04-04T00:42:17.000Z</time></trkpt>
        <trkpt lat="29.545018" lon="104.276085"><ele>491.6142</ele><time>2026-04-04T00:42:23.000Z</time></trkpt>
        <trkpt lat="29.545041" lon="104.276131"><ele>491.4678</ele><time>2026-04-04T00:42:28.000Z</time></trkpt>
        <trkpt lat="29.545042" lon="104.276197"><ele>492.45236</ele><time>2026-04-04T00:42:33.000Z</time></trkpt>
        <trkpt lat="29.545025" lon="104.276245"><ele>492.9491</ele><time>2026-04-04T00:42:38.000Z</time></trkpt>
        <trkpt lat="29.545027" lon="104.276299"><ele>493.74054</ele><time>2026-04-04T00:42:44.000Z</time></trkpt>
        <trkpt lat="29.545074" lon="104.276305"><ele>495.00143</ele><time>2026-04-04T00:42:50.000Z</time></trkpt>
        <trkpt lat="29.545117" lon="104.276272"><ele>495.72736</ele><time>2026-04-04T00:42:56.000Z</time></trkpt>
        <trkpt lat="29.545165" lon="104.276245"><ele>496.69205</ele><time>2026-04-04T00:43:01.000Z</time></trkpt>
        <trkpt lat="29.545211" lon="104.276229"><ele>497.4625</ele><time>2026-04-04T00:43:06.000Z</time></trkpt>
        <trkpt lat="29.545263" lon="104.276243"><ele>497.22623</ele><time>2026-04-04T00:43:10.000Z</time></trkpt>
        <trkpt lat="29.545314" lon="104.276256"><ele>497.36728</ele><time>2026-04-04T00:43:14.000Z</time></trkpt>
        <trkpt lat="29.545367" lon="104.276275"><ele>496.681</ele><time>2026-04-04T00:43:19.000Z</time></trkpt>
        <trkpt lat="29.545399" lon="104.276317"><ele>496.741</ele><time>2026-04-04T00:43:24.000Z</time></trkpt>
        <trkpt lat="29.545427" lon="104.276368"><ele>496.92596</ele><time>2026-04-04T00:43:29.000Z</time></trkpt>
        <trkpt lat="29.545429" lon="104.276421"><ele>498.11356</ele><time>2026-04-04T00:43:34.000Z</time></trkpt>
        <trkpt lat="29.545434" lon="104.276478"><ele>499.40924</ele><time>2026-04-04T00:43:39.000Z</time></trkpt>
        <trkpt lat="29.545434" lon="104.27654"><ele>499.5959</ele><time>2026-04-04T00:43:43.000Z</time></trkpt>
        <trkpt lat="29.545421" lon="104.276595"><ele>498.60333</ele><time>2026-04-04T00:43:47.000Z</time></trkpt>
        <trkpt lat="29.54539" lon="104.276658"><ele>498.67538</ele><time>2026-04-04T00:43:52.000Z</time></trkpt>
        <trkpt lat="29.545359" lon="104.276705"><ele>498.69888</ele><time>2026-04-04T00:43:56.000Z</time></trkpt>
        <trkpt lat="29.545327" lon="104.276754"><ele>498.96198</ele><time>2026-04-04T00:44:00.000Z</time></trkpt>
        <trkpt lat="29.545297" lon="104.276805"><ele>500.06412</ele><time>2026-04-04T00:44:05.000Z</time></trkpt>
        <trkpt lat="29.545267" lon="104.276846"><ele>500.75958</ele><time>2026-04-04T00:44:09.000Z</time></trkpt>
        <trkpt lat="29.54524" lon="104.276889"><ele>501.6566</ele><time>2026-04-04T00:44:14.000Z</time></trkpt>
        <trkpt lat="29.545206" lon="104.276941"><ele>501.80414</ele><time>2026-04-04T00:44:19.000Z</time></trkpt>
        <trkpt lat="29.545172" lon="104.276993"><ele>502.73547</ele><time>2026-04-04T00:44:24.000Z</time></trkpt>
        <trkpt lat="29.545133" lon="104.277027"><ele>504.40872</ele><time>2026-04-04T00:44:29.000Z</time></trkpt>
        <trkpt lat="29.545108" lon="104.277074"><ele>505.27725</ele><time>2026-04-04T00:44:33.000Z</time></trkpt>
        <trkpt lat="29.54511" lon="104.277127"><ele>505.0375</ele><time>2026-04-04T00:44:37.000Z</time></trkpt>
        <trkpt lat="29.54511" lon="104.277183"><ele>505.22485</ele><time>2026-04-04T00:44:42.000Z</time></trkpt>
        <trkpt lat="29.545111" lon="104.27724"><ele>506.06195</ele><time>2026-04-04T00:44:46.000Z</time></trkpt>
        <trkpt lat="29.545087" lon="104.277292"><ele>506.6931</ele><time>2026-04-04T00:44:50.000Z</time></trkpt>
        <trkpt lat="29.545078" lon="104.27735"><ele>506.84735</ele><time>2026-04-04T00:44:56.000Z</time></trkpt>
        <trkpt lat="29.545084" lon="104.277415"><ele>507.7447</ele><time>2026-04-04T00:45:02.000Z</time></trkpt>
        <trkpt lat="29.545089" lon="104.277472"><ele>509.13712</ele><time>2026-04-04T00:45:06.000Z</time></trkpt>
        <trkpt lat="29.545089" lon="104.27753"><ele>510.12317</ele><time>2026-04-04T00:45:10.000Z</time></trkpt>
        <trkpt lat="29.545095" lon="104.277582"><ele>510.3462</ele><time>2026-04-04T00:45:14.000Z</time></trkpt>
        <trkpt lat="29.545123" lon="104.277643"><ele>510.7891</ele><time>2026-04-04T00:45:19.000Z</time></trkpt>
        <trkpt lat="29.545141" lon="104.277699"><ele>511.70944</ele><time>2026-04-04T00:45:24.000Z</time></trkpt>
        <trkpt lat="29.545161" lon="104.277758"><ele>512.17316</ele><time>2026-04-04T00:45:29.000Z</time></trkpt>
        <trkpt lat="29.545184" lon="104.277811"><ele>512.671</ele><time>2026-04-04T00:45:33.000Z</time></trkpt>
        <trkpt lat="29.545226" lon="104.277849"><ele>512.4036</ele><time>2026-04-04T00:45:37.000Z</time></trkpt>
        <trkpt lat="29.545259" lon="104.277886"><ele>513.1256</ele><time>2026-04-04T00:45:41.000Z</time></trkpt>
        <trkpt lat="29.545299" lon="104.277925"><ele>513.6151</ele><time>2026-04-04T00:45:45.000Z</time></trkpt>
        <trkpt lat="29.545323" lon="104.277979"><ele>514.7061</ele><time>2026-04-04T00:45:49.000Z</time></trkpt>
        <trkpt lat="29.545346" lon="104.27803"><ele>517.59064</ele><time>2026-04-04T00:45:54.000Z</time></trkpt>
        <trkpt lat="29.545373" lon="104.278077"><ele>516.9545</ele><time>2026-04-04T00:45:59.000Z</time></trkpt>
        <trkpt lat="29.545343" lon="104.278124"><ele>517.6277</ele><time>2026-04-04T00:46:06.000Z</time></trkpt>
        <trkpt lat="29.545314" lon="104.278177"><ele>518.17377</ele><time>2026-04-04T00:46:11.000Z</time></trkpt>
        <trkpt lat="29.54528" lon="104.278226"><ele>519.80255</ele><time>2026-04-04T00:46:16.000Z</time></trkpt>
        <trkpt lat="29.54525" lon="104.278269"><ele>520.2974</ele><time>2026-04-04T00:46:20.000Z</time></trkpt>
        <trkpt lat="29.545214" lon="104.278318"><ele>520.48627</ele><time>2026-04-04T00:46:24.000Z</time></trkpt>
        <trkpt lat="29.54517" lon="104.27834"><ele>521.1687</ele><time>2026-04-04T00:46:28.000Z</time></trkpt>
        <trkpt lat="29.545128" lon="104.278374"><ele>522.49274</ele><time>2026-04-04T00:46:33.000Z</time></trkpt>
        <trkpt lat="29.545095" lon="104.278414"><ele>522.6129</ele><time>2026-04-04T00:46:38.000Z</time></trkpt>
        <trkpt lat="29.545072" lon="104.278464"><ele>524.5781</ele><time>2026-04-04T00:46:53.000Z</time></trkpt>
        <trkpt lat="29.545096" lon="104.278522"><ele>523.7371</ele><time>2026-04-04T00:46:58.000Z</time></trkpt>
        <trkpt lat="29.545119" lon="104.278568"><ele>525.0495</ele><time>2026-04-04T00:47:01.000Z</time></trkpt>
        <trkpt lat="29.545135" lon="104.278618"><ele>525.42834</ele><time>2026-04-04T00:47:05.000Z</time></trkpt>
        <trkpt lat="29.545159" lon="104.278678"><ele>526.3101</ele><time>2026-04-04T00:47:09.000Z</time></trkpt>
        <trkpt lat="29.545183" lon="104.278734"><ele>527.11676</ele><time>2026-04-04T00:47:14.000Z</time></trkpt>
        <trkpt lat="29.545196" lon="104.27879"><ele>525.3487</ele><time>2026-04-04T00:47:35.000Z</time></trkpt>
        <trkpt lat="29.545217" lon="104.27884"><ele>524.319</ele><time>2026-04-04T00:47:39.000Z</time></trkpt>
        <trkpt lat="29.545255" lon="104.278874"><ele>523.8991</ele><time>2026-04-04T00:47:43.000Z</time></trkpt>
        <trkpt lat="29.545278" lon="104.278924"><ele>523.9561</ele><time>2026-04-04T00:47:48.000Z</time></trkpt>
        <trkpt lat="29.54532" lon="104.278963"><ele>524.1901</ele><time>2026-04-04T00:47:52.000Z</time></trkpt>
        <trkpt lat="29.545355" lon="104.27901"><ele>523.13446</ele><time>2026-04-04T00:47:56.000Z</time></trkpt>
        <trkpt lat="29.545404" lon="104.279045"><ele>523.4409</ele><time>2026-04-04T00:48:01.000Z</time></trkpt>
        <trkpt lat="29.54546" lon="104.279074"><ele>522.0157</ele><time>2026-04-04T00:48:05.000Z</time></trkpt>
        <trkpt lat="29.545505" lon="104.279092"><ele>521.3341</ele><time>2026-04-04T00:48:09.000Z</time></trkpt>
        <trkpt lat="29.545554" lon="104.279113"><ele>520.5215</ele><time>2026-04-04T00:48:13.000Z</time></trkpt>
        <trkpt lat="29.545597" lon="104.27913"><ele>518.9478</ele><time>2026-04-04T00:48:16.000Z</time></trkpt>
        <trkpt lat="29.545637" lon="104.279184"><ele>518.81226</ele><time>2026-04-04T00:48:20.000Z</time></trkpt>
        <trkpt lat="29.545675" lon="104.279216"><ele>517.55005</ele><time>2026-04-04T00:48:23.000Z</time></trkpt>
        <trkpt lat="29.545719" lon="104.279229"><ele>518.0722</ele><time>2026-04-04T00:48:28.000Z</time></trkpt>
        <trkpt lat="29.545773" lon="104.27922"><ele>519.15985</ele><time>2026-04-04T00:48:32.000Z</time></trkpt>
        <trkpt lat="29.545826" lon="104.279204"><ele>519.36053</ele><time>2026-04-04T00:48:36.000Z</time></trkpt>
        <trkpt lat="29.545865" lon="104.279174"><ele>520.9179</ele><time>2026-04-04T00:48:40.000Z</time></trkpt>
        <trkpt lat="29.545911" lon="104.279164"><ele>519.53094</ele><time>2026-04-04T00:48:44.000Z</time></trkpt>
        <trkpt lat="29.545962" lon="104.279136"><ele>519.7295</ele><time>2026-04-04T00:48:48.000Z</time></trkpt>
        <trkpt lat="29.546015" lon="104.279114"><ele>519.939</ele><time>2026-04-04T00:48:52.000Z</time></trkpt>
        <trkpt lat="29.546063" lon="104.279097"><ele>519.2485</ele><time>2026-04-04T00:48:56.000Z</time></trkpt>
        <trkpt lat="29.546101" lon="104.279049"><ele>519.1522</ele><time>2026-04-04T00:49:00.000Z</time></trkpt>
        <trkpt lat="29.546138" lon="104.279003"><ele>519.7206</ele><time>2026-04-04T00:49:04.000Z</time></trkpt>
        <trkpt lat="29.546176" lon="104.27896"><ele>520.0687</ele><time>2026-04-04T00:49:08.000Z</time></trkpt>
        <trkpt lat="29.546236" lon="104.27896"><ele>519.7369</ele><time>2026-04-04T00:49:12.000Z</time></trkpt>
        <trkpt lat="29.546288" lon="104.27897"><ele>518.8424</ele><time>2026-04-04T00:49:16.000Z</time></trkpt>
        <trkpt lat="29.546345" lon="104.278965"><ele>518.4465</ele><time>2026-04-04T00:49:20.000Z</time></trkpt>
        <trkpt lat="29.546396" lon="104.278986"><ele>518.5181</ele><time>2026-04-04T00:49:24.000Z</time></trkpt>
        <trkpt lat="29.546438" lon="104.279013"><ele>519.019</ele><time>2026-04-04T00:49:28.000Z</time></trkpt>
        <trkpt lat="29.546482" lon="104.27906"><ele>518.605</ele><time>2026-04-04T00:49:32.000Z</time></trkpt>
        <trkpt lat="29.546516" lon="104.279106"><ele>518.7473</ele><time>2026-04-04T00:49:36.000Z</time></trkpt>
        <trkpt lat="29.546535" lon="104.279163"><ele>519.1091</ele><time>2026-04-04T00:49:41.000Z</time></trkpt>
        <trkpt lat="29.546543" lon="104.279225"><ele>519.48065</ele><time>2026-04-04T00:49:46.000Z</time></trkpt>
        <trkpt lat="29.546545" lon="104.27929"><ele>521.0756</ele><time>2026-04-04T00:49:51.000Z</time></trkpt>
        <trkpt lat="29.546557" lon="104.279347"><ele>521.9419</ele><time>2026-04-04T00:49:55.000Z</time></trkpt>
        <trkpt lat="29.546561" lon="104.279407"><ele>521.1826</ele><time>2026-04-04T00:49:59.000Z</time></trkpt>
        <trkpt lat="29.546579" lon="104.279455"><ele>520.70856</ele><time>2026-04-04T00:50:02.000Z</time></trkpt>
        <trkpt lat="29.54662" lon="104.279489"><ele>519.76447</ele><time>2026-04-04T00:50:06.000Z</time></trkpt>
        <trkpt lat="29.546663" lon="104.279509"><ele>521.0725</ele><time>2026-04-04T00:50:09.000Z</time></trkpt>
        <trkpt lat="29.546712" lon="104.279532"><ele>520.9461</ele><time>2026-04-04T00:50:14.000Z</time></trkpt>
        <trkpt lat="29.546754" lon="104.279557"><ele>521.8153</ele><time>2026-04-04T00:50:18.000Z</time></trkpt>
        <trkpt lat="29.546809" lon="104.279586"><ele>523.4528</ele><time>2026-04-04T00:50:22.000Z</time></trkpt>
        <trkpt lat="29.546855" lon="104.279585"><ele>523.8757</ele><time>2026-04-04T00:50:27.000Z</time></trkpt>
        <trkpt lat="29.546894" lon="104.279547"><ele>523.9303</ele><time>2026-04-04T00:50:31.000Z</time></trkpt>
        <trkpt lat="29.546917" lon="104.27949"><ele>523.85583</ele><time>2026-04-04T00:50:35.000Z</time></trkpt>
        <trkpt lat="29.546938" lon="104.279431"><ele>524.7749</ele><time>2026-04-04T00:50:40.000Z</time></trkpt>
        <trkpt lat="29.546961" lon="104.279386"><ele>523.7693</ele><time>2026-04-04T00:50:44.000Z</time></trkpt>
        <trkpt lat="29.546967" lon="104.279331"><ele>524.50195</ele><time>2026-04-04T00:50:48.000Z</time></trkpt>
        <trkpt lat="29.546992" lon="104.279273"><ele>524.17017</ele><time>2026-04-04T00:50:56.000Z</time></trkpt>
        <trkpt lat="29.547031" lon="104.279218"><ele>524.71545</ele><time>2026-04-04T00:51:01.000Z</time></trkpt>
        <trkpt lat="29.547067" lon="104.279168"><ele>525.4259</ele><time>2026-04-04T00:51:07.000Z</time></trkpt>
        <trkpt lat="29.547112" lon="104.279147"><ele>524.5438</ele><time>2026-04-04T00:51:11.000Z</time></trkpt>
        <trkpt lat="29.547161" lon="104.279127"><ele>525.05945</ele><time>2026-04-04T00:51:16.000Z</time></trkpt>
        <trkpt lat="29.547215" lon="104.279099"><ele>524.10614</ele><time>2026-04-04T00:51:20.000Z</time></trkpt>
        <trkpt lat="29.547267" lon="104.279074"><ele>522.05505</ele><time>2026-04-04T00:51:25.000Z</time></trkpt>
        <trkpt lat="29.547319" lon="104.279056"><ele>522.24805</ele><time>2026-04-04T00:51:29.000Z</time></trkpt>
        <trkpt lat="29.547345" lon="104.278996"><ele>521.69214</ele><time>2026-04-04T00:51:34.000Z</time></trkpt>
        <trkpt lat="29.547356" lon="104.278932"><ele>520.16547</ele><time>2026-04-04T00:51:38.000Z</time></trkpt>
        <trkpt lat="29.547392" lon="104.278891"><ele>519.32056</ele><time>2026-04-04T00:51:41.000Z</time></trkpt>
        <trkpt lat="29.547439" lon="104.278868"><ele>519.7492</ele><time>2026-04-04T00:51:44.000Z</time></trkpt>
        <trkpt lat="29.547488" lon="104.278857"><ele>518.7257</ele><time>2026-04-04T00:51:47.000Z</time></trkpt>
        <trkpt lat="29.547529" lon="104.278835"><ele>517.69293</ele><time>2026-04-04T00:51:50.000Z</time></trkpt>
        <trkpt lat="29.547586" lon="104.27883"><ele>518.129</ele><time>2026-04-04T00:51:54.000Z</time></trkpt>
        <trkpt lat="29.547635" lon="104.278826"><ele>517.3575</ele><time>2026-04-04T00:51:57.000Z</time></trkpt>
        <trkpt lat="29.547688" lon="104.278809"><ele>516.5405</ele><time>2026-04-04T00:52:01.000Z</time></trkpt>
        <trkpt lat="29.547726" lon="104.278842"><ele>515.35547</ele><time>2026-04-04T00:52:04.000Z</time></trkpt>
        <trkpt lat="29.54777" lon="104.278861"><ele>514.81244</ele><time>2026-04-04T00:52:07.000Z</time></trkpt>
        <trkpt lat="29.547826" lon="104.278882"><ele>513.5681</ele><time>2026-04-04T00:52:11.000Z</time></trkpt>
        <trkpt lat="29.547883" lon="104.278885"><ele>514.2556</ele><time>2026-04-04T00:52:15.000Z</time></trkpt>
        <trkpt lat="29.547936" lon="104.278873"><ele>513.2793</ele><time>2026-04-04T00:52:19.000Z</time></trkpt>
        <trkpt lat="29.547986" lon="104.278875"><ele>512.7062</ele><time>2026-04-04T00:52:23.000Z</time></trkpt>
        <trkpt lat="29.548033" lon="104.278881"><ele>512.42035</ele><time>2026-04-04T00:52:27.000Z</time></trkpt>
        <trkpt lat="29.548079" lon="104.278891"><ele>512.75085</ele><time>2026-04-04T00:52:31.000Z</time></trkpt>
        <trkpt lat="29.54813" lon="104.278912"><ele>512.73846</ele><time>2026-04-04T00:52:36.000Z</time></trkpt>
        <trkpt lat="29.548183" lon="104.278927"><ele>512.09235</ele><time>2026-04-04T00:52:40.000Z</time></trkpt>
        <trkpt lat="29.548238" lon="104.27893"><ele>511.37003</ele><time>2026-04-04T00:52:45.000Z</time></trkpt>
        <trkpt lat="29.548294" lon="104.278944"><ele>509.86337</ele><time>2026-04-04T00:52:50.000Z</time></trkpt>
        <trkpt lat="29.548351" lon="104.278951"><ele>508.51965</ele><time>2026-04-04T00:52:55.000Z</time></trkpt>
        <trkpt lat="29.548403" lon="104.278943"><ele>507.5926</ele><time>2026-04-04T00:52:59.000Z</time></trkpt>
        <trkpt lat="29.548452" lon="104.278946"><ele>507.4342</ele><time>2026-04-04T00:53:03.000Z</time></trkpt>
        <trkpt lat="29.548499" lon="104.278943"><ele>507.35843</ele><time>2026-04-04T00:53:07.000Z</time></trkpt>
        <trkpt lat="29.548552" lon="104.278959"><ele>507.32654</ele><time>2026-04-04T00:53:11.000Z</time></trkpt>
        <trkpt lat="29.548605" lon="104.278983"><ele>510.11383</ele><time>2026-04-04T00:53:31.000Z</time></trkpt>
        <trkpt lat="29.548658" lon="104.279"><ele>508.93408</ele><time>2026-04-04T00:53:36.000Z</time></trkpt>
        <trkpt lat="29.548704" lon="104.279014"><ele>508.73816</ele><time>2026-04-04T00:53:39.000Z</time></trkpt>
        <trkpt lat="29.548755" lon="104.27904"><ele>507.84836</ele><time>2026-04-04T00:53:44.000Z</time></trkpt>
        <trkpt lat="29.548805" lon="104.279067"><ele>507.19858</ele><time>2026-04-04T00:53:48.000Z</time></trkpt>
        <trkpt lat="29.548856" lon="104.279097"><ele>506.03055</ele><time>2026-04-04T00:53:52.000Z</time></trkpt>
        <trkpt lat="29.548904" lon="104.279116"><ele>505.82596</ele><time>2026-04-04T00:53:56.000Z</time></trkpt>
        <trkpt lat="29.548957" lon="104.27913"><ele>505.37668</ele><time>2026-04-04T00:54:01.000Z</time></trkpt>
      </trkseg>
  </trk>
</gpx>